[[{"header":{"parameterUnit":"m.s-1","parameterCategory":1,"la1":31.0,"la2":29.5877,"lo1":-88.7671,"lo2":-86.6584,"dx":0.0162,"dy":0.0185,"nx":115,"ny":88,"refTime":"2023-02-12T06:00:00:Z","depth":0,"parameterNumber":2,"parameterNumberName":"U-component_of_WINDS"},"data":[0.0,0.0,0.0,0.0,0.0,0.0,0.0,0.0,0.0,0.0,0.0,0.0,0.0,0.0,0.0,0.0,0.0,0.0,0.0,0.0,0.0,0.0,0.0,0.0,0.0,0.0,0.0,0.0,0.0,0.0,0.0,0.0,0.0,0.0,0.0,0.0,0.0,0.0,0.0,0.0,0.0,0.0,0.0,0.0,0.0,0.0,0.0,0.0,0.0,0.0,0.0,0.0,0.0,0.0,0.0,0.0,0.0,0.0,0.0,0.0,0.0,0.0,0.0,0.0,0.0,0.0,0.0,0.0,0.0,0.0,0.0,0.0,0.0,0.0,0.0,0.0,0.0,0.0,0.0,0.0,0.0,0.0,0.0,0.0,0.0,0.0,0.0,0.0,0.0,0.0,0.0,0.0,0.0,0.0,0.0,0.0,0.0,0.0,0.0,0.0,0.0,0.0,0.0,0.0,0.0,0.0,0.0,0.0,0.0,0.0,0.0,0.0,0.0,0.0,0.0,0.0,0.0,0.0,0.0,0.0,0.0,0.0,0.0,0.0,0.0,0.0,0.0,0.0,0.0,0.0,0.0,0.0,0.0,0.0,0.0,0.0,0.0,0.0,0.0,0.0,0.0,0.0,0.0,0.0,0.0,0.0,0.0,0.0,0.0,0.0,0.0,0.0,0.0,0.0,0.0,0.0,0.0,0.0,0.0,0.0,0.0,0.0,0.0,0.0,0.0,0.0,0.0,0.0,0.0,0.0,0.0,0.0,0.0,0.0,0.0,0.0,0.0,0.0,0.0,0.0,0.0,0.0,0.0,0.0,0.0,0.0,0.0,0.0,0.0,0.0,0.0,0.0,0.0,0.0,0.0,0.0,0.0,0.0,0.0,0.0,0.0,0.0,0.0,0.0,0.0,0.0,0.0,0.0,0.0,0.0,0.0,0.0,0.0,0.0,0.0,0.0,0.0,0.0,0.0,0.0,0.0,0.0,0.0,0.0,0.0,0.0,0.0,0.0,0.0,0.0,0.0,0.0,0.0,0.0,0.0,0.0,0.0,0.0,0.0,0.0,0.0,0.0,0.0,0.0,0.0,0.0,0.0,0.0,0.0,0.0,0.0,0.0,0.0,0.0,0.0,0.0,0.0,0.0,0.0,0.0,0.0,0.0,0.0,0.0,0.0,0.0,0.0,0.0,0.0,0.0,0.0,0.0,0.0,0.0,0.0,0.0,0.0,0.0,0.0,0.0,0.0,0.0,0.0,0.0,0.0,0.0,0.0,0.0,0.0,0.0,0.0,0.0,0.0,0.0,0.0,0.0,0.0,0.0,0.0,0.0,0.0,0.0,0.0,0.0,0.0,0.0,0.0,0.0,0.0,0.0,0.0,0.0,0.0,0.0,0.0,0.0,0.0,0.0,0.0,0.0,0.0,0.0,0.0,0.0,0.0,0.0,0.0,0.0,0.0,0.0,0.0,0.0,0.0,0.0,0.0,0.0,0.0,0.0,0.0,0.0,0.0,0.0,0.0,0.0,0.0,0.0,0.0,0.0,0.0,0.0,0.0,0.0,0.0,0.0,0.0,0.0,0.0,0.0,0.0,0.0,0.0,0.0,0.0,0.0,0.0,0.0,0.0,0.0,0.0,0.0,0.0,0.0,0.0,0.0,0.0,0.0,0.0,0.0,0.0,0.0,0.0,0.0,0.0,0.0,0.0,0.0,0.0,0.0,0.0,0.0,0.0,0.0,0.0,0.0,0.0,0.0,0.0,0.0,0.0,0.0,0.0,0.0,0.0,0.0,0.0,0.0,0.0,0.0,0.0,0.0,0.0,0.0,0.0,0.0,0.0,0.0,0.0,0.0,0.0,0.0,0.0,0.0,0.0,0.0,0.0,0.0,0.0,0.0,0.0,0.0,0.0,0.0,0.0,0.0,0.0,0.0,0.0,0.0,0.0,0.0,0.0,0.0,0.0,0.0,0.0,0.0,0.0,0.0,0.0,0.0,0.0,0.0,0.0,0.0,0.0,0.0,0.0,0.0,0.0,0.0,0.0,0.0,0.0,0.0,0.0,0.0,0.0,0.0,0.0,0.0,0.0,0.0,0.0,0.0,0.0,0.0,0.0,0.0,0.0,0.0,0.0,0.0,0.0,0.0,0.0,0.0,0.0,0.0,0.0,0.0,0.0,0.0,0.0,0.0,0.0,0.0,0.0,0.0,0.0,0.0,0.0,0.0,0.0,0.0,0.0,0.0,0.0,0.0,0.0,0.0,0.0,0.0,0.0,0.0,0.0,0.0,0.0,0.0,0.0,0.0,0.0,0.0,0.0,0.0,0.0,0.0,0.0,0.0,0.0,0.0,0.0,0.0,0.0,0.0,0.0,0.0,0.0,0.0,0.0,0.0,0.0,0.0,0.0,0.0,0.0,0.0,0.0,0.0,0.0,0.0,0.0,0.0,0.0,0.0,0.0,0.0,0.0,0.0,0.0,0.0,0.0,0.0,0.0,0.0,0.0,0.0,0.0,0.0,0.0,0.0,0.0,0.0,0.0,0.0,0.0,0.0,0.0,0.0,0.0,0.0,0.0,0.0,0.0,0.0,0.0,0.0,0.0,0.0,0.0,0.0,0.0,0.0,0.0,0.0,0.0,0.0,0.0,0.0,0.0,0.0,0.0,0.0,0.0,0.0,0.0,0.0,0.0,0.0,0.0,0.0,0.0,0.0,0.0,0.0,0.0,0.0,0.0,0.0,0.0,0.0,0.0,0.0,0.0,0.0,0.0,0.0,0.0,0.0,0.0,0.0,0.0,0.0,0.0,0.0,0.0,0.0,0.0,0.0,0.0,0.0,0.0,0.0,0.0,0.0,0.0,0.0,0.0,0.0,0.0,0.0,0.0,0.0,0.0,0.0,0.0,0.0,0.0,0.0,0.0,0.0,0.0,0.0,0.0,0.0,0.0,0.0,0.0,0.0,0.0,0.0,0.0,0.0,0.0,0.0,0.0,0.0,0.0,0.0,0.0,0.0,0.0,0.0,0.0,0.0,0.0,0.0,0.0,0.0,0.0,0.0,0.0,0.0,0.0,0.0,0.0,0.0,0.0,0.0,0.0,0.0,0.0,0.0,0.0,0.0,0.0,0.0,0.0,0.0,0.0,0.0,0.0,0.0,0.0,0.0,0.0,0.0,0.0,0.0,0.0,0.0,0.0,0.0,0.0,0.0,0.0,0.0,0.0,0.0,0.0,0.0,0.0,0.0,0.0,0.0,0.0,0.0,0.0,0.0,0.0,0.0,0.0,0.0,0.0,0.0,0.0,0.0,0.0,0.0,0.0,0.0,0.0,0.0,0.0,0.0,0.0,0.0,0.0,0.0,0.0,0.0,0.0,0.0,0.0,0.0,0.0,0.0,0.0,0.0,0.0,0.0,0.0,0.0,0.0,0.0,0.0,0.0,0.0,0.0,0.0,0.0,0.0,0.0,0.0,0.0,0.0,0.0,0.0,0.0,0.0,0.0,0.0,0.0,0.0,0.0,0.0,0.0,0.0,0.0,0.0,0.0,0.0,0.0,0.0,0.0,0.0,0.0,0.0,0.0,0.0,0.0,0.0,0.0,0.0,0.0,0.0,0.0,0.0,0.0,0.0,0.0,0.0,0.0,0.0,0.0,0.0,0.0,0.0,0.0,0.0,0.0,0.0,0.0,0.0,0.0,0.0,0.0,0.0,0.0,0.0,0.0,0.0,0.0,0.0,0.0,0.0,0.0,0.0,0.0,0.0,0.0,0.0,0.0,0.0,0.0,0.0,0.0,0.0,0.0,0.0,0.0,0.0,0.0,0.0,0.0,0.0,0.0,0.0,0.0,0.0,0.0,0.0,0.0,0.0,0.0,0.0,0.0,0.0,0.0,0.0,0.0,0.0,0.0,0.0,0.0,0.0,0.0,0.0,0.0,0.0,0.0,0.0,0.0,0.0,0.0,0.0,0.0,0.0,0.0,0.0,0.0,0.0,0.0,0.0,0.0,0.0,0.0,0.0,0.0,0.0,0.0,0.0,0.0,0.0,0.0,0.0,0.0,0.0,0.0,0.0,0.0,0.0,0.0,0.0,0.0,0.0,0.0,0.0,0.0,0.0,0.0,0.0,0.0,0.0,0.0,0.0,0.0,0.0,0.0,0.0,0.0,0.0,0.0,0.0,0.0,0.0,0.0,0.0,0.0,0.0,0.0,0.0,0.0,0.0,0.0,0.0,0.0,0.0,0.0,0.0,0.0,0.0,0.0,0.0,0.0,0.0,0.0,6.2842,0.0,0.0,0.0,0.0,0.0,0.0,0.0,0.0,0.0,0.0,0.0,0.0,0.0,0.0,0.0,0.0,0.0,0.0,0.0,0.0,0.0,0.0,0.0,0.0,0.0,0.0,0.0,0.0,0.0,0.0,0.0,0.0,0.0,0.0,0.0,0.0,0.0,0.0,0.0,0.0,0.0,0.0,0.0,0.0,0.0,0.0,0.0,0.0,0.0,0.0,0.0,0.0,0.0,0.0,0.0,0.0,0.0,0.0,0.0,0.0,0.0,0.0,0.0,0.0,0.0,0.0,0.0,0.0,0.0,0.0,0.0,0.0,0.0,0.0,0.0,0.0,0.0,0.0,0.0,0.0,0.0,0.0,0.0,0.0,0.0,0.0,0.0,0.0,0.0,0.0,0.0,0.0,0.0,0.0,0.0,0.0,0.0,0.0,0.0,0.0,0.0,0.0,0.0,0.0,0.0,0.0,0.0,0.0,0.0,0.0,6.4604,6.42,6.5007,6.5044,6.4237,0.0,0.0,0.0,0.0,0.0,0.0,0.0,0.0,0.0,0.0,0.0,0.0,0.0,0.0,0.0,0.0,0.0,0.0,0.0,0.0,0.0,0.0,0.0,0.0,0.0,0.0,0.0,0.0,0.0,0.0,0.0,0.0,0.0,0.0,0.0,0.0,0.0,0.0,0.0,0.0,0.0,0.0,0.0,0.0,0.0,0.0,0.0,0.0,0.0,0.0,0.0,0.0,0.0,0.0,0.0,0.0,0.0,0.0,0.0,0.0,0.0,0.0,0.0,0.0,0.0,0.0,0.0,0.0,0.0,0.0,0.0,0.0,0.0,0.0,0.0,0.0,0.0,0.0,0.0,0.0,0.0,0.0,0.0,0.0,0.0,0.0,0.0,0.0,0.0,0.0,0.0,0.0,0.0,0.0,0.0,0.0,0.0,0.0,0.0,0.0,0.0,0.0,0.0,0.0,0.0,0.0,0.0,0.0,0.0,0.0,0.0,0.0,6.6512,6.6586,6.5375,0.0,0.0,0.0,0.0,0.0,0.0,0.0,0.0,0.0,0.0,0.0,0.0,0.0,0.0,0.0,0.0,0.0,0.0,0.0,0.0,0.0,0.0,0.0,0.0,0.0,0.0,0.0,0.0,0.0,0.0,0.0,0.0,0.0,0.0,0.0,0.0,0.0,0.0,0.0,0.0,0.0,0.0,0.0,0.0,0.0,0.0,0.0,0.0,0.0,0.0,0.0,0.0,0.0,0.0,0.0,0.0,0.0,0.0,0.0,0.0,0.0,0.0,0.0,0.0,0.0,0.0,0.0,0.0,0.0,0.0,0.0,0.0,0.0,0.0,0.0,0.0,0.0,0.0,0.0,0.0,0.0,0.0,0.0,0.0,0.0,0.0,0.0,0.0,0.0,0.0,0.0,0.0,0.0,0.0,0.0,0.0,0.0,0.0,0.0,0.0,0.0,0.0,0.0,0.0,0.0,0.0,0.0,0.0,0.0,0.0,6.5375,6.5338,6.5485,0.0,6.5338,0.0,0.0,0.0,0.0,0.0,0.0,0.0,0.0,0.0,0.0,0.0,0.0,0.0,0.0,0.0,0.0,0.0,0.0,0.0,0.0,0.0,0.0,0.0,0.0,0.0,0.0,0.0,0.0,0.0,0.0,0.0,0.0,0.0,0.0,0.0,0.0,0.0,0.0,0.0,0.0,0.0,0.0,0.0,0.0,0.0,0.0,0.0,0.0,0.0,0.0,0.0,0.0,0.0,0.0,0.0,0.0,0.0,0.0,0.0,0.0,0.0,0.0,0.0,0.0,0.0,0.0,0.0,0.0,0.0,0.0,0.0,0.0,0.0,0.0,0.0,0.0,0.0,0.0,0.0,0.0,0.0,0.0,0.0,0.0,0.0,0.0,0.0,0.0,0.0,0.0,0.0,0.0,0.0,0.0,0.0,0.0,0.0,0.0,0.0,0.0,0.0,0.0,0.0,0.0,0.0,0.0,0.0,0.0,0.0,0.0,6.6733,6.6733,6.6696,6.6733,0.0,0.0,0.0,0.0,0.0,0.0,0.0,0.0,0.0,0.0,0.0,0.0,0.0,0.0,0.0,0.0,0.0,0.0,0.0,0.0,0.0,0.0,0.0,0.0,0.0,0.0,0.0,0.0,0.0,0.0,0.0,0.0,0.0,0.0,0.0,0.0,0.0,0.0,0.0,0.0,0.0,0.0,0.0,0.0,0.0,0.0,0.0,0.0,0.0,0.0,0.0,0.0,0.0,0.0,0.0,0.0,0.0,0.0,0.0,0.0,0.0,0.0,0.0,0.0,0.0,0.0,0.0,0.0,0.0,0.0,0.0,0.0,0.0,0.0,0.0,0.0,0.0,0.0,0.0,0.0,0.0,0.0,0.0,0.0,0.0,0.0,0.0,0.0,0.0,0.0,0.0,0.0,0.0,0.0,0.0,0.0,0.0,0.0,0.0,0.0,0.0,0.0,0.0,0.0,0.0,0.0,0.0,0.0,0.0,0.0,6.7687,6.7687,6.7687,6.7687,6.7687,6.7687,0.0,0.0,0.0,0.0,0.0,0.0,0.0,0.0,0.0,0.0,0.0,0.0,0.0,0.0,0.0,0.0,0.0,0.0,0.0,0.0,0.0,0.0,0.0,0.0,0.0,0.0,0.0,0.0,0.0,0.0,0.0,0.0,0.0,0.0,0.0,0.0,0.0,0.0,0.0,0.0,0.0,0.0,0.0,0.0,0.0,0.0,0.0,0.0,0.0,0.0,0.0,0.0,0.0,0.0,0.0,0.0,0.0,0.0,0.0,0.0,0.0,0.0,0.0,0.0,0.0,0.0,0.0,0.0,0.0,0.0,0.0,0.0,0.0,0.0,0.0,0.0,0.0,0.0,0.0,0.0,0.0,0.0,0.0,0.0,0.0,0.0,0.0,0.0,0.0,0.0,0.0,0.0,0.0,0.0,0.0,0.0,0.0,0.0,0.0,0.0,0.0,0.0,0.0,0.0,0.0,0.0,0.0,0.0,0.0,6.7687,6.7687,6.7687,6.7687,6.7687,0.0,0.0,0.0,0.0,0.0,0.0,0.0,0.0,0.0,0.0,0.0,0.0,0.0,0.0,0.0,0.0,0.0,0.0,0.0,0.0,0.0,0.0,0.0,0.0,0.0,0.0,0.0,0.0,0.0,0.0,0.0,0.0,0.0,0.0,0.0,0.0,0.0,0.0,0.0,0.0,0.0,0.0,0.0,0.0,0.0,0.0,0.0,0.0,0.0,0.0,0.0,0.0,0.0,0.0,0.0,0.0,0.0,0.0,0.0,0.0,0.0,0.0,0.0,0.0,0.0,0.0,0.0,0.0,0.0,0.0,0.0,0.0,0.0,0.0,0.0,0.0,0.0,0.0,0.0,0.0,0.0,0.0,0.0,0.0,0.0,0.0,0.0,0.0,0.0,0.0,0.0,0.0,0.0,0.0,0.0,0.0,0.0,0.0,0.0,0.0,0.0,0.0,0.0,0.0,0.0,0.0,0.0,0.0,0.0,6.7687,6.7687,6.7687,6.7687,6.7687,6.7687,0.0,0.0,0.0,0.0,0.0,0.0,0.0,0.0,0.0,0.0,0.0,0.0,0.0,0.0,0.0,0.0,0.0,0.0,0.0,0.0,0.0,0.0,0.0,0.0,0.0,0.0,0.0,0.0,0.0,0.0,0.0,0.0,0.0,0.0,0.0,0.0,0.0,0.0,0.0,0.0,0.0,0.0,0.0,0.0,0.0,0.0,0.0,0.0,0.0,0.0,0.0,0.0,0.0,0.0,0.0,0.0,0.0,0.0,0.0,0.0,0.0,0.0,0.0,0.0,0.0,0.0,0.0,0.0,0.0,0.0,0.0,0.0,0.0,0.0,0.0,0.0,0.0,0.0,0.0,0.0,0.0,0.0,0.0,0.0,0.0,0.0,0.0,0.0,0.0,0.0,0.0,0.0,0.0,0.0,0.0,0.0,0.0,0.0,0.0,0.0,0.0,0.0,0.0,0.0,0.0,0.0,0.0,0.0,0.0,6.7687,0.0,6.7687,0.0,6.7687,6.7687,0.0,0.0,0.0,0.0,0.0,0.0,0.0,0.0,0.0,0.0,0.0,0.0,0.0,0.0,0.0,0.0,0.0,0.0,0.0,0.0,0.0,0.0,0.0,0.0,0.0,0.0,0.0,0.0,0.0,0.0,0.0,0.0,0.0,0.0,0.0,0.0,0.0,0.0,0.0,0.0,0.0,0.0,0.0,0.0,0.0,0.0,0.0,0.0,0.0,0.0,0.0,0.0,0.0,0.0,0.0,0.0,0.0,0.0,0.0,0.0,0.0,0.0,0.0,0.0,0.0,0.0,0.0,0.0,0.0,0.0,0.0,0.0,0.0,0.0,0.0,0.0,0.0,0.0,0.0,0.0,0.0,0.0,0.0,0.0,0.0,0.0,0.0,0.0,0.0,0.0,0.0,0.0,0.0,0.0,0.0,0.0,0.0,0.0,0.0,0.0,0.0,0.0,0.0,0.0,0.0,0.0,0.0,0.0,6.7687,6.7687,6.7687,6.7687,6.7687,6.7687,6.7687,0.0,0.0,0.0,0.0,0.0,0.0,0.0,0.0,0.0,0.0,0.0,0.0,0.0,0.0,0.0,0.0,0.0,0.0,0.0,0.0,0.0,0.0,0.0,0.0,0.0,0.0,0.0,0.0,0.0,0.0,0.0,0.0,0.0,0.0,0.0,0.0,0.0,0.0,0.0,0.0,0.0,0.0,0.0,0.0,0.0,0.0,0.0,0.0,0.0,0.0,0.0,0.0,0.0,0.0,0.0,0.0,0.0,0.0,0.0,0.0,0.0,0.0,0.0,0.0,0.0,0.0,0.0,0.0,0.0,0.0,0.0,0.0,0.0,0.0,0.0,0.0,0.0,0.0,0.0,0.0,0.0,0.0,0.0,0.0,0.0,0.0,0.0,0.0,0.0,0.0,0.0,0.0,0.0,0.0,0.0,0.0,0.0,0.0,0.0,0.0,0.0,0.0,0.0,0.0,0.0,0.0,0.0,0.0,0.0,6.7687,6.7687,6.7687,6.7687,6.7687,6.7687,0.0,0.0,0.0,0.0,0.0,0.0,0.0,0.0,0.0,0.0,0.0,0.0,0.0,0.0,0.0,0.0,0.0,0.0,0.0,0.0,0.0,0.0,0.0,0.0,0.0,0.0,0.0,0.0,0.0,0.0,0.0,0.0,0.0,0.0,0.0,0.0,0.0,0.0,0.0,0.0,0.0,0.0,0.0,0.0,0.0,0.0,0.0,0.0,0.0,0.0,0.0,0.0,0.0,0.0,0.0,0.0,0.0,0.0,0.0,0.0,0.0,0.0,0.0,0.0,0.0,0.0,0.0,0.0,0.0,0.0,0.0,0.0,0.0,0.0,0.0,0.0,0.0,0.0,0.0,0.0,0.0,0.0,0.0,0.0,0.0,0.0,0.0,0.0,0.0,0.0,0.0,0.0,0.0,0.0,0.0,0.0,0.0,0.0,0.0,0.0,0.0,0.0,0.0,0.0,0.0,0.0,0.0,0.0,0.0,6.7687,6.7687,6.7687,6.7687,6.7687,6.7687,6.7687,0.0,0.0,0.0,0.0,0.0,0.0,0.0,0.0,0.0,0.0,0.0,0.0,0.0,0.0,0.0,0.0,0.0,0.0,0.0,0.0,0.0,0.0,0.0,0.0,0.0,0.0,0.0,0.0,0.0,0.0,0.0,0.0,0.0,0.0,0.0,0.0,0.0,0.0,0.0,0.0,0.0,0.0,0.0,0.0,0.0,0.0,0.0,0.0,0.0,0.0,0.0,0.0,0.0,0.0,0.0,0.0,0.0,0.0,0.0,0.0,0.0,0.0,0.0,0.0,0.0,0.0,0.0,0.0,0.0,0.0,0.0,0.0,0.0,0.0,0.0,0.0,0.0,0.0,0.0,0.0,0.0,0.0,0.0,0.0,0.0,0.0,0.0,0.0,0.0,0.0,0.0,0.0,0.0,0.0,0.0,0.0,0.0,0.0,0.0,0.0,0.0,0.0,0.0,0.0,0.0,0.0,0.0,0.0,6.7687,6.7687,6.7687,6.7687,6.7687,6.7687,0.0,0.0,0.0,0.0,0.0,0.0,0.0,0.0,0.0,0.0,0.0,0.0,0.0,0.0,0.0,0.0,0.0,0.0,0.0,0.0,0.0,0.0,0.0,0.0,0.0,0.0,0.0,0.0,0.0,0.0,0.0,0.0,0.0,0.0,0.0,0.0,0.0,0.0,0.0,0.0,0.0,0.0,0.0,0.0,0.0,0.0,0.0,0.0,0.0,0.0,0.0,0.0,0.0,0.0,0.0,0.0,0.0,0.0,0.0,0.0,0.0,0.0,0.0,0.0,0.0,0.0,0.0,0.0,0.0,0.0,0.0,0.0,0.0,0.0,0.0,0.0,0.0,0.0,0.0,0.0,0.0,0.0,0.0,0.0,0.0,0.0,0.0,0.0,0.0,0.0,0.0,0.0,0.0,0.0,0.0,0.0,0.0,0.0,0.0,0.0,0.0,0.0,0.0,0.0,0.0,0.0,0.0,0.0,0.0,6.7687,6.7687,6.7687,6.7687,6.7687,6.7687,0.0,0.0,0.0,0.0,0.0,0.0,0.0,0.0,0.0,0.0,0.0,0.0,0.0,0.0,0.0,0.0,0.0,0.0,0.0,0.0,0.0,0.0,0.0,0.0,0.0,0.0,0.0,0.0,0.0,0.0,0.0,0.0,0.0,0.0,0.0,0.0,0.0,0.0,0.0,0.0,0.0,0.0,0.0,0.0,0.0,0.0,0.0,0.0,0.0,0.0,0.0,0.0,0.0,0.0,0.0,0.0,0.0,0.0,0.0,0.0,0.0,0.0,0.0,0.0,0.0,0.0,0.0,0.0,0.0,0.0,0.0,0.0,0.0,0.0,0.0,0.0,0.0,0.0,0.0,0.0,0.0,0.0,0.0,0.0,0.0,0.0,0.0,0.0,0.0,0.0,0.0,0.0,0.0,0.0,0.0,0.0,0.0,0.0,0.0,0.0,0.0,0.0,0.0,0.0,0.0,0.0,0.0,0.0,6.7687,6.7687,6.7687,6.7687,6.7687,6.7687,6.7687,0.0,0.0,0.0,0.0,0.0,0.0,0.0,0.0,0.0,0.0,0.0,0.0,0.0,0.0,0.0,0.0,0.0,0.0,0.0,0.0,0.0,0.0,0.0,0.0,0.0,0.0,0.0,0.0,0.0,0.0,0.0,0.0,0.0,0.0,0.0,0.0,0.0,0.0,0.0,0.0,0.0,0.0,0.0,0.0,0.0,0.0,0.0,0.0,0.0,0.0,0.0,0.0,0.0,0.0,0.0,0.0,0.0,0.0,0.0,0.0,0.0,0.0,0.0,0.0,0.0,0.0,0.0,0.0,0.0,0.0,0.0,0.0,0.0,0.0,0.0,0.0,0.0,0.0,0.0,0.0,0.0,0.0,0.0,0.0,0.0,0.0,0.0,0.0,0.0,0.0,0.0,0.0,0.0,0.0,0.0,0.0,0.0,0.0,0.0,0.0,0.0,0.0,0.0,0.0,0.0,0.0,0.0,0.0,6.7724,6.7797,6.7797,6.7834,6.7944,6.7797,6.7687,0.0,0.0,0.0,0.0,0.0,0.0,0.0,0.0,0.0,0.0,0.0,0.0,0.0,0.0,0.0,0.0,0.0,0.0,0.0,0.0,0.0,0.0,0.0,0.0,0.0,0.0,0.0,0.0,0.0,0.0,0.0,0.0,0.0,0.0,0.0,0.0,0.0,0.0,0.0,0.0,0.0,0.0,0.0,0.0,0.0,0.0,0.0,0.0,0.0,0.0,0.0,0.0,0.0,0.0,0.0,0.0,0.0,0.0,0.0,0.0,0.0,0.0,0.0,0.0,0.0,0.0,0.0,0.0,0.0,0.0,0.0,0.0,0.0,0.0,0.0,0.0,0.0,0.0,0.0,0.0,0.0,0.0,0.0,0.0,0.0,0.0,0.0,0.0,0.0,0.0,0.0,0.0,0.0,0.0,0.0,0.0,0.0,0.0,0.0,0.0,0.0,0.0,0.0,0.0,0.0,0.0,0.0,0.0,6.8017,6.8641,6.8641,6.8935,6.9559,6.8348,6.7687,0.0,0.0,0.0,0.0,0.0,0.0,0.0,0.0,0.0,0.0,0.0,0.0,0.0,0.0,0.0,0.0,0.0,0.0,0.0,0.0,0.0,0.0,0.0,0.0,0.0,0.0,0.0,0.0,0.0,0.0,0.0,0.0,0.0,0.0,0.0,0.0,0.0,0.0,0.0,0.0,0.0,0.0,0.0,0.0,0.0,0.0,0.0,0.0,6.6464,0.0,0.0,0.0,0.0,0.0,0.0,0.0,0.0,0.0,0.0,0.0,0.0,0.0,0.0,0.0,0.0,0.0,0.0,0.0,0.0,0.0,0.0,0.0,0.0,0.0,0.0,0.0,0.0,0.0,0.0,0.0,0.0,0.0,0.0,0.0,0.0,0.0,0.0,0.0,0.0,0.0,0.0,0.0,0.0,0.0,0.0,0.0,0.0,0.0,0.0,0.0,0.0,0.0,0.0,0.0,0.0,0.0,0.0,0.0,6.9045,6.9449,6.9486,6.9669,7.0036,6.9265,6.8825,0.0,0.0,0.0,0.0,0.0,0.0,0.0,0.0,0.0,0.0,0.0,0.0,0.0,0.0,0.0,0.0,0.0,0.0,0.0,0.0,0.0,0.0,0.0,0.0,0.0,0.0,0.0,0.0,0.0,0.0,0.0,0.0,0.0,0.0,0.0,0.0,0.0,0.0,0.0,0.0,0.0,0.0,0.0,0.0,0.0,0.0,0.0,0.0,0.0,0.0,0.0,0.0,0.0,0.0,0.0,0.0,0.0,0.0,0.0,0.0,0.0,0.0,0.0,0.0,0.0,0.0,0.0,0.0,0.0,0.0,0.0,0.0,0.0,0.0,0.0,0.0,0.0,0.0,0.0,0.0,0.0,0.0,0.0,0.0,0.0,0.0,0.0,0.0,0.0,0.0,0.0,0.0,0.0,0.0,0.0,0.0,0.0,0.0,0.0,0.0,0.0,0.0,0.0,0.0,0.0,0.0,0.0,6.9743,7.0146,7.0293,7.0293,7.033,7.044,7.0477,7.044,7.044,0.0,0.0,0.0,0.0,0.0,0.0,0.0,0.0,0.0,0.0,0.0,0.0,0.0,0.0,0.0,0.0,0.0,0.0,0.0,0.0,0.0,0.0,0.0,0.0,0.0,0.0,0.0,0.0,0.0,0.0,0.0,0.0,0.0,0.0,0.0,0.0,0.0,0.0,6.7871,6.8568,0.0,0.0,0.0,0.0,0.0,0.0,0.0,0.0,6.9697,0.0,0.0,0.0,0.0,0.0,0.0,0.0,0.0,0.0,0.0,0.0,0.0,0.0,0.0,0.0,0.0,0.0,0.0,0.0,0.0,0.0,0.0,0.0,0.0,0.0,0.0,0.0,0.0,0.0,0.0,0.0,0.0,0.0,0.0,0.0,0.0,0.0,0.0,0.0,0.0,0.0,0.0,0.0,0.0,0.0,0.0,0.0,0.0,0.0,0.0,0.0,0.0,0.0,0.0,0.0,0.0,6.9889,7.0036,7.0403,7.1101,7.1101,7.1431,7.2092,7.2092,7.2129,7.2055,0.0,0.0,0.0,0.0,0.0,0.0,0.0,0.0,0.0,0.0,0.0,0.0,0.0,0.0,0.0,0.0,0.0,0.0,0.0,0.0,0.0,0.0,0.0,0.0,0.0,0.0,0.0,0.0,0.0,0.0,0.0,0.0,0.0,0.0,0.0,0.0,0.0,0.0,0.0,6.9412,6.9797,0.0,0.0,0.0,0.0,0.0,0.0,0.0,0.0,7.0,0.0,0.0,0.0,0.0,0.0,0.0,0.0,0.0,0.0,0.0,0.0,0.0,0.0,0.0,0.0,0.0,0.0,0.0,0.0,0.0,0.0,0.0,0.0,0.0,0.0,0.0,0.0,0.0,0.0,0.0,0.0,0.0,0.0,0.0,0.0,0.0,0.0,0.0,0.0,0.0,0.0,0.0,0.0,0.0,0.0,0.0,0.0,0.0,0.0,0.0,0.0,0.0,0.0,0.0,0.0,7.077,7.1138,7.1541,7.1908,7.1945,7.2129,7.2496,7.2532,7.2532,0.0,0.0,0.0,0.0,0.0,0.0,0.0,0.0,0.0,0.0,0.0,0.0,0.0,0.0,0.0,0.0,0.0,0.0,0.0,0.0,0.0,0.0,0.0,0.0,0.0,0.0,0.0,0.0,0.0,0.0,0.0,0.0,0.0,0.0,0.0,0.0,0.0,0.0,0.0,0.0,7.022,7.0587,7.0146,0.0,0.0,0.0,0.0,0.0,0.0,7.1358,7.1055,0.0,0.0,0.0,0.0,0.0,0.0,0.0,0.0,0.0,0.0,0.0,0.0,0.0,0.0,0.0,0.0,0.0,0.0,0.0,0.0,0.0,0.0,0.0,0.0,0.0,0.0,0.0,0.0,0.0,0.0,0.0,0.0,0.0,0.0,0.0,0.0,0.0,0.0,0.0,0.0,0.0,0.0,0.0,0.0,0.0,0.0,0.0,0.0,0.0,0.0,0.0,0.0,0.0,0.0,0.0,7.1578,7.2202,7.2532,7.2532,7.2532,7.2532,7.2532,7.2532,7.2532,0.0,0.0,0.0,0.0,0.0,0.0,0.0,0.0,0.0,0.0,0.0,0.0,0.0,0.0,0.0,0.0,0.0,0.0,0.0,0.0,0.0,0.0,0.0,0.0,0.0,0.0,0.0,0.0,0.0,0.0,0.0,0.0,0.0,0.0,0.0,0.0,0.0,0.0,0.0,0.0,0.0,7.1321,7.0697,7.1688,0.0,0.0,0.0,0.0,7.2532,7.2532,0.0,0.0,0.0,0.0,0.0,0.0,0.0,0.0,0.0,0.0,0.0,0.0,0.0,0.0,0.0,0.0,0.0,0.0,0.0,0.0,0.0,0.0,0.0,0.0,0.0,0.0,0.0,0.0,0.0,0.0,0.0,0.0,0.0,0.0,0.0,0.0,0.0,0.0,0.0,0.0,0.0,0.0,0.0,0.0,0.0,0.0,0.0,0.0,0.0,0.0,0.0,0.0,0.0,0.0,0.0,0.0,7.2386,7.2459,7.2532,7.2532,7.2532,7.2532,7.2532,7.2532,7.2532,0.0,0.0,0.0,0.0,0.0,0.0,0.0,0.0,0.0,0.0,0.0,0.0,0.0,0.0,0.0,0.0,0.0,0.0,0.0,0.0,0.0,0.0,0.0,0.0,0.0,0.0,0.0,0.0,0.0,0.0,0.0,0.0,0.0,0.0,0.0,0.0,0.0,0.0,0.0,0.0,0.0,7.2349,7.2239,7.2386,7.2459,0.0,0.0,7.2532,7.2532,7.2532,0.0,0.0,0.0,0.0,0.0,0.0,0.0,0.0,0.0,0.0,0.0,0.0,0.0,0.0,0.0,0.0,0.0,0.0,0.0,0.0,0.0,0.0,0.0,0.0,0.0,0.0,0.0,0.0,0.0,0.0,0.0,0.0,0.0,0.0,0.0,0.0,0.0,0.0,0.0,0.0,0.0,0.0,0.0,0.0,0.0,0.0,0.0,0.0,0.0,0.0,0.0,0.0,0.0,0.0,0.0,7.2532,7.2532,7.2532,7.2532,7.2532,7.2532,7.2532,7.2532,7.2532,7.2532,0.0,0.0,0.0,0.0,0.0,0.0,0.0,0.0,0.0,0.0,0.0,0.0,0.0,0.0,0.0,0.0,0.0,0.0,0.0,0.0,0.0,0.0,0.0,0.0,0.0,0.0,0.0,0.0,0.0,0.0,0.0,0.0,0.0,0.0,0.0,0.0,0.0,0.0,0.0,0.0,0.0,0.0,7.2532,7.2532,0.0,0.0,0.0,7.2532,7.2532,0.0,0.0,0.0,0.0,0.0,0.0,0.0,0.0,0.0,0.0,0.0,0.0,0.0,0.0,0.0,0.0,0.0,0.0,0.0,0.0,0.0,0.0,0.0,0.0,0.0,0.0,0.0,0.0,0.0,0.0,0.0,0.0,0.0,0.0,0.0,0.0,0.0,0.0,0.0,0.0,0.0,0.0,0.0,0.0,0.0,0.0,0.0,0.0,0.0,0.0,0.0,0.0,0.0,0.0,0.0,0.0,0.0,7.2532,7.2532,7.2606,7.2789,7.2789,7.2899,7.3083,7.312,0.0,0.0,0.0,0.0,0.0,0.0,0.0,0.0,0.0,0.0,0.0,0.0,0.0,0.0,0.0,0.0,0.0,0.0,0.0,0.0,0.0,0.0,0.0,0.0,0.0,0.0,0.0,6.7944,0.0,0.0,0.0,0.0,0.0,0.0,0.0,0.0,0.0,0.0,0.0,0.0,0.0,0.0,7.2532,7.2532,7.2532,7.2532,0.0,0.0,7.2532,7.2532,7.2532,7.2285,0.0,0.0,0.0,0.0,0.0,0.0,0.0,0.0,0.0,0.0,0.0,0.0,0.0,0.0,0.0,0.0,0.0,0.0,0.0,0.0,0.0,0.0,0.0,0.0,0.0,0.0,0.0,0.0,0.0,0.0,0.0,0.0,0.0,0.0,0.0,0.0,0.0,0.0,0.0,0.0,0.0,0.0,0.0,0.0,0.0,0.0,0.0,0.0,0.0,0.0,0.0,0.0,0.0,0.0,0.0,7.2532,7.2532,7.2863,7.356,7.3597,7.4001,7.4698,7.4735,7.4735,0.0,0.0,0.0,0.0,0.0,0.0,0.0,0.0,0.0,0.0,0.0,0.0,0.0,0.0,0.0,0.0,0.0,0.0,0.0,0.0,0.0,0.0,0.0,0.0,0.0,0.0,0.0,0.0,0.0,0.0,0.0,0.0,0.0,0.0,0.0,0.0,0.0,0.0,0.0,0.0,0.0,7.2532,7.2532,7.2532,7.2532,0.0,0.0,7.2532,7.2532,7.2532,7.2496,7.2438,0.0,0.0,0.0,0.0,0.0,0.0,0.0,0.0,0.0,0.0,0.0,0.0,0.0,0.0,0.0,0.0,0.0,0.0,0.0,0.0,0.0,0.0,0.0,0.0,0.0,0.0,0.0,0.0,0.0,0.0,0.0,0.0,0.0,0.0,0.0,0.0,0.0,0.0,0.0,0.0,0.0,0.0,0.0,0.0,0.0,0.0,0.0,0.0,0.0,0.0,0.0,0.0,0.0,7.3288,7.3419,7.3897,7.4322,7.4732,7.4732,7.488,7.5174,7.5211,7.5211,0.0,0.0,0.0,0.0,0.0,0.0,0.0,0.0,0.0,0.0,0.0,0.0,0.0,0.0,0.0,0.0,0.0,0.0,0.0,0.0,0.0,0.0,0.0,0.0,0.0,0.0,0.0,0.0,7.022,7.0587,7.1064,0.0,0.0,0.0,0.0,0.0,0.0,0.0,0.0,0.0,0.0,7.2532,7.2532,7.2936,0.0,0.0,7.367,7.4001,7.4001,7.4001,7.3964,7.4001,7.4001,0.0,0.0,0.0,0.0,0.0,0.0,0.0,0.0,0.0,0.0,0.0,0.0,0.0,0.0,0.0,0.0,0.0,0.0,0.0,0.0,0.0,0.0,0.0,0.0,0.0,0.0,0.0,0.0,0.0,0.0,0.0,0.0,0.0,0.0,0.0,0.0,0.0,0.0,0.0,0.0,0.0,0.0,0.0,0.0,0.0,0.0,0.0,0.0,0.0,0.0,0.0,0.0,7.4191,7.4343,7.4896,7.5359,7.5752,7.5695,7.5748,7.6027,7.6006,7.6006,0.0,0.0,0.0,0.0,0.0,0.0,0.0,0.0,0.0,0.0,0.0,0.0,0.0,0.0,0.0,0.0,0.0,0.0,0.0,0.0,0.0,0.0,0.0,0.0,0.0,0.0,0.0,0.0,7.1174,7.1615,7.2422,0.0,0.0,0.0,0.0,0.0,0.0,0.0,0.0,0.0,0.0,7.2863,7.2863,7.356,7.4074,7.4037,7.4551,7.4918,7.4918,7.4918,7.4918,7.4918,0.0,0.0,0.0,0.0,0.0,0.0,0.0,0.0,0.0,0.0,0.0,0.0,0.0,0.0,0.0,0.0,0.0,0.0,0.0,0.0,0.0,0.0,0.0,0.0,0.0,0.0,0.0,0.0,0.0,0.0,7.2422,0.0,0.0,0.0,0.0,0.0,0.0,0.0,0.0,0.0,0.0,0.0,0.0,0.0,0.0,0.0,0.0,0.0,0.0,0.0,0.0,0.0,0.0,0.0,7.5153,7.5227,7.5653,7.6565,7.6273,7.6581,7.7473,7.7329,7.7329,7.751,0.0,0.0,0.0,0.0,0.0,0.0,0.0,0.0,0.0,0.0,0.0,0.0,0.0,0.0,0.0,0.0,0.0,0.0,0.0,0.0,0.0,0.0,0.0,0.0,0.0,0.0,7.022,7.0844,7.1651,0.0,0.0,0.0,0.0,0.0,0.0,0.0,0.0,0.0,0.0,7.3193,7.367,7.367,7.4368,7.4882,7.4882,7.4918,7.4955,7.4955,7.4955,7.4918,0.0,0.0,0.0,0.0,0.0,0.0,0.0,0.0,0.0,0.0,0.0,0.0,0.0,0.0,0.0,0.0,0.0,0.0,0.0,0.0,0.0,0.0,0.0,0.0,0.0,0.0,0.0,7.2355,7.2242,0.0,0.0,0.0,0.0,0.0,0.0,0.0,0.0,0.0,0.0,0.0,7.4169,7.4111,0.0,0.0,0.0,0.0,0.0,0.0,0.0,0.0,0.0,0.0,0.0,0.0,7.5845,7.6,7.6596,7.7119,7.7493,7.755,7.7698,7.8051,7.7994,7.79,7.7842,0.0,0.0,0.0,0.0,0.0,0.0,0.0,0.0,0.0,0.0,0.0,0.0,0.0,0.0,0.0,0.0,0.0,0.0,0.0,0.0,0.0,0.0,0.0,0.0,0.0,7.1688,0.0,0.0,0.0,0.0,0.0,0.0,0.0,0.0,0.0,0.0,0.0,7.3303,7.3303,7.4001,7.4515,7.4515,7.5175,7.5689,0.0,0.0,0.0,0.0,0.0,0.0,0.0,0.0,0.0,0.0,0.0,0.0,0.0,0.0,7.511,7.3044,7.2513,7.2298,7.2298,0.0,0.0,0.0,0.0,0.0,0.0,0.0,0.0,0.0,0.0,0.0,0.0,0.0,0.0,0.0,0.0,7.3627,0.0,0.0,0.0,0.0,0.0,0.0,0.0,0.0,7.4838,7.5095,7.5037,7.4978,7.5065,0.0,7.5322,7.5469,0.0,0.0,0.0,0.0,0.0,0.0,0.0,0.0,7.6774,7.6928,7.7525,7.7957,7.8071,7.8108,7.8165,7.8221,7.8221,7.8127,7.8014,7.79,7.782,0.0,0.0,0.0,0.0,0.0,0.0,0.0,0.0,0.0,0.0,0.0,0.0,0.0,0.0,0.0,0.0,0.0,0.0,0.0,0.0,0.0,0.0,0.0,7.2532,0.0,0.0,0.0,0.0,0.0,0.0,0.0,0.0,0.0,7.301,7.3597,7.4111,7.4111,7.4808,7.5322,7.5322,0.0,0.0,0.0,0.0,0.0,0.0,0.0,7.7341,7.7341,7.7341,7.7056,7.6336,7.6403,7.6505,7.627,0.0,0.0,7.4658,7.4104,7.3898,7.3898,7.3333,7.278,7.278,7.1917,7.1191,0.0,0.0,0.0,0.0,0.0,0.0,0.0,0.0,7.5402,7.5402,0.0,7.5309,0.0,0.0,0.0,0.0,0.0,7.5306,0.0,0.0,7.555,7.5494,7.5437,7.5147,7.5395,7.613,7.613,7.6533,7.7194,7.5763,0.0,0.0,0.0,0.0,0.0,0.0,7.782,7.7783,7.79,7.8071,7.8221,7.7994,7.7842,7.7977,7.7977,7.8014,7.7977,7.8014,7.7957,7.782,7.7643,0.0,0.0,0.0,0.0,0.0,0.0,0.0,0.0,0.0,0.0,0.0,0.0,0.0,0.0,0.0,0.0,0.0,0.0,0.0,0.0,7.2532,0.0,0.0,0.0,0.0,0.0,0.0,0.0,0.0,0.0,0.0,7.3891,7.4478,7.4955,7.4955,0.0,0.0,0.0,0.0,7.7304,7.7304,7.7341,7.7341,7.7341,7.7341,7.7341,7.7341,0.0,0.0,7.6336,7.6829,7.7056,7.6336,7.6829,7.7341,7.7206,7.6591,7.613,7.6063,7.5404,7.4975,7.4866,7.3517,7.2555,7.6104,0.0,0.0,0.0,0.0,7.5606,7.5661,7.5679,7.5679,7.5624,7.5551,7.5551,0.0,0.0,0.0,0.0,0.0,0.0,7.6154,7.6191,7.6685,7.698,7.698,7.6824,7.6972,7.7192,7.7035,7.7084,7.7268,7.6864,7.6644,7.6644,0.0,0.0,0.0,0.0,7.7643,7.768,7.79,7.79,7.7799,7.7937,7.79,7.7842,7.7842,7.7842,7.7842,7.7842,7.7842,7.7783,7.7643,0.0,0.0,0.0,0.0,0.0,0.0,0.0,0.0,0.0,0.0,0.0,0.0,0.0,0.0,0.0,0.0,0.0,0.0,0.0,7.2569,7.301,7.334,0.0,0.0,0.0,0.0,0.0,0.0,0.0,0.0,0.0,7.5432,7.5616,7.5763,0.0,0.0,7.6974,7.6974,7.7157,7.7341,7.7341,7.7341,0.0,0.0,7.7341,7.7341,7.7341,7.7341,7.7243,7.7019,7.7181,7.7243,7.6993,7.7181,7.7341,7.7304,7.7118,7.6829,7.627,7.5512,7.4864,7.4229,7.3342,7.2835,7.7181,7.6681,7.657,7.657,7.6681,7.6681,7.6736,7.679,7.679,7.6736,7.6681,7.6681,7.657,7.6457,7.64,0.0,0.0,0.0,7.7082,7.7176,7.754,7.7703,7.7643,7.7524,7.7463,7.7463,7.7304,7.7341,7.7341,7.7341,7.7341,7.7341,0.0,0.0,7.7463,7.756,7.762,7.762,7.782,7.7842,7.7725,7.7957,7.8108,7.7994,7.7994,7.7994,7.7994,7.79,7.7842,7.782,7.7643,7.7524,0.0,0.0,0.0,0.0,0.0,0.0,0.0,0.0,0.0,0.0,0.0,7.4918,0.0,0.0,0.0,0.0,7.4478,7.3964,7.3487,7.3891,0.0,0.0,0.0,0.0,0.0,0.0,0.0,7.4698,7.5799,7.657,7.657,7.657,7.657,7.6607,7.7011,7.7341,7.7341,0.0,7.7341,7.7341,7.7341,7.7341,7.7341,7.7341,7.7341,7.7341,7.7341,7.7341,7.7341,7.7341,7.7341,7.7341,7.7341,7.7341,7.7341,7.7341,7.7181,7.67,7.6233,7.5721,7.5263,7.434,7.3756,7.8276,7.8276,7.8276,7.8276,7.8276,7.8276,7.8276,7.8276,7.8276,7.8276,7.8276,7.8276,7.8221,7.8014,7.79,0.0,7.8014,7.8014,7.8071,7.8221,7.7937,7.7783,7.7783,7.7487,7.7304,7.7341,7.7341,7.7341,7.7341,7.7341,7.7341,7.7341,7.7341,7.7341,7.7341,7.7524,7.762,7.7584,7.7762,7.79,7.8014,7.8165,7.8221,7.8221,7.8276,7.8221,7.8221,7.8071,7.7957,7.782,7.7703,7.7524,7.7341,0.0,0.0,0.0,0.0,0.0,0.0,0.0,0.0,0.0,0.0,0.0,0.0,0.0,0.0,0.0,7.5102,0.0,7.4918,7.4955,0.0,0.0,0.0,7.5028,7.5102,7.5726,7.6203,7.6203,0.0,0.0,7.7341,7.7341,7.7341,7.7341,7.7341,7.7341,7.7341,7.7341,7.7341,7.7341,7.7341,7.7341,7.7341,7.7341,7.7341,7.7341,7.7341,7.7341,7.7341,7.7341,7.7341,7.7341,7.7341,7.7341,7.7341,7.7341,7.7279,7.7181,7.7118,7.7118,7.6829,7.579,7.4937,7.8276,7.8276,7.8276,7.8276,7.8276,7.8276,7.8276,7.8276,7.8276,7.8276,7.8276,7.8276,7.8276,7.8221,7.8221,7.8108,7.8014,7.8014,7.7957,7.7937,7.7957,7.79,7.782,7.7725,7.7643,7.756,7.7365,7.7341,7.7341,7.7341,7.7341,7.7341,7.7341,7.7402,7.7524,7.7703,7.7762,7.7762,7.8051,7.8127,7.8014,7.7957,7.79,7.7937,7.79,7.7937,7.7937,7.7957,7.7957,7.7783,7.7762,7.7703,7.7524,7.7402,0.0,0.0,0.0,0.0,0.0,0.0,0.0,0.0,0.0,7.6754,7.6754,0.0,7.6754,0.0,7.6754,7.624,7.5028,7.5469,0.0,0.0,7.5799,7.6056,7.668,7.69,7.7011,7.7047,7.7194,7.7341,7.7341,7.7341,7.7341,7.7341,7.7341,7.7341,7.7341,7.7341,7.7341,7.7341,7.7341,7.7341,7.7341,7.7341,7.7341,7.7341,7.7341,7.7341,7.7341,7.7341,7.7341,7.7341,7.7341,7.7341,7.7243,7.7341,7.7056,7.6636,7.6469,7.627,7.5652,7.5227,7.5155,7.8276,7.8276,7.8276,7.8276,7.8276,7.8276,7.8276,7.8276,7.8276,7.8276,7.8276,7.8276,7.8276,7.8276,7.8276,7.8221,7.8127,7.8165,7.8071,7.8051,7.7957,7.7842,7.7783,7.7607,7.7524,7.7463,7.7341,7.7341,7.7341,7.7341,7.7341,7.7341,7.7341,7.7341,7.7463,7.7547,7.7547,7.7547,7.7879,7.7937,7.79,7.79,7.7842,7.7783,7.7937,7.7994,7.79,7.7957,7.792,7.782,7.7762,7.7643,7.7463,7.7402,7.7341,0.0,0.0,0.0,0.0,0.0,0.0,0.0,0.0,0.0,0.0,0.0,7.7341,7.7341,7.7341,7.6937,7.6056,7.6387,7.6644,7.6644,7.6644,7.6827,7.7268,7.7341,7.7341,7.7341,7.7341,7.7341,7.7341,7.7341,7.7341,7.7341,7.7341,7.7341,7.7341,7.7341,7.7341,7.7341,7.7341,7.7341,7.7341,7.7341,7.7341,7.7341,7.7341,7.7341,7.7304,7.7056,7.6829,7.6829,7.6829,7.6664,7.6366,7.6893,7.7056,7.6469,7.6469,7.6233,7.5227,7.4716,7.4606,7.8276,7.8276,7.8276,7.8276,7.8276,7.8276,7.8276,7.8276,7.8276,7.8276,7.8276,7.8276,7.8276,7.8276,7.8276,7.8276,7.8276,7.8276,7.8276,7.8221,7.7994,7.782,7.7783,7.7487,7.7365,7.7341,7.7304,7.7341,7.7341,7.7341,7.7341,7.7341,7.7341,7.7341,7.7341,7.7341,7.7304,7.7402,7.7524,7.7703,7.7783,7.7957,7.7957,7.7842,7.8108,7.8221,7.8014,7.8014,7.7957,7.782,7.7643,7.7524,7.7341,7.7341,7.7341,0.0,7.7341,0.0,0.0,0.0,0.0,0.0,0.0,0.0,0.0,7.7341,7.7341,7.7341,7.7341,7.7341,7.7341,7.7341,7.7341,7.7304,7.7341,7.7341,7.7341,7.7341,7.7341,7.7341,7.7341,7.7341,7.7341,7.7341,7.7341,7.7341,7.7341,7.7341,7.7341,7.7341,7.7341,7.7341,7.7341,7.7341,7.7341,7.7341,7.7341,7.7341,7.7341,7.7243,7.7118,7.6636,7.6203,7.6203,7.627,7.6032,7.537,7.6366,7.6829,7.6135,7.6336,7.63,7.5582,7.4975,7.4305,7.8276,7.8276,7.8276,7.8276,7.8276,7.8276,7.8276,7.8276,7.8276,7.8276,7.8276,7.8276,7.8276,7.8276,7.8276,7.8221,7.8071,7.8221,7.8165,7.79,7.7957,7.79,7.7783,7.7725,7.7607,7.7524,7.756,7.7463,7.7341,7.7341,7.7341,7.7341,7.7341,7.7341,7.7341,0.0,0.0,0.0,7.7725,7.7725,7.7783,7.7957,7.7977,7.7957,7.8127,0.0,7.8014,7.8014,7.79,7.7643,7.7584,0.0,0.0,0.0,0.0,0.0,0.0,0.0,0.0,0.0,0.0,0.0,7.7231,7.7341,7.7341,7.7341,7.7341,7.7341,7.7341,7.7341,7.7341,7.7341,7.7341,7.7341,7.7341,7.7341,7.7341,7.7341,7.7341,7.7341,7.7341,7.7341,7.7341,7.7341,7.7341,7.7341,7.7341,7.7341,7.7341,7.7341,7.7341,7.7341,7.7341,7.7341,7.7341,7.7341,7.7341,7.7341,7.7341,7.7118,7.6636,7.6336,7.6203,7.6203,7.6203,7.6336,7.6664,7.67,7.6203,7.537,7.4902,7.4975,7.6534,7.6728,7.6664,7.8276,0.0,7.8276,7.8276,0.0,7.8276,7.8276,7.8276,7.8276,7.8276,7.8276,7.8276,7.8276,7.8276,7.8276,7.8221,7.8127,7.8276,7.8221,7.8051,7.8014,7.7957,7.79,7.7762,7.7643,7.762,7.7463,7.7402,7.7304,7.7341,7.7341,7.7341,7.7341,7.7341,7.7341,7.7341,7.7463,7.7783,7.7783,7.7842,7.79,7.7957,7.7957,7.79,0.0,0.0,0.0,0.0,0.0,0.0,0.0,0.0,0.0,0.0,0.0,7.7341,7.7341,7.7341,7.7341,7.7341,7.7341,7.7341,7.7341,7.7341,7.7341,7.7341,7.7341,7.7341,7.7341,7.7341,7.7341,7.7341,7.7341,7.7341,7.7341,7.7341,7.7341,7.7341,7.7341,7.7341,7.7341,7.7341,7.7341,7.7341,7.7341,7.7341,7.7341,7.7341,7.7341,7.7341,7.7341,7.7341,7.7341,7.7341,7.7341,7.7341,7.7341,7.7341,7.7341,7.7118,7.6829,7.6403,7.6203,7.6203,7.5895,7.5652,7.5582,7.5895,7.5963,7.5299,7.5299,7.579,7.7019,7.6063,7.512,7.8276,7.8276,7.8276,7.8276,7.8276,7.8276,7.8276,7.8276,0.0,0.0,0.0,7.8276,7.8276,7.8276,7.8276,7.8276,7.8276,7.8276,7.8276,7.8221,7.8071,7.8014,7.7957,7.7762,7.762,7.762,7.7463,7.7341,7.7304,7.7341,7.7341,7.7341,7.7341,7.7341,7.7341,7.7341,7.7487,7.7762,7.7762,7.782,7.79,7.7957,7.7957,7.7842,7.8165,7.8221,7.8014,7.8165,7.8108,7.782,7.7762,7.7643,7.7304,7.7341,7.7341,7.7341,7.7341,7.7341,7.7341,7.7341,7.7341,7.7341,7.7341,7.7341,7.7341,7.7341,7.7341,7.7341,7.7341,7.7341,7.7341,7.7341,7.7341,7.7341,7.7341,7.7341,7.7341,7.7341,7.7341,7.7341,7.7341,7.7341,7.7341,7.7341,7.7341,7.7341,7.7341,7.7341,7.7341,7.7341,7.7341,7.7341,7.7341,7.7341,7.7341,7.7341,7.7341,7.7341,7.7341,7.7243,7.7056,7.6636,7.627,7.6203,7.5618,7.5155,7.4681,7.5512,7.5895,7.5155,7.5859,7.6664,7.63,7.4642,7.3437,7.8276,7.8276,7.8276,7.8276,7.8276,7.8276,7.8276,7.8276,7.8276,7.8276,7.8276,7.8276,7.8276,7.8276,7.8276,7.8276,7.8276,7.8276,7.8221,0.0,7.8014,7.7957,7.7842,7.782,7.7703,7.762,7.756,7.7463,7.7341,7.7341,7.7341,7.7341,7.7341,7.7341,7.7341,7.7463,7.7584,7.7584,7.762,7.7643,7.7643,7.79,7.8014,7.8014,7.8221,7.8221,7.8014,7.8014,7.79,7.7643,7.7584,7.7524,7.7341,7.7341,7.7341,7.7341,7.7341,7.7341,7.7341,7.7341,7.7341,7.7341,7.7341,7.7341,7.7341,7.7341,7.7341,7.7341,7.7341,7.7341,7.7341,7.7341,7.7341,7.7341,7.7341,7.7341,7.7341,7.7341,7.7341,7.7341,7.7341,7.7341,7.7341,7.7341,7.7341,7.7341,7.7341,7.7341,7.7341,7.7341,7.7341,7.7341,7.7341,7.7341,7.7341,7.7341,7.7341,7.7341,7.7341,7.7118,7.6636,7.6403,7.627,7.6203,7.6068,7.6099,7.6469,7.6403,7.5963,7.5227,7.5047,7.4606,7.4187,7.3834,7.4305,7.8276,7.8276,7.8276,7.8276,7.8276,7.8276,7.8276,7.8276,7.8276,7.8276,7.8276,7.8276,7.8276,7.8276,7.8276,7.8276,7.8276,7.8276,7.8276,7.8165,7.8127,7.8165,7.8051,7.7957,7.7842,7.782,7.7762,7.7643,7.7463,7.7463,7.7402,7.7378,7.7781,7.8002,7.8038,7.8504,7.8885,7.8872,7.8086,7.7983,7.8485,7.866,7.8961,7.9426,7.9576,7.9576,7.9426,7.9018,7.8681,7.8367,7.7924,7.7584,7.7304,7.7341,7.7341,7.7341,7.7341,7.7341,7.7341,7.7341,7.7341,7.7341,7.7341,7.7341,7.7341,7.7341,7.7341,7.7341,7.7341,7.7341,7.7341,7.7341,7.7341,7.7341,7.7341,7.7341,7.7341,7.7341,7.7341,7.7341,7.7341,7.7341,7.7341,7.7341,7.7341,7.7341,7.7341,7.7341,7.7341,7.7341,7.7341,7.7341,7.7341,7.7341,7.7341,7.7341,7.7341,7.7341,7.7341,7.7181,7.6829,7.6765,7.6801,7.6765,7.6505,7.6336,7.67,7.6469,7.6068,7.5826,7.579,7.5512,7.537,7.5512,7.5927,7.8276,7.8276,7.8276,7.8276,7.8276,7.8276,7.8276,7.8276,7.8276,7.8276,7.8276,7.8276,7.8276,7.8276,7.8276,7.8276,7.8276,7.8276,7.8276,7.8276,7.8276,7.8313,7.8221,7.8071,7.8014,7.7994,7.7968,7.7998,7.7878,7.8002,7.8014,7.799,7.8578,7.8908,7.9007,7.9595,7.9952,7.9965,7.8943,7.8729,7.9533,7.9628,7.9982,8.0617,8.0691,8.0691,8.0654,8.0097,7.9648,7.932,7.8729,7.8256,7.7916,7.7916,7.7781,7.7635,7.7598,7.7524,7.7341,7.7341,7.7341,7.7341,7.7341,7.7341,7.7341,7.7341,7.7341,7.7341,7.7341,7.7341,7.7341,7.7341,7.7341,7.7341,7.7341,7.7341,7.7341,7.7341,7.7341,7.7341,7.7341,7.7341,7.7341,7.7341,7.7341,7.7341,7.7341,7.7341,7.7341,7.7341,7.7341,7.7341,7.7341,7.7341,7.7341,7.7524,7.7635,7.7598,7.7818,7.794,7.794,7.7866,7.7892,7.7877,7.7486,7.7159,7.685,7.702,7.6922,7.6686,7.6927,7.7486,7.7458,7.7203,7.7048,7.8276,7.8276,7.8276,7.8276,7.8313,7.8351,7.8351,7.8351,7.8313,7.8313,7.8388,7.8313,7.8351,7.8276,7.8313,7.8351,7.8388,7.8313,7.8351,7.8351,7.8276,7.8221,7.8145,7.8051,7.7957,7.799,7.844,7.8749,7.8725,7.9264,7.9632,7.9793,7.9867,7.9965,8.0124,8.0235,8.0295,8.0295,8.0147,8.0193,8.0385,8.0465,8.0617,8.0691,8.0728,8.0691,8.0802,8.0617,8.0522,8.0348,8.0274,8.0059,7.9719,7.9756,7.94,7.8552,7.8479,7.8148,7.7451,7.7341,7.7341,7.7341,7.7341,7.7341,7.7341,7.7341,7.7341,7.7341,7.7341,7.7341,7.7341,7.7341,7.7341,7.7341,7.7341,7.7341,7.7341,7.7341,7.7341,7.7341,7.7341,7.7341,7.7341,7.7341,7.7341,7.7341,7.7341,7.7341,7.7341,7.7414,7.7451,7.7378,7.7341,7.7414,7.7488,7.8038,7.8405,7.8516,7.9066,7.9286,7.9286,7.9323,7.9507,7.9066,7.926,7.8865,7.8602,7.8784,7.8777,7.7875,7.8017,7.8472,7.8404,7.7964,7.7347,7.8276,7.8276,7.8276,7.8573,7.9019,7.9502,7.9725,7.9725,7.9725,7.9725,7.9725,7.9725,7.9465,7.9019,7.8982,7.9242,7.9688,7.9725,7.9725,7.9688,7.9725,7.9688,7.9631,7.9574,7.9574,7.9517,7.9829,7.986,7.9875,7.9989,8.0137,8.021,8.0677,8.0899,8.1034,8.1477,8.176,8.1881,8.1844,8.1904,8.1986,8.154,8.1599,8.2103,8.2177,8.2177,8.2103,8.1731,8.1376,8.1163,8.0756,8.0378,7.9977,7.9977,7.9805,7.9323,7.9286,7.8956,7.8148,7.8075,7.7855,7.7378,7.7341,7.7341,7.7341,7.7341,7.7341,7.7341,7.7341,7.7341,7.7341,7.7341,7.7341,7.7341,7.7341,7.7341,7.7341,7.7341,7.7341,7.7341,7.7341,7.7341,7.7341,7.7341,7.7341,7.7341,7.7341,7.7378,7.7341,7.7745,7.8038,7.8148,7.8442,7.8516,7.8259,7.8772,7.9213,7.936,7.9543,7.98,7.9874,7.98,7.9764,7.9837,7.991,7.981,7.9332,7.9471,7.9471,7.894,7.8904,7.9172,7.8626,7.868,7.8449,7.8759,7.8945,7.8945,7.9279,7.9874,8.0431,8.0691,8.0691,8.0691,8.0691,8.0691,8.0691,8.0505,8.0171,7.9948,8.0171,8.0654,8.0691,8.0691,8.0691,8.0691,8.0691,8.0691,8.0691,8.0691,8.0728,8.0856,8.1058,8.1067,8.0984,8.102,8.1094,8.1575,8.1931,8.2005,8.256,8.288,8.3001,8.315,8.3358,8.344,8.3024,8.2913,8.318,8.318,8.318,8.318,8.2623,8.223,8.2075,8.1519,8.1007,8.0801,8.0739,8.0504,8.0094,7.991,7.9543,7.8956,7.8919,7.8662,7.8075,7.8002,7.7892,7.7708,7.7671,7.7561,7.7341,7.7341,7.7341,7.7341,7.7341,7.7341,7.7341,7.7341,7.7341,7.7341,7.7341,7.7341,7.7341,7.7341,7.7341,7.7341,7.7341,7.7341,7.7341,7.7524,7.7671,7.7781,7.8369,7.8919,7.8956,7.958,7.9727,7.914,7.958,8.0021,8.0204,8.0314,8.0608,8.0461,8.0461,8.0461,8.0901,8.0571,8.0332,8.0187,8.021,8.0498,8.0461,8.0434,8.0304,7.9943,8.0056,7.9836,7.9874,8.0505,8.058,8.058,8.0654,8.0728,8.0728,8.0877,8.0765,8.0728,8.0802,8.0802,8.1137,8.1768,8.1063,8.0691,8.0728,8.0802,8.084,8.084,8.0802,8.0728,8.0691,8.0691,8.0765,8.0951,8.1466,8.2015,8.2499,8.2511,8.2647,8.2793,8.283,8.2927,8.3158,8.3269,8.3217,8.3403,8.3997,8.4332,8.4406,8.5,8.4592,8.3477,8.3254,8.3292,8.3254,8.318,8.318,8.3143,8.295,8.2732,8.2585,8.2323,8.1828,8.0975,8.0241,7.98,7.9764,7.9727,7.9653,7.958,7.947,7.9323,7.8626,7.8552,7.8222,7.7451,7.7561,7.7488,7.7488,7.7414,7.7341,7.7341,7.7341,7.7341,7.7341,7.7341,7.7341,7.7341,7.7341,7.7378,7.7378,7.7341,7.7451,7.7635,7.8075,7.8516,7.8626,7.9213,7.9653,7.9874,8.0314,8.0645,8.0021,8.0424,8.0865,8.1012,8.1342,8.1893,8.2039,8.2113,8.2003,8.2003,8.1929,8.1659,8.1223,8.1364,8.1945,8.2076,8.2113,8.1945,8.1178,8.111,8.0853,8.0431,8.0728,8.1285,8.1508,8.1583,8.2066,8.2288,8.2288,8.2288,8.2288,8.2288,8.2288,8.2474,8.2734,8.2437,8.2288,8.2288,8.2288,8.2288,8.2288,8.2288,8.2288,8.2288,8.2288,8.2288,8.2326,8.2527,8.2765,8.2964,8.3001,8.3321,8.3826,8.3863,8.4123,8.4629,8.474,8.474,8.4778,8.5038,8.5149,8.5186,8.5446,8.5298,8.4778,8.474,8.474,8.474,8.474,8.474,8.474,8.4558,8.4213,8.3508,8.2702,8.2141,8.1782,8.1489,8.1122,8.0645,8.0534,8.0314,7.9837,7.98,7.9727,7.9433,7.9323,7.9213,7.8956,7.8883,7.8883,7.8662,7.8002,7.7341,7.7341,7.7341,7.7378,7.7341,7.7341,7.7341,7.7341,7.7341,7.7488,7.8038,7.8148,7.8332,7.8809,7.9176,7.9323,7.947,8.0021,8.0571,8.0681,8.1232,8.1672,8.1452,8.1525,8.1782,8.1819,8.2003,8.2113,8.2223,8.237,8.2333,8.248,8.2663,8.2891,8.2445,8.2842,8.3324,8.3471,8.3508,8.2941,8.2312,8.2318,8.1885,8.1508,8.1583,8.214,8.2363,8.2437,8.2957,8.318,8.318,8.318,8.318,8.318,8.318,8.318,8.318,8.318,8.318,8.318,8.318,8.318,8.318,8.318,8.318,8.318,8.318,8.318,8.3217,8.3477,8.37,8.396,8.396,8.4257,8.4778,8.4778,8.5038,8.5521,8.5595,8.5595,8.5632,8.5855,8.5966,8.6004,8.6264,8.6412,8.6412,8.6412,8.6115,8.5669,8.5595,8.5595,8.5595,8.5448,8.4938,8.4129,8.3382,8.2957,8.2957,8.2737,8.237,8.1819,8.1525,8.1158,8.0645,8.0571,8.0498,8.0241,8.0167,8.0057,7.9874,7.98,7.98,7.958,7.8772,7.8112,7.8112,7.8112,7.8112,7.8112,7.8148,7.8148,7.8222,7.8222,7.8442,7.8846,7.8956,7.9213,7.9727,7.9984,8.0167,8.0277,8.0865,8.1379,8.1415,8.1782,8.226,8.237,8.2517,8.2627,8.2663,8.2663,8.2627,8.2774,8.281,8.2884,8.303,8.3287,8.3618,8.3985,8.4315,8.4499,8.4646,8.4389,8.3851,8.3569,8.3459,8.3093,8.3143,8.3069,8.318,8.3106,8.3106,8.3143,8.318,8.318,8.318,8.318,8.318,8.3217,8.3329,8.3292,8.344,8.3329,8.344,8.3477,8.3403,8.3329,8.3292,8.3329,8.3403,8.344,8.3477,8.3477,8.4035,8.4778,8.5372,8.5335,8.5446,8.5558,8.5595,8.5706,8.5706,8.5855,8.5781,8.5929,8.6524,8.6821,8.6895,8.749,8.7861,8.7935,8.7898,8.723,8.5818,8.5743,8.5855,8.572,8.5472,8.5042,8.4742,8.4529,8.4499,8.4278,8.3801,8.3434,8.3287,8.27,8.2333,8.2076,8.215,8.1782,8.1158,8.1012,8.0755,8.0241,8.0057,7.9947,7.9984,7.9874,7.969,7.9727,7.9507,7.9507,7.958,7.969,7.9727,7.9617,7.9507,7.9727,7.9764,7.98,7.991,8.0167,8.0608,8.1012,8.1048,8.1599,8.2039,8.2186,8.237,8.27,8.3067,8.3434,8.3471,8.3471,8.3471,8.3471,8.3801,8.3948,8.3875,8.3985,8.4242,8.4609,8.5013,8.527,8.5159,8.5196,8.4939,8.4866,8.4615,8.4437,8.4395,8.318,8.318,8.318,8.318,8.318,8.318,8.318,8.318,8.318,8.318,8.3292,8.3775,8.3997,8.4146,8.4555,8.4815,8.4852,8.4815,8.4555,8.4109,8.4035,8.4295,8.4703,8.4815,8.4852,8.4889,8.5075,8.5335,8.5595,8.5632,8.5855,8.6301,8.6412,8.6747,8.723,8.7304,8.7304,8.7341,8.7564,8.7675,8.7712,8.7935,8.8084,8.8084,8.8084,8.7787,8.7341,8.7304,8.7304,8.7267,8.7116,8.6602,8.5853,8.5169,8.4809,8.4809,8.4455,8.4242,8.4205,8.3985,8.3544,8.3177,8.303,8.2627,8.1966,8.1819,8.1709,8.1452,8.1452,8.1452,8.1452,8.1452,8.0975,7.991,7.98,7.9874,7.9947,7.9874,7.98,7.98,7.98,8.0021,8.0461,8.0645,8.0828,8.1232,8.1599,8.1782,8.1893,8.2076,8.248,8.2884,8.303,8.3324,8.3911,8.4315,8.4425,8.4462,8.4462,8.4462,8.4756,8.4976,8.4903,8.4976,8.5233,8.5527,8.593,8.6077,8.593,8.6077,8.6151,8.593,8.5527,8.538,8.5306,8.318,8.318,8.318,8.3366,8.3626,8.3663,8.3812,8.4072,8.4072,8.4072,8.422,8.4629,8.4852,8.4926,8.5372,8.5595,8.5595,8.5595,8.5483,8.5223,8.4926,8.5149,8.5558,8.5595,8.5818,8.6004,8.6041,8.6226,8.6524,8.6561,8.6784,8.7192,8.7267,8.749,8.8047,8.8084,8.8084,8.8084,8.8084,8.8084,8.8084,8.8084,8.8084,8.8084,8.8084,8.8084,8.8084,8.8084,8.8084,8.8084,8.7858,8.747,8.6722,8.6185,8.5758,8.5721,8.5367,8.5049,8.5013,8.4719,8.4425,8.3948,8.3875,8.3654,8.3141,8.2884,8.2627,8.2663,8.2333,8.2186,8.215,8.2186,8.1672,8.0828,8.0755,8.0681,8.0681,8.0681,8.0718,8.0791,8.0755,8.0975,8.1305,8.1452,8.1636,8.2076,8.2186,8.2406,8.2517,8.2663,8.3141,8.3581,8.3838,8.4242,8.4866,8.5196,8.5416,8.5453,8.549,8.5563,8.571,8.5857,8.5857,8.593,8.6151,8.6224,8.6591,8.6701,8.6701,8.6995,8.7031,8.6701,8.6261,8.6261,8.6187,8.3254,8.3254,8.3329,8.3849,8.4406,8.4443,8.4815,8.5446,8.5483,8.5409,8.5483,8.5558,8.5669,8.5669,8.5892,8.6004,8.5781,8.5929,8.6301,8.6486,8.6189,8.5929,8.6004,8.6041,8.6338,8.6784,8.6858,8.7267,8.7787,8.7824,8.8084,8.7973,8.7973,8.8047,8.8084,8.8084,8.8084,8.8084,8.8158,8.8233,8.827,8.8344,8.8344,8.8381,8.8418,8.8418,8.8455,8.8493,8.8307,8.8121,8.7958,8.7757,8.7563,8.7365,8.7188,8.7114,8.636,8.593,8.571,8.5343,8.4866,8.4719,8.4682,8.4609,8.4352,8.3801,8.3471,8.3434,8.292,8.248,8.2517,8.2406,8.226,8.215,8.1893,8.1929,8.2113,8.2039,8.1893,8.1966,8.215,8.215,8.2113,8.215,8.2296,8.237,8.248,8.292,8.3251,8.3581,8.3875,8.4242,8.4646,8.5123,8.571,8.5894,8.6077,8.6151,8.6224,8.6261,8.6371,8.6481,8.6554,8.6701,8.6738,8.6921,8.6995,8.6995,8.7031,8.7031,8.7031,8.7031,8.6958,8.6811,8.6738,8.4072,8.4146,8.4703,8.5075,8.5261,8.5298,8.5372,8.5595,8.5632,8.5743,8.5743,8.6226,8.6486,8.6561,8.7118,8.7452,8.7341,8.7378,8.749,8.7675,8.7564,8.7415,8.7452,8.7415,8.749,8.7712,8.7675,8.7861,8.8084,8.8084,8.8121,8.8084,8.8158,8.8158,8.8084,8.8195,8.8084,8.8195,8.8753,8.8976,8.905,8.9533,8.9867,8.9867,8.9793,8.9793,8.983,8.9867,8.9236,8.8195,8.8084,8.8021,8.7969,8.7674,8.7542,8.7402,8.7016,8.6664,8.6628,8.6444,8.6077,8.5563,8.549,8.5196,8.4646,8.4425,8.4278,8.4242,8.4058,8.3911,8.3838,8.3434,8.292,8.2296,8.2333,8.2296,8.2186,8.2186,8.2186,8.2186,8.2223,8.226,8.2443,8.2737,8.3067,8.3177,8.3471,8.3911,8.4168,8.4315,8.4572,8.5123,8.5563,8.6004,8.6407,8.6591,8.6738,8.6775,8.6811,8.6738,8.6811,8.6811,8.6885,8.6958,8.6885,8.6995,8.6995,8.7031,8.7031,8.7031,8.7031,8.7031,8.7031,8.6921,8.6921,8.5089,8.4926,8.5409,8.5781,8.6078,8.6115,8.6301,8.6598,8.6635,8.6635,8.6747,8.7118,8.7341,8.7415,8.7861,8.8084,8.8084,8.8084,8.8084,8.8084,8.8047,8.8047,8.8047,8.8084,8.8084,8.8084,8.8121,8.8084,8.8084,8.8084,8.827,8.8567,8.8604,8.8753,8.9198,8.9087,8.9087,8.9198,8.957,8.9793,8.9867,9.0239,9.0424,9.0499,9.0499,9.0499,9.0462,9.0462,9.0016,8.931,8.9124,8.9087,8.8923,8.8396,8.8051,8.7881,8.7353,8.6995,8.7031,8.7031,8.6811,8.6407,8.6297,8.6077,8.5673,8.5343,8.5123,8.5086,8.4829,8.4646,8.4535,8.4168,8.3728,8.3398,8.3214,8.292,8.2333,8.2186,8.237,8.2553,8.27,8.2884,8.3104,8.3618,8.3838,8.3985,8.4205,8.4646,8.5013,8.5086,8.5306,8.5857,8.6187,8.6518,8.6664,8.6811,8.6885,8.6995,8.6995,8.7031,8.7031,8.7031,8.7031,8.7031,8.7031,8.7031,8.7031,8.7031,8.7031,8.7031,8.7031,8.7031,8.7031,8.7031,8.7031,8.6219,8.5743,8.5841,8.6287,8.6895,8.6994,8.739,8.7935,8.7935,8.7935,8.7973,8.8047,8.7973,8.8084,8.8047,8.8158,8.827,8.8344,8.8418,8.8493,8.8567,8.8567,8.8604,8.8455,8.8493,8.8567,8.8381,8.8493,8.8604,8.853,8.8753,8.9273,8.9421,8.9756,9.009,9.0313,9.0462,9.035,9.0499,9.061,9.0685,9.087,9.1056,9.1093,9.1056,9.1019,9.0982,9.0907,9.0833,9.0759,9.061,9.0286,9.0082,8.9329,8.8871,8.8625,8.7941,8.7435,8.7215,8.7252,8.7105,8.6958,8.6921,8.7031,8.6738,8.6224,8.593,8.593,8.527,8.5049,8.4829,8.4756,8.4572,8.4389,8.4462,8.3838,8.2884,8.2443,8.2737,8.3398,8.3544,8.3911,8.4315,8.4682,8.4719,8.4792,8.5049,8.5527,8.582,8.593,8.6187,8.6628,8.6848,8.6921,8.6995,8.6995,8.6995,8.7031,8.7031,8.7031,8.7031,8.7031,8.7031,8.7031,8.7031,8.7031,8.7031,8.7031,8.7031,8.7031,8.7031,8.7031,8.7031,8.7031,8.7031,8.7042,8.6622,8.7657,8.801,8.7873,8.8255,8.8271,8.8084,8.8084,8.8121,8.8121,8.8121,8.8158,8.8158,8.827,8.8418,8.8976,8.9087,8.9347,8.9979,8.9979,8.9979,8.983,8.9384,8.9421,8.9719,8.9942,8.9942,8.9904,8.9793,9.0053,9.0202,9.0239,9.035,9.0536,9.0722,9.0499,9.061,9.113,9.1428,9.1613,9.2022,9.2282,9.2319,9.2319,9.2393,9.2468,9.2468,9.2468,9.2171,9.1316,9.0685,9.0481,8.9995,8.975,8.9541,8.9117,8.8573,8.8096,8.7912,8.7655,8.7142,8.7142,8.7031,8.7031,8.6848,8.6738,8.6738,8.6554,8.6077,8.5637,8.5527,8.5306,8.4976,8.4756,8.4609,8.4205,8.4058,8.4058,8.4278,8.4352,8.4425,8.4646,8.5306,8.5453,8.56,8.5967,8.6444,8.6591,8.6628,8.6775,8.7031,8.7031,8.7031,8.7031,8.7031,8.7031,8.7031,8.7031,8.7031,8.7031,8.7031,8.7031,8.7031,8.7031,8.7031,8.7031,8.7031,8.7031,8.7031,8.7031,8.7031,8.7031,8.7031,8.7031,8.8607,8.8203,8.885,8.8859,8.8517,8.8673,8.8538,8.8146,8.8084,8.8307,8.8604,8.8678,8.8864,8.9198,8.9236,8.9496,8.9756,8.9867,9.0053,9.0424,9.0462,9.0685,9.1019,9.0647,9.0536,9.0573,9.0462,9.0499,9.0499,9.0573,9.0647,9.1056,9.1056,9.1353,9.1613,9.1613,9.1725,9.1762,9.2059,9.2319,9.2431,9.2728,9.2988,9.2988,9.2988,9.2988,9.2951,9.2951,9.2951,9.2765,9.2133,9.1585,9.1408,9.0883,9.06,9.032,8.9706,8.9307,8.8867,8.872,8.8426,8.7619,8.7582,8.7325,8.7142,8.7031,8.7031,8.7031,8.6958,8.6775,8.6407,8.6371,8.6077,8.5894,8.571,8.571,8.5637,8.5086,8.4792,8.5013,8.5159,8.5416,8.5747,8.604,8.6187,8.6334,8.6371,8.6811,8.6811,8.6848,8.6885,8.7031,8.7031,8.7031,8.7031,8.7031,8.7031,8.7031,8.7031,8.7031,8.7031,8.7031,8.7031,8.7031,8.7031,8.7031,8.7031,8.7031,8.7031,8.7031,8.7031,8.7031,8.7031,8.7031,8.7031,9.0105,8.9601,8.9697,8.9402,8.8969,8.9064,8.8935,8.8517,8.8481,8.8976,8.9384,8.9496,8.9793,9.0313,9.0387,9.0499,9.0685,9.0945,9.113,9.113,9.1167,9.1465,9.1799,9.1799,9.1539,9.0907,9.1056,9.1056,9.1056,9.0945,9.1428,9.1836,9.191,9.2171,9.2765,9.2951,9.2765,9.2765,9.2802,9.2876,9.2876,9.2951,9.2988,9.2988,9.2988,9.2988,9.2988,9.2988,9.2988,9.2988,9.2988,9.2922,9.2603,9.1993,9.1306,9.1131,9.0404,8.9895,8.9674,8.9564,8.9271,8.8463,8.839,8.7986,8.7472,8.7288,8.7178,8.7068,8.6995,8.6995,8.6995,8.6921,8.6921,8.6885,8.6958,8.7031,8.6775,8.5747,8.56,8.582,8.6004,8.6187,8.6481,8.6775,8.6921,8.7031,8.7031,8.7031,8.7031,8.7031,8.7031,8.7031,8.7031,8.7031,8.7031,8.7068,8.7068,8.7252,8.7215,8.7325,8.7399,8.7729,8.7802,8.7142,8.7031,8.7068,8.7068,8.7031,8.7031,8.7031,8.7031,8.7031,8.7031,8.7031,8.7031,9.0105,8.9649,9.0105,8.9969,8.9616,9.0209,9.0185,8.991,8.9932,9.0164,9.0276,9.0313,9.0387,9.0573,9.0536,9.087,9.1539,9.1985,9.2356,9.2393,9.2356,9.2542,9.2672,9.2616,9.2542,9.2653,9.2431,9.2356,9.2431,9.2616,9.2393,9.2691,9.2691,9.2876,9.2914,9.2988,9.2988,9.2988,9.2988,9.2988,9.2988,9.2988,9.2988,9.2988,9.2988,9.2988,9.2988,9.2988,9.2988,9.2988,9.2988,9.2988,9.2818,9.2431,9.2114,9.1971,9.1505,9.0922,9.0519,9.0408,9.0005,8.9454,8.9234,8.883,8.8243,8.7986,8.7729,8.7252,8.7105,8.7068,8.7031,8.7031,8.7031,8.7031,8.7031,8.7031,8.6921,8.6701,8.6407,8.6591,8.6701,8.6738,8.6921,8.7031,8.7031,8.7031,8.7031,8.7031,8.7031,8.7031,8.7031,8.7031,8.7031,8.7031,8.7031,8.7068,8.7142,8.7545,8.7692,8.8059,8.8243,8.8757,8.8647,8.7949,8.7472,8.7399,8.7325,8.7252,8.7178,8.7288,8.7178,8.7031,8.7031,8.7031,8.7031,9.0645,9.0482,9.1182,9.1173,9.086,9.1253,9.1227,9.0737,9.059,9.0722,9.1019,9.113,9.139,9.1688,9.1799,9.2059,9.2459,9.2728,9.2988,9.2988,9.2988,9.3211,9.3301,9.3146,9.3173,9.3237,9.3109,9.3054,9.2988,9.2951,9.2988,9.2988,9.2988,9.2988,9.2988,9.2988,9.2988,9.2988,9.2988,9.2988,9.2988,9.2988,9.2988,9.2988,9.2988,9.2988,9.2988,9.2988,9.2988,9.2988,9.2988,9.2988,9.2922,9.2751,9.2547,9.2479,9.2162,9.1801,9.147,9.1288,9.0849,9.0152,9.0041,8.9638,8.9087,8.8757,8.8426,8.7876,8.7619,8.7435,8.7068,8.7068,8.7031,8.7031,8.7031,8.7031,8.7031,8.7031,8.7031,8.7031,8.6958,8.6921,8.6958,8.7031,8.7031,8.7031,8.7031,8.7031,8.7031,8.7031,8.7031,8.7178,8.7252,8.7435,8.7509,8.7619,8.7692,8.7986,8.8353,8.872,8.8977,8.9381,8.9234,8.8683,8.8316,8.828,8.8096,8.8206,8.7912,8.7582,8.7399,8.7252,8.7105,8.7031,8.7105,9.1556,9.1748,9.2441,9.2488,9.2168,9.2413,9.2215,9.1715,9.1372,9.1609,9.203,9.2205,9.2566,9.3114,9.3289,9.3326,9.3301,9.3326,9.3389,9.3451,9.3451,9.3597,9.368,9.3657,9.3597,9.3856,9.3657,9.3173,9.2988,9.2988,9.2988,9.2988,9.2988,9.2988,9.2988,9.2988,9.2988,9.2988,9.2988,9.2988,9.2988,9.2988,9.2988,9.2988,9.2988,9.2988,9.2988,9.2988,9.2988,9.2988,9.2988,9.2988,9.2988,9.2855,9.2788,9.2684,9.2373,9.2162,9.2055,9.1912,9.1472,9.0958,9.0849,9.0408,8.9821,8.9417,8.9087,8.8573,8.8426,8.8096,8.7545,8.7288,8.7178,8.7031,8.7031,8.7031,8.7031,8.7031,8.7031,8.7031,8.7031,8.7031,8.7068,8.7031,8.7031,8.7031,8.7031,8.7031,8.7031,8.7031,8.7068,8.7325,8.7545,8.7876,8.8133,8.8426,8.8573,8.883,8.9234,8.9601,8.9748,8.9931,8.9748,8.9784,8.9895,8.9858,8.9528,8.905,8.8683,8.828,8.7802,8.7729,8.7949,8.7729,8.7545,9.2749,9.3403,9.348,9.352,9.3486,9.3774,9.3583,9.3123,9.322,9.3417,9.3417,9.3551,9.3784,9.4178,9.4325,9.4341,9.4341,9.4232,9.4178,9.4215,9.427,9.4325,9.45,9.4447,9.4341,9.4447,9.4341,9.3856,9.3301,9.3082,9.2988,9.2988,9.2988,9.2988,9.2988,9.2988,9.2988,9.2988,9.2988,9.2988,9.3025,9.3025,9.3062,9.3062,9.3136,9.3211,9.3285,9.3322,9.3248,9.3174,9.3099,9.3025,9.2988,9.2988,9.2988,9.2855,9.2616,9.2373,9.2303,9.2162,9.1983,9.1726,9.1619,9.1216,9.0629,8.9968,8.9601,8.9344,8.9271,8.8904,8.828,8.8059,8.7692,8.7435,8.7362,8.7288,8.7215,8.7362,8.7325,8.7142,8.7178,8.7142,8.7142,8.7068,8.7031,8.7031,8.7031,8.7031,8.7105,8.7178,8.7545,8.7912,8.8169,8.85,8.8904,8.9197,8.9491,8.9711,9.0078,9.0482,9.0555,9.0702,9.1143,9.1179,9.1253,9.0886,9.0188,8.9711,8.9381,8.9087,8.8757,8.8867,8.916,8.872,8.8096,9.3826,9.3749,9.4249,9.4403,9.4482,9.4739,9.4738,9.4496,9.4348,9.4232,9.4232,9.427,9.4394,9.4655,9.4604,9.4604,9.4604,9.4655,9.4604,9.4693,9.4693,9.4844,9.4904,9.4806,9.4706,9.5067,9.4706,9.416,9.3657,9.3488,9.3326,9.2988,9.2988,9.2988,9.3062,9.2988,9.2988,9.2988,9.2988,9.2988,9.3099,9.3434,9.3694,9.3694,9.4102,9.4251,9.4288,9.4362,9.4362,9.4362,9.4362,9.4362,9.4214,9.3991,9.3694,9.3657,9.3078,9.2721,9.2547,9.227,9.2162,9.202,9.1948,9.162,9.1253,9.0959,9.0445,9.0115,9.0078,8.9711,8.9124,8.8904,8.872,8.8426,8.8133,8.8169,8.8096,8.7766,8.7729,8.7509,8.7399,8.7509,8.7545,8.7435,8.7399,8.7325,8.7288,8.7252,8.7399,8.7545,8.8096,8.8793,8.9014,8.9197,8.9674,9.0115,9.0482,9.0702,9.0922,9.1253,9.1326,9.1546,9.173,9.1803,9.1583,9.1179,9.0665,9.0408,9.0115,8.9931,8.9711,8.9784,8.9784,8.9381,8.8793,9.4941,9.4403,9.5057,9.5326,9.5328,9.5514,9.5495,9.5325,9.4953,9.4806,9.4855,9.4953,9.5039,9.5039,9.5087,9.5134,9.5087,9.5039,9.5191,9.5267,9.5391,9.5769,9.6172,9.5998,9.5998,9.6231,9.6241,9.5729,9.5242,9.4839,9.4516,9.3091,9.2988,9.3136,9.3285,9.3397,9.3471,9.3805,9.3768,9.3768,9.3805,9.4214,9.4437,9.466,9.5031,9.5403,9.5403,9.5328,9.5328,9.5291,9.5254,9.518,9.5105,9.4734,9.4511,9.4437,9.3998,9.359,9.3128,9.2663,9.227,9.2091,9.1948,9.1767,9.173,9.1767,9.1657,9.0922,9.0922,9.0482,8.9931,8.9711,8.9454,8.9344,8.9197,8.9344,8.9344,8.883,8.85,8.8426,8.8316,8.8243,8.8206,8.7949,8.7802,8.7692,8.7619,8.7582,8.7839,8.8206,8.8793,8.9564,8.9748,9.0005,9.0555,9.0996,9.1363,9.1473,9.1693,9.1767,9.1693,9.1693,9.1767,9.1803,9.1803,9.162,9.1216,9.1033,9.0886,9.0776,9.0629,9.0372,9.0188,8.9858,8.9454,9.6172,9.6134,9.6172,9.6172,9.6172,9.6212,9.5902,9.5495,9.5407,9.5363,9.5407,9.59,9.6135,9.6213,9.6249,9.6289,9.6174,9.6213,9.6596,9.7018,9.7366,9.7557,9.7864,9.8017,9.821,9.825,9.7859,9.7686,9.7616,9.6952,9.5533,9.3498,9.3658,9.3686,9.3879,9.414,9.44,9.4734,9.4883,9.4957,9.4994,9.5217,9.5291,9.5328,9.5403,9.544,9.544,9.5626,9.5737,9.5737,9.5774,9.5774,9.5811,9.5477,9.5328,9.5254,9.5031,9.4585,9.4042,9.3239,9.2621,9.234,9.202,9.1803,9.1803,9.1803,9.1693,9.162,9.1473,9.1216,9.0776,9.0482,9.0262,9.0115,9.0041,9.0005,8.9931,8.9638,8.9344,8.9307,8.9197,8.9014,8.916,8.8977,8.8647,8.8573,8.8573,8.8536,8.8904,8.9271,8.9748,9.0262,9.0445,9.0812,9.1436,9.1693,9.1657,9.162,9.173,9.1803,9.1767,9.1803,9.1803,9.1803,9.1803,9.1803,9.1767,9.151,9.14,9.162,9.151,9.1106,9.0886,9.0739,9.0188,9.6288,9.6288,9.6288,9.6288,9.6288,9.6288,9.6174,9.5981,9.5942,9.5981,9.6019,9.6674,9.7057,9.7173,9.7673,9.7827,9.7827,9.7827,9.8057,9.8173,9.8365,9.8519,9.8788,9.8865,9.875,9.8865,9.8827,9.8516,9.7974,9.8249,9.7273,9.5838,9.5217,9.4942,9.5045,9.4994,9.5217,9.5328,9.544,9.544,9.5514,9.596,9.6146,9.6146,9.6777,9.6889,9.6963,9.6963,9.6926,9.6889,9.6852,9.6777,9.6666,9.6369,9.6183,9.6071,9.5811,9.5365,9.492,9.3937,9.3102,9.2307,9.1948,9.1803,9.1803,9.1803,9.1803,9.1767,9.1803,9.1546,9.1436,9.1326,9.1216,9.0959,9.0812,9.0702,9.0555,9.0298,9.0152,9.0152,8.9821,8.9528,8.9821,9.0115,8.9748,8.9454,8.9491,8.9601,8.9931,9.0188,9.0555,9.0849,9.1033,9.1179,9.1693,9.1803,9.1803,9.1803,9.1803,9.1803,9.1803,9.1803,9.1803,9.1803,9.1803,9.1803,9.1803,9.1803,9.1803,9.1767,9.1767,9.1693,9.1583,9.1473,9.0922,9.6288,9.6288,9.6288,9.6288,9.6288,9.6288,9.6288,9.6326,9.6557,9.6865,9.7057,9.7673,9.7904,9.8096,9.8404,9.8711,9.8634,9.8673,9.8904,9.9096,9.9173,9.9327,9.9481,9.9635,9.9788,9.9558,9.9558,9.9399,9.9232,9.8993,9.8639,9.8212,9.7718,9.7153,9.6201,9.6102,9.6176,9.634,9.6176,9.6146,9.6294,9.6703,9.7,9.7037,9.7483,9.7669,9.7669,9.7669,9.7706,9.7706,9.7743,9.7817,9.7669,9.7409,9.7074,9.6814,9.6517,9.6034,9.552,9.453,9.3546,9.2786,9.2094,9.1913,9.1803,9.1803,9.1803,9.1803,9.1803,9.1803,9.1803,9.1693,9.1657,9.14,9.14,9.1363,9.1326,9.1143,9.1033,9.0922,9.0629,9.0482,9.0592,9.0922,9.0776,9.0519,9.0592,9.0665,9.0812,9.1033,9.1143,9.14,9.1583,9.1693,9.1803,9.1803,9.1803,9.1803,9.1803,9.1803,9.1803,9.1803,9.1803,9.1803,9.1803,9.1803,9.1803,9.1803,9.1803,9.1803,9.1803,9.1803,9.1767,9.162,9.151,9.6288,9.6288,9.6326,9.6365,9.6442,9.6326,9.6403,9.6673,9.7211,9.7865,9.8442,9.8711,9.8788,9.8827,9.9058,9.9211,9.9211,9.9135,9.9365,9.9942,10.0058,10.0481,10.0789,10.0943,10.0712,10.1135,10.0943,10.075,10.0902,10.067,10.0459,10.0237,9.964,9.9031,9.7651,9.7674,9.8076,9.8391,9.7935,9.7626,9.7557,9.7632,9.7669,9.7706,9.778,9.7892,9.7892,9.7892,9.7892,9.7892,9.7892,9.7892,9.7817,9.7817,9.7706,9.7669,9.7706,9.7297,9.6591,9.4864,9.4059,9.3517,9.2863,9.2278,9.1986,9.184,9.1803,9.1803,9.1803,9.1803,9.1803,9.1803,9.1803,9.1803,9.1803,9.1767,9.1693,9.1657,9.1473,9.14,9.1583,9.1693,9.1693,9.1693,9.1657,9.162,9.173,9.173,9.162,9.1583,9.1583,9.1657,9.1803,9.1803,9.1803,9.1803,9.1803,9.1803,9.1803,9.1803,9.1803,9.1803,9.1803,9.1803,9.1803,9.1803,9.1803,9.1803,9.1803,9.1803,9.1803,9.1803,9.1803,9.1767,9.1657,9.6596,9.7096,9.7096,9.7442,9.7827,9.7326,9.7403,9.7942,9.825,9.8519,9.8904,9.9327,9.9635,9.9788,10.0173,10.0327,10.0366,10.0481,10.0789,10.0789,10.0827,10.1019,10.125,10.1289,10.1289,10.1289,10.1289,10.1289,10.1173,10.1289,10.125,10.1008,10.0627,9.9923,9.9046,9.8703,9.8592,9.8592,9.815,9.7892,9.7892,9.7892,9.7892,9.7892,9.7892,9.7892,9.7892,9.7892,9.7892,9.7892,9.7892,9.7892,9.7892,9.7892,9.7892,9.7892,9.7892,9.778,9.726,9.6337,9.5415,9.4615,9.3632,9.2975,9.2866,9.2133,9.1877,9.1803,9.1803,9.1803,9.1803,9.1803,9.1803,9.1803,9.1803,9.1803,9.1767,9.1767,9.1693,9.1657,9.1767,9.1803,9.1803,9.1803,9.1803,9.1803,9.1803,9.1803,9.173,9.173,9.173,9.173,9.1803,9.1803,9.1803,9.1803,9.1803,9.1803,9.1803,9.1803,9.1803,9.1803,9.1803,9.1803,9.1803,9.1803,9.1803,9.1803,9.1803,9.1803,9.1803,9.1803,9.1803,9.1803,9.1767,9.7211,9.7942,9.7942,9.8442,9.9019,9.8327,9.8442,9.9135,9.925,9.9404,9.9788,10.0289,10.0519,10.0673,10.1019,10.1289,10.1289,10.1289,10.1289,10.1289,10.1289,10.1289,10.1289,10.1289,10.1289,10.1289,10.1289,10.1289,10.1289,10.1289,10.125,10.117,10.0966,10.0633,10.0037,9.9569,9.9041,9.8922,9.8567,9.8091,9.7992,9.7892,9.7892,9.7892,9.7892,9.7892,9.7892,9.7892,9.7892,9.7892,9.7892,9.7892,9.7892,9.7892,9.7892,9.7892,9.7892,9.7892,9.7632,9.7446,9.6634,9.6162,9.4807,9.3931,9.3638,9.2941,9.2427,9.2244,9.2024,9.1877,9.184,9.184,9.1803,9.1803,9.1803,9.1803,9.1803,9.1803,9.1803,9.1803,9.1803,9.1803,9.1803,9.1803,9.1803,9.1803,9.1803,9.1803,9.1803,9.1803,9.1803,9.1803,9.1803,9.1803,9.1803,9.1803,9.1803,9.1803,9.1803,9.1803,9.1803,9.1803,9.1803,9.1803,9.1803,9.1803,9.1803,9.1803,9.1803,9.1803,9.1803,9.1803,9.1803,9.1803,9.1803,9.8057,9.8788,9.8827,9.9327,9.9904,9.9288,9.9404,10.0135,10.0096,10.0519,10.1212,10.1135,10.1173,10.1212,10.1289,10.1289,10.1289,10.1289,10.1289,10.1289,10.1289,10.1289,10.1289,10.1289,10.1289,10.1289,10.1289,10.1289,10.1289,10.1289,10.1289,10.1289,10.121,10.105,10.0716,10.0271,9.9729,9.9514,9.9041,9.8567,9.8188,9.8061,9.8061,9.8061,9.803,9.8061,9.8061,9.8061,9.7992,9.7961,9.7961,9.7892,9.7892,9.7892,9.7892,9.7892,9.7892,9.7892,9.7892,9.7743,9.7743,9.7191,9.6021,9.5108,9.4484,9.375,9.3272,9.2868,9.2574,9.2207,9.195,9.1877,9.1803,9.1803,9.1803,9.1803,9.1803,9.1803,9.1803,9.1803,9.1803,9.1803,9.1803,9.1803,9.1803,9.1803,9.1803,9.1803,9.1803,9.1803,9.1803,9.1803,9.1803,9.1803,9.1803,9.1803,9.1803,9.1803,9.1803,9.1803,9.1803,9.1803,9.1803,9.1803,9.1803,9.1803,9.1803,9.1803,9.1803,9.1803,9.1803,9.1803,9.1803,9.1803,9.1803,9.8942,9.9712,9.9712,10.0212,10.0866,10.0673,10.075,10.0943,10.0943,10.1135,10.1289,10.1289,10.1289,10.1289,10.1289,10.1289,10.1289,10.1289,10.1289,10.1289,10.1289,10.1289,10.1289,10.1289,10.1289,10.1289,10.1289,10.1289,10.1289,10.1289,10.1289,10.1289,10.1289,10.1289,10.121,10.0928,10.0581,10.0163,9.9661,9.9041,9.8592,9.844,9.844,9.8477,9.8225,9.8385,9.8754,9.8254,9.8225,9.8348,9.8023,9.7961,9.7892,9.7892,9.7892,9.7892,9.7892,9.7892,9.7892,9.7892,9.7892,9.7892,9.7088,9.6468,9.5698,9.4816,9.4154,9.375,9.3235,9.2831,9.2574,9.2464,9.2317,9.2244,9.217,9.2024,9.1987,9.184,9.184,9.1803,9.1803,9.1803,9.1803,9.1803,9.1803,9.1803,9.1803,9.1803,9.1803,9.1803,9.1803,9.1803,9.1803,9.1803,9.1803,9.1803,9.1803,9.1803,9.1803,9.1803,9.1803,9.1803,9.1803,9.1803,9.1803,9.1803,9.1803,9.1803,9.1803,9.1803,9.1803,9.1803,9.1803,9.1803,9.1803,9.9827,10.0519,10.0596,10.0866,10.125,10.1289,10.1289,10.1289,10.1289,10.1289,10.1289,10.1289,10.1289,10.1289,10.1289,10.1289,10.1289,10.1289,10.1289,10.1289,10.1212,10.1289,10.1289,10.125,10.1289,10.1289,10.1289,10.1289,10.1289,10.1289,10.1289,10.1289,10.1289,10.1289,10.125,10.121,10.1129,10.0716,10.0261,9.9661,9.9292,9.9041,9.9041,9.8982,9.863,9.9079,9.9442,9.8754,9.8717,9.8717,9.8282,9.8091,9.7992,9.7892,9.7892,9.7892,9.7892,9.7892,9.7892,9.7892,9.7892,9.7892,9.7822,9.7385,9.6581,9.5736,9.5184,9.4705,9.4042,9.3529,9.3345,9.3161,9.3015,9.2868,9.2611,9.2354,9.217,9.1987,9.1877,9.1803,9.1803,9.1803,9.1803,9.1803,9.1803,9.1803,9.1803,9.1803,9.1803,9.1803,9.1803,9.1803,9.1803,9.1803,9.1803,9.1803,9.1803,9.1803,9.1803,9.1803,9.1803,9.1803,9.1803,9.1803,9.1803,9.1803,9.1803,9.1803,9.1803,9.1803,9.1803,9.1803,9.1803,9.1803,9.1803,10.0635,10.125,10.1289,10.1212,10.1212,10.1173,10.1096,10.1135,10.0943,10.1135,10.1135,10.1173,10.1019,10.075,10.0712,10.075,10.0712,10.0712,10.0673,10.1058,10.075,10.0712,10.075,10.1058,10.0789,10.1019,10.1173,10.1058,10.125,10.1289,10.1289,10.1289,10.1289,10.1289,10.1289,10.1289,10.121,10.1091,10.0754,10.0261,9.9872,9.9661,9.9661,9.9661,9.9607,9.9623,9.9676,9.9569,9.9386,9.9041,9.8655,9.8413,9.8061,9.7892,9.7892,9.7892,9.7892,9.7892,9.7892,9.7892,9.7892,9.7892,9.7892,9.7678,9.7058,9.6546,9.5958,9.5588,9.4962,9.4483,9.4263,9.3896,9.3675,9.3565,9.3382,9.3198,9.3088,9.2905,9.2721,9.2684,9.2684,9.2574,9.2207,9.2281,9.206,9.195,9.1803,9.1803,9.1877,9.1877,9.1913,9.1913,9.1803,9.1803,9.1803,9.1803,9.1803,9.1803,9.1877,9.1803,9.1803,9.1803,9.1803,9.1803,9.1803,9.1803,9.1803,9.1803,9.1803,9.1803,9.1803,9.1803,9.1803,9.1803,9.1803,10.1135,10.1289,10.1289,10.0981,10.0404,10.0366,9.9981,9.9404,9.9404,9.9788,10.0289,10.0327,10.0019,9.9635,9.9596,9.9635,9.9558,9.975,9.9481,9.9558,9.9596,9.9788,9.9519,9.9712,9.9865,10.025,10.0481,10.0712,10.1096,10.1212,10.1289,10.1289,10.1289,10.1289,10.1289,10.1289,10.1289,10.125,10.1091,10.0798,10.0357,10.0261,10.0261,10.0163,10.0025,10.0174,10.0223,10.0025,10.0025,9.9872,9.91,9.8504,9.7961,9.7961,9.7892,9.7892,9.7892,9.7892,9.7892,9.7892,9.7892,9.7892,9.7892,9.7752,9.7499,9.7136,9.6732,9.64,9.5992,9.555,9.5107,9.474,9.4446,9.4336,9.4153,9.4079,9.4006,9.3786,9.3602,9.3602,9.3602,9.3308,9.2905,9.2648,9.2354,9.2134,9.1877,9.184,9.1987,9.206,9.2244,9.217,9.184,9.1803,9.1877,9.2024,9.217,9.217,9.2207,9.206,9.1877,9.195,9.2097,9.1877,9.1803,9.1803,9.1803,9.1803,9.1803,9.1803,9.1803,9.1803,9.1803,9.1803,9.1803,10.075,10.0712,10.0327,9.9942,9.9558,9.9519,9.9211,9.8865,9.8788,9.8827,9.9019,9.9288,9.9211,9.8788,9.8788,9.8711,9.8711,9.8827,9.8942,9.8865,9.8711,9.8865,9.8788,9.8788,9.9096,9.9481,9.9981,10.0404,10.0866,10.1212,10.1289,10.1289,10.1289,10.1289,10.1289,10.1289,10.1289,10.1289,10.1289,10.1091,10.0842,10.0842,10.0842,10.0672,10.0716,10.0842,10.0798,10.0627,10.0536,10.0309,9.9552,9.8922,9.8477,9.832,9.8158,9.7992,9.7892,9.7892,9.7892,9.7892,9.7892,9.7892,9.7892,9.7822,9.7715,9.7391,9.7174,9.6769,9.6431,9.6061,9.6025,9.5731,9.5658,9.5584,9.5107,9.474,9.441,9.4079,9.4006,9.4006,9.4006,9.3932,9.3639,9.3602,9.3382,9.3345,9.2978,9.2794,9.2794,9.2574,9.2648,9.2611,9.2354,9.2317,9.2501,9.2648,9.2758,9.2721,9.2684,9.2721,9.2684,9.2501,9.2354,9.2207,9.1987,9.1803,9.1803,9.184,9.1803,9.1803,9.1803,9.1803,9.1803,9.1803,9.1803,9.9904,9.9827,9.9135,9.875,9.8634,9.8634,9.8519,9.8404,9.8442,9.8134,9.7788,9.8365,9.8557,9.8481,9.8481,9.8481,9.8365,9.8057,9.825,9.8519,9.8519,9.8634,9.8711,9.8788,9.9019,9.9442,10.0019,10.025,10.0558,10.0981,10.1289,10.1289,10.1289,10.1289,10.1289,10.1289,10.1289,10.1289,10.1289,10.1289,10.125,10.1289,10.125,10.125,10.1289,10.1289,10.1289,10.121,10.1008,10.0627,10.0063,9.933,9.8839,9.8567,9.8254,9.8061,9.7892,9.7892,9.7892,9.7892,9.7892,9.7892,9.7892,9.7892,9.7822,9.7644,9.7358,9.7211,9.6877,9.6725,9.6688,9.6612,9.6575,9.6502,9.5878,9.5437,9.5034,9.4666,9.4666,9.4666,9.4666,9.463,9.4483,9.4446,9.441,9.441,9.4336,9.4299,9.4153,9.3712,9.3529,9.3382,9.3125,9.3125,9.3235,9.3308,9.3418,9.3529,9.3529,9.3565,9.3492,9.3308,9.3015,9.2574,9.2354,9.2244,9.2024,9.1987,9.1913,9.1877,9.1803,9.1803,9.1803,9.1803,9.1803,9.9058,9.9019,9.8865,9.8404,9.7827,9.775,9.7403,9.6826,9.6865,9.698,9.7557,9.7557,9.7442,9.6826,9.6788,9.7019,9.7596,9.7365,9.7442,9.7634,9.8057,9.8365,9.8634,9.8827,9.925,9.975,10.0327,10.0904,10.0673,10.1019,10.1289,10.1289,10.1289,10.1289,10.1289,10.1289,10.1289,10.1289,10.1289,10.1289,10.1289,10.1289,10.1289,10.1289,10.1289,10.1289,10.1289,10.1289,10.125,10.1008,10.0581,9.982,9.9273,9.8862,9.8567,9.8225,9.8061,9.7961,9.7961,9.7892,9.7892,9.7892,9.7892,9.7892,9.7822,9.7752,9.7502,9.7502,9.7211,9.6989,9.6877,9.6725,9.6725,9.6649,9.6282,9.6282,9.6061,9.5988,9.5988,9.5988,9.5988,9.5694,9.529,9.518,9.4997,9.4923,9.4666,9.4666,9.474,9.4556,9.4446,9.4263,9.4042,9.3969,9.4042,9.4079,9.4153,9.4299,9.4373,9.4373,9.4299,9.4153,9.3786,9.3308,9.3051,9.2941,9.2684,9.2427,9.2097,9.2024,9.1877,9.1803,9.1803,9.1803,9.1803]},{"header":{"parameterUnit":"m.s-1","parameterCategory":1,"la1":31.0,"la2":29.5877,"lo1":-88.7671,"lo2":-86.6584,"dx":0.0162,"dy":0.0185,"nx":115,"ny":88,"refTime":"2023-02-12T06:00:00:Z","depth":0,"parameterNumber":3,"parameterNumberName":"V-component_of_WINDS"},"data":[0.0,0.0,0.0,0.0,0.0,0.0,0.0,0.0,0.0,0.0,0.0,0.0,0.0,0.0,0.0,0.0,0.0,0.0,0.0,0.0,0.0,0.0,0.0,0.0,0.0,0.0,0.0,0.0,0.0,0.0,0.0,0.0,0.0,0.0,0.0,0.0,0.0,0.0,0.0,0.0,0.0,0.0,0.0,0.0,0.0,0.0,0.0,0.0,0.0,0.0,0.0,0.0,0.0,0.0,0.0,0.0,0.0,0.0,0.0,0.0,0.0,0.0,0.0,0.0,0.0,0.0,0.0,0.0,0.0,0.0,0.0,0.0,0.0,0.0,0.0,0.0,0.0,0.0,0.0,0.0,0.0,0.0,0.0,0.0,0.0,0.0,0.0,0.0,0.0,0.0,0.0,0.0,0.0,0.0,0.0,0.0,0.0,0.0,0.0,0.0,0.0,0.0,0.0,0.0,0.0,0.0,0.0,0.0,0.0,0.0,0.0,0.0,0.0,0.0,0.0,0.0,0.0,0.0,0.0,0.0,0.0,0.0,0.0,0.0,0.0,0.0,0.0,0.0,0.0,0.0,0.0,0.0,0.0,0.0,0.0,0.0,0.0,0.0,0.0,0.0,0.0,0.0,0.0,0.0,0.0,0.0,0.0,0.0,0.0,0.0,0.0,0.0,0.0,0.0,0.0,0.0,0.0,0.0,0.0,0.0,0.0,0.0,0.0,0.0,0.0,0.0,0.0,0.0,0.0,0.0,0.0,0.0,0.0,0.0,0.0,0.0,0.0,0.0,0.0,0.0,0.0,0.0,0.0,0.0,0.0,0.0,0.0,0.0,0.0,0.0,0.0,0.0,0.0,0.0,0.0,0.0,0.0,0.0,0.0,0.0,0.0,0.0,0.0,0.0,0.0,0.0,0.0,0.0,0.0,0.0,0.0,0.0,0.0,0.0,0.0,0.0,0.0,0.0,0.0,0.0,0.0,0.0,0.0,0.0,0.0,0.0,0.0,0.0,0.0,0.0,0.0,0.0,0.0,0.0,0.0,0.0,0.0,0.0,0.0,0.0,0.0,0.0,0.0,0.0,0.0,0.0,0.0,0.0,0.0,0.0,0.0,0.0,0.0,0.0,0.0,0.0,0.0,0.0,0.0,0.0,0.0,0.0,0.0,0.0,0.0,0.0,0.0,0.0,0.0,0.0,0.0,0.0,0.0,0.0,0.0,0.0,0.0,0.0,0.0,0.0,0.0,0.0,0.0,0.0,0.0,0.0,0.0,0.0,0.0,0.0,0.0,0.0,0.0,0.0,0.0,0.0,0.0,0.0,0.0,0.0,0.0,0.0,0.0,0.0,0.0,0.0,0.0,0.0,0.0,0.0,0.0,0.0,0.0,0.0,0.0,0.0,0.0,0.0,0.0,0.0,0.0,0.0,0.0,0.0,0.0,0.0,0.0,0.0,0.0,0.0,0.0,0.0,0.0,0.0,0.0,0.0,0.0,0.0,0.0,0.0,0.0,0.0,0.0,0.0,0.0,0.0,0.0,0.0,0.0,0.0,0.0,0.0,0.0,0.0,0.0,0.0,0.0,0.0,0.0,0.0,0.0,0.0,0.0,0.0,0.0,0.0,0.0,0.0,0.0,0.0,0.0,0.0,0.0,0.0,0.0,0.0,0.0,0.0,0.0,0.0,0.0,0.0,0.0,0.0,0.0,0.0,0.0,0.0,0.0,0.0,0.0,0.0,0.0,0.0,0.0,0.0,0.0,0.0,0.0,0.0,0.0,0.0,0.0,0.0,0.0,0.0,0.0,0.0,0.0,0.0,0.0,0.0,0.0,0.0,0.0,0.0,0.0,0.0,0.0,0.0,0.0,0.0,0.0,0.0,0.0,0.0,0.0,0.0,0.0,0.0,0.0,0.0,0.0,0.0,0.0,0.0,0.0,0.0,0.0,0.0,0.0,0.0,0.0,0.0,0.0,0.0,0.0,0.0,0.0,0.0,0.0,0.0,0.0,0.0,0.0,0.0,0.0,0.0,0.0,0.0,0.0,0.0,0.0,0.0,0.0,0.0,0.0,0.0,0.0,0.0,0.0,0.0,0.0,0.0,0.0,0.0,0.0,0.0,0.0,0.0,0.0,0.0,0.0,0.0,0.0,0.0,0.0,0.0,0.0,0.0,0.0,0.0,0.0,0.0,0.0,0.0,0.0,0.0,0.0,0.0,0.0,0.0,0.0,0.0,0.0,0.0,0.0,0.0,0.0,0.0,0.0,0.0,0.0,0.0,0.0,0.0,0.0,0.0,0.0,0.0,0.0,0.0,0.0,0.0,0.0,0.0,0.0,0.0,0.0,0.0,0.0,0.0,0.0,0.0,0.0,0.0,0.0,0.0,0.0,0.0,0.0,0.0,0.0,0.0,0.0,0.0,0.0,0.0,0.0,0.0,0.0,0.0,0.0,0.0,0.0,0.0,0.0,0.0,0.0,0.0,0.0,0.0,0.0,0.0,0.0,0.0,0.0,0.0,0.0,0.0,0.0,0.0,0.0,0.0,0.0,0.0,0.0,0.0,0.0,0.0,0.0,0.0,0.0,0.0,0.0,0.0,0.0,0.0,0.0,0.0,0.0,0.0,0.0,0.0,0.0,0.0,0.0,0.0,0.0,0.0,0.0,0.0,0.0,0.0,0.0,0.0,0.0,0.0,0.0,0.0,0.0,0.0,0.0,0.0,0.0,0.0,0.0,0.0,0.0,0.0,0.0,0.0,0.0,0.0,0.0,0.0,0.0,0.0,0.0,0.0,0.0,0.0,0.0,0.0,0.0,0.0,0.0,0.0,0.0,0.0,0.0,0.0,0.0,0.0,0.0,0.0,0.0,0.0,0.0,0.0,0.0,0.0,0.0,0.0,0.0,0.0,0.0,0.0,0.0,0.0,0.0,0.0,0.0,0.0,0.0,0.0,0.0,0.0,0.0,0.0,0.0,0.0,0.0,0.0,0.0,0.0,0.0,0.0,0.0,0.0,0.0,0.0,0.0,0.0,0.0,0.0,0.0,0.0,0.0,0.0,0.0,0.0,0.0,0.0,0.0,0.0,0.0,0.0,0.0,0.0,0.0,0.0,0.0,0.0,0.0,0.0,0.0,0.0,0.0,0.0,0.0,0.0,0.0,0.0,0.0,0.0,0.0,0.0,0.0,0.0,0.0,0.0,0.0,0.0,0.0,0.0,0.0,0.0,0.0,0.0,0.0,0.0,0.0,0.0,0.0,0.0,0.0,0.0,0.0,0.0,0.0,0.0,0.0,0.0,0.0,0.0,0.0,0.0,0.0,0.0,0.0,0.0,0.0,0.0,0.0,0.0,0.0,0.0,0.0,0.0,0.0,0.0,0.0,0.0,0.0,0.0,0.0,0.0,0.0,0.0,0.0,0.0,0.0,0.0,0.0,0.0,0.0,0.0,0.0,0.0,0.0,0.0,0.0,0.0,0.0,0.0,0.0,0.0,0.0,0.0,0.0,0.0,0.0,0.0,0.0,0.0,0.0,0.0,0.0,0.0,0.0,0.0,0.0,0.0,0.0,0.0,0.0,0.0,0.0,0.0,0.0,0.0,0.0,0.0,0.0,0.0,0.0,0.0,0.0,0.0,0.0,0.0,0.0,0.0,0.0,0.0,0.0,0.0,0.0,0.0,0.0,0.0,0.0,0.0,0.0,0.0,0.0,0.0,0.0,0.0,0.0,0.0,0.0,0.0,0.0,0.0,0.0,0.0,0.0,0.0,0.0,0.0,0.0,0.0,0.0,0.0,0.0,0.0,0.0,0.0,0.0,0.0,0.0,0.0,0.0,0.0,0.0,0.0,0.0,0.0,0.0,0.0,0.0,0.0,0.0,0.0,0.0,0.0,0.0,0.0,0.0,0.0,0.0,0.0,0.0,0.0,0.0,0.0,0.0,0.0,0.0,0.0,0.0,0.0,0.0,0.0,0.0,0.0,0.0,0.0,0.0,0.0,0.0,0.0,0.0,0.0,0.0,0.0,0.0,0.0,0.0,0.0,0.0,0.0,0.0,0.0,0.0,0.0,0.0,0.0,0.0,0.0,0.0,0.0,0.0,0.0,0.0,0.0,0.0,0.0,0.0,0.0,0.0,0.0,0.0,0.0,0.0,0.0,0.0,0.0,0.0,0.0,0.0,0.0,0.0,0.0,0.0,0.0,0.0,0.0,0.0,0.0,0.0,0.0,0.0,0.0,0.0,0.0,0.0,0.0,0.0,0.0,0.0,0.0,0.0,0.0,-2.2873,0.0,0.0,0.0,0.0,0.0,0.0,0.0,0.0,0.0,0.0,0.0,0.0,0.0,0.0,0.0,0.0,0.0,0.0,0.0,0.0,0.0,0.0,0.0,0.0,0.0,0.0,0.0,0.0,0.0,0.0,0.0,0.0,0.0,0.0,0.0,0.0,0.0,0.0,0.0,0.0,0.0,0.0,0.0,0.0,0.0,0.0,0.0,0.0,0.0,0.0,0.0,0.0,0.0,0.0,0.0,0.0,0.0,0.0,0.0,0.0,0.0,0.0,0.0,0.0,0.0,0.0,0.0,0.0,0.0,0.0,0.0,0.0,0.0,0.0,0.0,0.0,0.0,0.0,0.0,0.0,0.0,0.0,0.0,0.0,0.0,0.0,0.0,0.0,0.0,0.0,0.0,0.0,0.0,0.0,0.0,0.0,0.0,0.0,0.0,0.0,0.0,0.0,0.0,0.0,0.0,0.0,0.0,0.0,0.0,0.0,-2.3514,-2.3367,-2.3661,-2.3674,-2.338,0.0,0.0,0.0,0.0,0.0,0.0,0.0,0.0,0.0,0.0,0.0,0.0,0.0,0.0,0.0,0.0,0.0,0.0,0.0,0.0,0.0,0.0,0.0,0.0,0.0,0.0,0.0,0.0,0.0,0.0,0.0,0.0,0.0,0.0,0.0,0.0,0.0,0.0,0.0,0.0,0.0,0.0,0.0,0.0,0.0,0.0,0.0,0.0,0.0,0.0,0.0,0.0,0.0,0.0,0.0,0.0,0.0,0.0,0.0,0.0,0.0,0.0,0.0,0.0,0.0,0.0,0.0,0.0,0.0,0.0,0.0,0.0,0.0,0.0,0.0,0.0,0.0,0.0,0.0,0.0,0.0,0.0,0.0,0.0,0.0,0.0,0.0,0.0,0.0,0.0,0.0,0.0,0.0,0.0,0.0,0.0,0.0,0.0,0.0,0.0,0.0,0.0,0.0,0.0,0.0,0.0,0.0,0.0,0.0,0.0,0.0,0.0,-2.4209,-2.4235,-2.3794,0.0,0.0,0.0,0.0,0.0,0.0,0.0,0.0,0.0,0.0,0.0,0.0,0.0,0.0,0.0,0.0,0.0,0.0,0.0,0.0,0.0,0.0,0.0,0.0,0.0,0.0,0.0,0.0,0.0,0.0,0.0,0.0,0.0,0.0,0.0,0.0,0.0,0.0,0.0,0.0,0.0,0.0,0.0,0.0,0.0,0.0,0.0,0.0,0.0,0.0,0.0,0.0,0.0,0.0,0.0,0.0,0.0,0.0,0.0,0.0,0.0,0.0,0.0,0.0,0.0,0.0,0.0,0.0,0.0,0.0,0.0,0.0,0.0,0.0,0.0,0.0,0.0,0.0,0.0,0.0,0.0,0.0,0.0,0.0,0.0,0.0,0.0,0.0,0.0,0.0,0.0,0.0,0.0,0.0,0.0,0.0,0.0,0.0,0.0,0.0,0.0,0.0,0.0,0.0,0.0,0.0,0.0,0.0,0.0,0.0,-2.3794,-2.3781,-2.3834,0.0,-2.3781,0.0,0.0,0.0,0.0,0.0,0.0,0.0,0.0,0.0,0.0,0.0,0.0,0.0,0.0,0.0,0.0,0.0,0.0,0.0,0.0,0.0,0.0,0.0,0.0,0.0,0.0,0.0,0.0,0.0,0.0,0.0,0.0,0.0,0.0,0.0,0.0,0.0,0.0,0.0,0.0,0.0,0.0,0.0,0.0,0.0,0.0,0.0,0.0,0.0,0.0,0.0,0.0,0.0,0.0,0.0,0.0,0.0,0.0,0.0,0.0,0.0,0.0,0.0,0.0,0.0,0.0,0.0,0.0,0.0,0.0,0.0,0.0,0.0,0.0,0.0,0.0,0.0,0.0,0.0,0.0,0.0,0.0,0.0,0.0,0.0,0.0,0.0,0.0,0.0,0.0,0.0,0.0,0.0,0.0,0.0,0.0,0.0,0.0,0.0,0.0,0.0,0.0,0.0,0.0,0.0,0.0,0.0,0.0,0.0,0.0,-2.4289,-2.4289,-2.4275,-2.4289,0.0,0.0,0.0,0.0,0.0,0.0,0.0,0.0,0.0,0.0,0.0,0.0,0.0,0.0,0.0,0.0,0.0,0.0,0.0,0.0,0.0,0.0,0.0,0.0,0.0,0.0,0.0,0.0,0.0,0.0,0.0,0.0,0.0,0.0,0.0,0.0,0.0,0.0,0.0,0.0,0.0,0.0,0.0,0.0,0.0,0.0,0.0,0.0,0.0,0.0,0.0,0.0,0.0,0.0,0.0,0.0,0.0,0.0,0.0,0.0,0.0,0.0,0.0,0.0,0.0,0.0,0.0,0.0,0.0,0.0,0.0,0.0,0.0,0.0,0.0,0.0,0.0,0.0,0.0,0.0,0.0,0.0,0.0,0.0,0.0,0.0,0.0,0.0,0.0,0.0,0.0,0.0,0.0,0.0,0.0,0.0,0.0,0.0,0.0,0.0,0.0,0.0,0.0,0.0,0.0,0.0,0.0,0.0,0.0,0.0,-2.4636,-2.4636,-2.4636,-2.4636,-2.4636,-2.4636,0.0,0.0,0.0,0.0,0.0,0.0,0.0,0.0,0.0,0.0,0.0,0.0,0.0,0.0,0.0,0.0,0.0,0.0,0.0,0.0,0.0,0.0,0.0,0.0,0.0,0.0,0.0,0.0,0.0,0.0,0.0,0.0,0.0,0.0,0.0,0.0,0.0,0.0,0.0,0.0,0.0,0.0,0.0,0.0,0.0,0.0,0.0,0.0,0.0,0.0,0.0,0.0,0.0,0.0,0.0,0.0,0.0,0.0,0.0,0.0,0.0,0.0,0.0,0.0,0.0,0.0,0.0,0.0,0.0,0.0,0.0,0.0,0.0,0.0,0.0,0.0,0.0,0.0,0.0,0.0,0.0,0.0,0.0,0.0,0.0,0.0,0.0,0.0,0.0,0.0,0.0,0.0,0.0,0.0,0.0,0.0,0.0,0.0,0.0,0.0,0.0,0.0,0.0,0.0,0.0,0.0,0.0,0.0,0.0,-2.4636,-2.4636,-2.4636,-2.4636,-2.4636,0.0,0.0,0.0,0.0,0.0,0.0,0.0,0.0,0.0,0.0,0.0,0.0,0.0,0.0,0.0,0.0,0.0,0.0,0.0,0.0,0.0,0.0,0.0,0.0,0.0,0.0,0.0,0.0,0.0,0.0,0.0,0.0,0.0,0.0,0.0,0.0,0.0,0.0,0.0,0.0,0.0,0.0,0.0,0.0,0.0,0.0,0.0,0.0,0.0,0.0,0.0,0.0,0.0,0.0,0.0,0.0,0.0,0.0,0.0,0.0,0.0,0.0,0.0,0.0,0.0,0.0,0.0,0.0,0.0,0.0,0.0,0.0,0.0,0.0,0.0,0.0,0.0,0.0,0.0,0.0,0.0,0.0,0.0,0.0,0.0,0.0,0.0,0.0,0.0,0.0,0.0,0.0,0.0,0.0,0.0,0.0,0.0,0.0,0.0,0.0,0.0,0.0,0.0,0.0,0.0,0.0,0.0,0.0,0.0,-2.4636,-2.4636,-2.4636,-2.4636,-2.4636,-2.4636,0.0,0.0,0.0,0.0,0.0,0.0,0.0,0.0,0.0,0.0,0.0,0.0,0.0,0.0,0.0,0.0,0.0,0.0,0.0,0.0,0.0,0.0,0.0,0.0,0.0,0.0,0.0,0.0,0.0,0.0,0.0,0.0,0.0,0.0,0.0,0.0,0.0,0.0,0.0,0.0,0.0,0.0,0.0,0.0,0.0,0.0,0.0,0.0,0.0,0.0,0.0,0.0,0.0,0.0,0.0,0.0,0.0,0.0,0.0,0.0,0.0,0.0,0.0,0.0,0.0,0.0,0.0,0.0,0.0,0.0,0.0,0.0,0.0,0.0,0.0,0.0,0.0,0.0,0.0,0.0,0.0,0.0,0.0,0.0,0.0,0.0,0.0,0.0,0.0,0.0,0.0,0.0,0.0,0.0,0.0,0.0,0.0,0.0,0.0,0.0,0.0,0.0,0.0,0.0,0.0,0.0,0.0,0.0,0.0,-2.4636,0.0,-2.4636,0.0,-2.4636,-2.4636,0.0,0.0,0.0,0.0,0.0,0.0,0.0,0.0,0.0,0.0,0.0,0.0,0.0,0.0,0.0,0.0,0.0,0.0,0.0,0.0,0.0,0.0,0.0,0.0,0.0,0.0,0.0,0.0,0.0,0.0,0.0,0.0,0.0,0.0,0.0,0.0,0.0,0.0,0.0,0.0,0.0,0.0,0.0,0.0,0.0,0.0,0.0,0.0,0.0,0.0,0.0,0.0,0.0,0.0,0.0,0.0,0.0,0.0,0.0,0.0,0.0,0.0,0.0,0.0,0.0,0.0,0.0,0.0,0.0,0.0,0.0,0.0,0.0,0.0,0.0,0.0,0.0,0.0,0.0,0.0,0.0,0.0,0.0,0.0,0.0,0.0,0.0,0.0,0.0,0.0,0.0,0.0,0.0,0.0,0.0,0.0,0.0,0.0,0.0,0.0,0.0,0.0,0.0,0.0,0.0,0.0,0.0,0.0,-2.4636,-2.4636,-2.4636,-2.4636,-2.4636,-2.4636,-2.4636,0.0,0.0,0.0,0.0,0.0,0.0,0.0,0.0,0.0,0.0,0.0,0.0,0.0,0.0,0.0,0.0,0.0,0.0,0.0,0.0,0.0,0.0,0.0,0.0,0.0,0.0,0.0,0.0,0.0,0.0,0.0,0.0,0.0,0.0,0.0,0.0,0.0,0.0,0.0,0.0,0.0,0.0,0.0,0.0,0.0,0.0,0.0,0.0,0.0,0.0,0.0,0.0,0.0,0.0,0.0,0.0,0.0,0.0,0.0,0.0,0.0,0.0,0.0,0.0,0.0,0.0,0.0,0.0,0.0,0.0,0.0,0.0,0.0,0.0,0.0,0.0,0.0,0.0,0.0,0.0,0.0,0.0,0.0,0.0,0.0,0.0,0.0,0.0,0.0,0.0,0.0,0.0,0.0,0.0,0.0,0.0,0.0,0.0,0.0,0.0,0.0,0.0,0.0,0.0,0.0,0.0,0.0,0.0,0.0,-2.4636,-2.4636,-2.4636,-2.4636,-2.4636,-2.4636,0.0,0.0,0.0,0.0,0.0,0.0,0.0,0.0,0.0,0.0,0.0,0.0,0.0,0.0,0.0,0.0,0.0,0.0,0.0,0.0,0.0,0.0,0.0,0.0,0.0,0.0,0.0,0.0,0.0,0.0,0.0,0.0,0.0,0.0,0.0,0.0,0.0,0.0,0.0,0.0,0.0,0.0,0.0,0.0,0.0,0.0,0.0,0.0,0.0,0.0,0.0,0.0,0.0,0.0,0.0,0.0,0.0,0.0,0.0,0.0,0.0,0.0,0.0,0.0,0.0,0.0,0.0,0.0,0.0,0.0,0.0,0.0,0.0,0.0,0.0,0.0,0.0,0.0,0.0,0.0,0.0,0.0,0.0,0.0,0.0,0.0,0.0,0.0,0.0,0.0,0.0,0.0,0.0,0.0,0.0,0.0,0.0,0.0,0.0,0.0,0.0,0.0,0.0,0.0,0.0,0.0,0.0,0.0,0.0,-2.4636,-2.4636,-2.4636,-2.4636,-2.4636,-2.4636,-2.4636,0.0,0.0,0.0,0.0,0.0,0.0,0.0,0.0,0.0,0.0,0.0,0.0,0.0,0.0,0.0,0.0,0.0,0.0,0.0,0.0,0.0,0.0,0.0,0.0,0.0,0.0,0.0,0.0,0.0,0.0,0.0,0.0,0.0,0.0,0.0,0.0,0.0,0.0,0.0,0.0,0.0,0.0,0.0,0.0,0.0,0.0,0.0,0.0,0.0,0.0,0.0,0.0,0.0,0.0,0.0,0.0,0.0,0.0,0.0,0.0,0.0,0.0,0.0,0.0,0.0,0.0,0.0,0.0,0.0,0.0,0.0,0.0,0.0,0.0,0.0,0.0,0.0,0.0,0.0,0.0,0.0,0.0,0.0,0.0,0.0,0.0,0.0,0.0,0.0,0.0,0.0,0.0,0.0,0.0,0.0,0.0,0.0,0.0,0.0,0.0,0.0,0.0,0.0,0.0,0.0,0.0,0.0,0.0,-2.4636,-2.4636,-2.4636,-2.4636,-2.4636,-2.4636,0.0,0.0,0.0,0.0,0.0,0.0,0.0,0.0,0.0,0.0,0.0,0.0,0.0,0.0,0.0,0.0,0.0,0.0,0.0,0.0,0.0,0.0,0.0,0.0,0.0,0.0,0.0,0.0,0.0,0.0,0.0,0.0,0.0,0.0,0.0,0.0,0.0,0.0,0.0,0.0,0.0,0.0,0.0,0.0,0.0,0.0,0.0,0.0,0.0,0.0,0.0,0.0,0.0,0.0,0.0,0.0,0.0,0.0,0.0,0.0,0.0,0.0,0.0,0.0,0.0,0.0,0.0,0.0,0.0,0.0,0.0,0.0,0.0,0.0,0.0,0.0,0.0,0.0,0.0,0.0,0.0,0.0,0.0,0.0,0.0,0.0,0.0,0.0,0.0,0.0,0.0,0.0,0.0,0.0,0.0,0.0,0.0,0.0,0.0,0.0,0.0,0.0,0.0,0.0,0.0,0.0,0.0,0.0,0.0,-2.4636,-2.4636,-2.4636,-2.4636,-2.4636,-2.4636,0.0,0.0,0.0,0.0,0.0,0.0,0.0,0.0,0.0,0.0,0.0,0.0,0.0,0.0,0.0,0.0,0.0,0.0,0.0,0.0,0.0,0.0,0.0,0.0,0.0,0.0,0.0,0.0,0.0,0.0,0.0,0.0,0.0,0.0,0.0,0.0,0.0,0.0,0.0,0.0,0.0,0.0,0.0,0.0,0.0,0.0,0.0,0.0,0.0,0.0,0.0,0.0,0.0,0.0,0.0,0.0,0.0,0.0,0.0,0.0,0.0,0.0,0.0,0.0,0.0,0.0,0.0,0.0,0.0,0.0,0.0,0.0,0.0,0.0,0.0,0.0,0.0,0.0,0.0,0.0,0.0,0.0,0.0,0.0,0.0,0.0,0.0,0.0,0.0,0.0,0.0,0.0,0.0,0.0,0.0,0.0,0.0,0.0,0.0,0.0,0.0,0.0,0.0,0.0,0.0,0.0,0.0,0.0,-2.4636,-2.4636,-2.4636,-2.4636,-2.4636,-2.4636,-2.4636,0.0,0.0,0.0,0.0,0.0,0.0,0.0,0.0,0.0,0.0,0.0,0.0,0.0,0.0,0.0,0.0,0.0,0.0,0.0,0.0,0.0,0.0,0.0,0.0,0.0,0.0,0.0,0.0,0.0,0.0,0.0,0.0,0.0,0.0,0.0,0.0,0.0,0.0,0.0,0.0,0.0,0.0,0.0,0.0,0.0,0.0,0.0,0.0,0.0,0.0,0.0,0.0,0.0,0.0,0.0,0.0,0.0,0.0,0.0,0.0,0.0,0.0,0.0,0.0,0.0,0.0,0.0,0.0,0.0,0.0,0.0,0.0,0.0,0.0,0.0,0.0,0.0,0.0,0.0,0.0,0.0,0.0,0.0,0.0,0.0,0.0,0.0,0.0,0.0,0.0,0.0,0.0,0.0,0.0,0.0,0.0,0.0,0.0,0.0,0.0,0.0,0.0,0.0,0.0,0.0,0.0,0.0,0.0,-2.4649,-2.4676,-2.4676,-2.469,-2.473,-2.4676,-2.4636,0.0,0.0,0.0,0.0,0.0,0.0,0.0,0.0,0.0,0.0,0.0,0.0,0.0,0.0,0.0,0.0,0.0,0.0,0.0,0.0,0.0,0.0,0.0,0.0,0.0,0.0,0.0,0.0,0.0,0.0,0.0,0.0,0.0,0.0,0.0,0.0,0.0,0.0,0.0,0.0,0.0,0.0,0.0,0.0,0.0,0.0,0.0,0.0,0.0,0.0,0.0,0.0,0.0,0.0,0.0,0.0,0.0,0.0,0.0,0.0,0.0,0.0,0.0,0.0,0.0,0.0,0.0,0.0,0.0,0.0,0.0,0.0,0.0,0.0,0.0,0.0,0.0,0.0,0.0,0.0,0.0,0.0,0.0,0.0,0.0,0.0,0.0,0.0,0.0,0.0,0.0,0.0,0.0,0.0,0.0,0.0,0.0,0.0,0.0,0.0,0.0,0.0,0.0,0.0,0.0,0.0,0.0,0.0,-2.4756,-2.4983,-2.4983,-2.509,-2.5317,-2.4877,-2.4636,0.0,0.0,0.0,0.0,0.0,0.0,0.0,0.0,0.0,0.0,0.0,0.0,0.0,0.0,0.0,0.0,0.0,0.0,0.0,0.0,0.0,0.0,0.0,0.0,0.0,0.0,0.0,0.0,0.0,0.0,0.0,0.0,0.0,0.0,0.0,0.0,0.0,0.0,0.0,0.0,0.0,0.0,0.0,0.0,0.0,0.0,0.0,0.0,-2.736,0.0,0.0,0.0,0.0,0.0,0.0,0.0,0.0,0.0,0.0,0.0,0.0,0.0,0.0,0.0,0.0,0.0,0.0,0.0,0.0,0.0,0.0,0.0,0.0,0.0,0.0,0.0,0.0,0.0,0.0,0.0,0.0,0.0,0.0,0.0,0.0,0.0,0.0,0.0,0.0,0.0,0.0,0.0,0.0,0.0,0.0,0.0,0.0,0.0,0.0,0.0,0.0,0.0,0.0,0.0,0.0,0.0,0.0,0.0,-2.513,-2.5277,-2.5291,-2.5358,-2.5491,-2.5211,-2.505,0.0,0.0,0.0,0.0,0.0,0.0,0.0,0.0,0.0,0.0,0.0,0.0,0.0,0.0,0.0,0.0,0.0,0.0,0.0,0.0,0.0,0.0,0.0,0.0,0.0,0.0,0.0,0.0,0.0,0.0,0.0,0.0,0.0,0.0,0.0,0.0,0.0,0.0,0.0,0.0,0.0,0.0,0.0,0.0,0.0,0.0,0.0,0.0,0.0,0.0,0.0,0.0,0.0,0.0,0.0,0.0,0.0,0.0,0.0,0.0,0.0,0.0,0.0,0.0,0.0,0.0,0.0,0.0,0.0,0.0,0.0,0.0,0.0,0.0,0.0,0.0,0.0,0.0,0.0,0.0,0.0,0.0,0.0,0.0,0.0,0.0,0.0,0.0,0.0,0.0,0.0,0.0,0.0,0.0,0.0,0.0,0.0,0.0,0.0,0.0,0.0,0.0,0.0,0.0,0.0,0.0,0.0,-2.5384,-2.5531,-2.5585,-2.5585,-2.5598,-2.5638,-2.5651,-2.5638,-2.5638,0.0,0.0,0.0,0.0,0.0,0.0,0.0,0.0,0.0,0.0,0.0,0.0,0.0,0.0,0.0,0.0,0.0,0.0,0.0,0.0,0.0,0.0,0.0,0.0,0.0,0.0,0.0,0.0,0.0,0.0,0.0,0.0,0.0,0.0,0.0,0.0,0.0,0.0,-2.4703,-2.4957,0.0,0.0,0.0,0.0,0.0,0.0,0.0,0.0,-2.6406,0.0,0.0,0.0,0.0,0.0,0.0,0.0,0.0,0.0,0.0,0.0,0.0,0.0,0.0,0.0,0.0,0.0,0.0,0.0,0.0,0.0,0.0,0.0,0.0,0.0,0.0,0.0,0.0,0.0,0.0,0.0,0.0,0.0,0.0,0.0,0.0,0.0,0.0,0.0,0.0,0.0,0.0,0.0,0.0,0.0,0.0,0.0,0.0,0.0,0.0,0.0,0.0,0.0,0.0,0.0,0.0,-2.5438,-2.5491,-2.5625,-2.5879,-2.5879,-2.5999,-2.6239,-2.6239,-2.6253,-2.6226,0.0,0.0,0.0,0.0,0.0,0.0,0.0,0.0,0.0,0.0,0.0,0.0,0.0,0.0,0.0,0.0,0.0,0.0,0.0,0.0,0.0,0.0,0.0,0.0,0.0,0.0,0.0,0.0,0.0,0.0,0.0,0.0,0.0,0.0,0.0,0.0,0.0,0.0,0.0,-2.5264,-2.5577,0.0,0.0,0.0,0.0,0.0,0.0,0.0,0.0,-2.5478,0.0,0.0,0.0,0.0,0.0,0.0,0.0,0.0,0.0,0.0,0.0,0.0,0.0,0.0,0.0,0.0,0.0,0.0,0.0,0.0,0.0,0.0,0.0,0.0,0.0,0.0,0.0,0.0,0.0,0.0,0.0,0.0,0.0,0.0,0.0,0.0,0.0,0.0,0.0,0.0,0.0,0.0,0.0,0.0,0.0,0.0,0.0,0.0,0.0,0.0,0.0,0.0,0.0,0.0,0.0,-2.5758,-2.5892,-2.6039,-2.6172,-2.6186,-2.6253,-2.6386,-2.64,-2.64,0.0,0.0,0.0,0.0,0.0,0.0,0.0,0.0,0.0,0.0,0.0,0.0,0.0,0.0,0.0,0.0,0.0,0.0,0.0,0.0,0.0,0.0,0.0,0.0,0.0,0.0,0.0,0.0,0.0,0.0,0.0,0.0,0.0,0.0,0.0,0.0,0.0,0.0,0.0,0.0,-2.5558,-2.5692,-2.5531,0.0,0.0,0.0,0.0,0.0,0.0,-2.5972,-2.6566,0.0,0.0,0.0,0.0,0.0,0.0,0.0,0.0,0.0,0.0,0.0,0.0,0.0,0.0,0.0,0.0,0.0,0.0,0.0,0.0,0.0,0.0,0.0,0.0,0.0,0.0,0.0,0.0,0.0,0.0,0.0,0.0,0.0,0.0,0.0,0.0,0.0,0.0,0.0,0.0,0.0,0.0,0.0,0.0,0.0,0.0,0.0,0.0,0.0,0.0,0.0,0.0,0.0,0.0,0.0,-2.6052,-2.6279,-2.64,-2.64,-2.64,-2.64,-2.64,-2.64,-2.64,0.0,0.0,0.0,0.0,0.0,0.0,0.0,0.0,0.0,0.0,0.0,0.0,0.0,0.0,0.0,0.0,0.0,0.0,0.0,0.0,0.0,0.0,0.0,0.0,0.0,0.0,0.0,0.0,0.0,0.0,0.0,0.0,0.0,0.0,0.0,0.0,0.0,0.0,0.0,0.0,0.0,-2.5959,-2.5732,-2.6092,0.0,0.0,0.0,0.0,-2.64,-2.64,0.0,0.0,0.0,0.0,0.0,0.0,0.0,0.0,0.0,0.0,0.0,0.0,0.0,0.0,0.0,0.0,0.0,0.0,0.0,0.0,0.0,0.0,0.0,0.0,0.0,0.0,0.0,0.0,0.0,0.0,0.0,0.0,0.0,0.0,0.0,0.0,0.0,0.0,0.0,0.0,0.0,0.0,0.0,0.0,0.0,0.0,0.0,0.0,0.0,0.0,0.0,0.0,0.0,0.0,0.0,0.0,-2.6346,-2.6373,-2.64,-2.64,-2.64,-2.64,-2.64,-2.64,-2.64,0.0,0.0,0.0,0.0,0.0,0.0,0.0,0.0,0.0,0.0,0.0,0.0,0.0,0.0,0.0,0.0,0.0,0.0,0.0,0.0,0.0,0.0,0.0,0.0,0.0,0.0,0.0,0.0,0.0,0.0,0.0,0.0,0.0,0.0,0.0,0.0,0.0,0.0,0.0,0.0,0.0,-2.6333,-2.6293,-2.6346,-2.6373,0.0,0.0,-2.64,-2.64,-2.64,0.0,0.0,0.0,0.0,0.0,0.0,0.0,0.0,0.0,0.0,0.0,0.0,0.0,0.0,0.0,0.0,0.0,0.0,0.0,0.0,0.0,0.0,0.0,0.0,0.0,0.0,0.0,0.0,0.0,0.0,0.0,0.0,0.0,0.0,0.0,0.0,0.0,0.0,0.0,0.0,0.0,0.0,0.0,0.0,0.0,0.0,0.0,0.0,0.0,0.0,0.0,0.0,0.0,0.0,0.0,-2.64,-2.64,-2.64,-2.64,-2.64,-2.64,-2.64,-2.64,-2.64,-2.64,0.0,0.0,0.0,0.0,0.0,0.0,0.0,0.0,0.0,0.0,0.0,0.0,0.0,0.0,0.0,0.0,0.0,0.0,0.0,0.0,0.0,0.0,0.0,0.0,0.0,0.0,0.0,0.0,0.0,0.0,0.0,0.0,0.0,0.0,0.0,0.0,0.0,0.0,0.0,0.0,0.0,0.0,-2.64,-2.64,0.0,0.0,0.0,-2.64,-2.64,0.0,0.0,0.0,0.0,0.0,0.0,0.0,0.0,0.0,0.0,0.0,0.0,0.0,0.0,0.0,0.0,0.0,0.0,0.0,0.0,0.0,0.0,0.0,0.0,0.0,0.0,0.0,0.0,0.0,0.0,0.0,0.0,0.0,0.0,0.0,0.0,0.0,0.0,0.0,0.0,0.0,0.0,0.0,0.0,0.0,0.0,0.0,0.0,0.0,0.0,0.0,0.0,0.0,0.0,0.0,0.0,0.0,-2.64,-2.64,-2.6426,-2.6493,-2.6493,-2.6533,-2.66,-2.6613,0.0,0.0,0.0,0.0,0.0,0.0,0.0,0.0,0.0,0.0,0.0,0.0,0.0,0.0,0.0,0.0,0.0,0.0,0.0,0.0,0.0,0.0,0.0,0.0,0.0,0.0,0.0,-2.473,0.0,0.0,0.0,0.0,0.0,0.0,0.0,0.0,0.0,0.0,0.0,0.0,0.0,0.0,-2.64,-2.64,-2.64,-2.64,0.0,0.0,-2.64,-2.64,-2.64,-2.6847,0.0,0.0,0.0,0.0,0.0,0.0,0.0,0.0,0.0,0.0,0.0,0.0,0.0,0.0,0.0,0.0,0.0,0.0,0.0,0.0,0.0,0.0,0.0,0.0,0.0,0.0,0.0,0.0,0.0,0.0,0.0,0.0,0.0,0.0,0.0,0.0,0.0,0.0,0.0,0.0,0.0,0.0,0.0,0.0,0.0,0.0,0.0,0.0,0.0,0.0,0.0,0.0,0.0,0.0,0.0,-2.64,-2.64,-2.652,-2.6774,-2.6787,-2.6934,-2.7188,-2.7201,-2.7201,0.0,0.0,0.0,0.0,0.0,0.0,0.0,0.0,0.0,0.0,0.0,0.0,0.0,0.0,0.0,0.0,0.0,0.0,0.0,0.0,0.0,0.0,0.0,0.0,0.0,0.0,0.0,0.0,0.0,0.0,0.0,0.0,0.0,0.0,0.0,0.0,0.0,0.0,0.0,0.0,0.0,-2.64,-2.64,-2.64,-2.64,0.0,0.0,-2.64,-2.64,-2.64,-2.6386,-2.6544,0.0,0.0,0.0,0.0,0.0,0.0,0.0,0.0,0.0,0.0,0.0,0.0,0.0,0.0,0.0,0.0,0.0,0.0,0.0,0.0,0.0,0.0,0.0,0.0,0.0,0.0,0.0,0.0,0.0,0.0,0.0,0.0,0.0,0.0,0.0,0.0,0.0,0.0,0.0,0.0,0.0,0.0,0.0,0.0,0.0,0.0,0.0,0.0,0.0,0.0,0.0,0.0,0.0,-2.6494,-2.636,-2.6532,-2.6502,-2.6281,-2.6281,-2.6333,-2.6436,-2.6449,-2.6449,0.0,0.0,0.0,0.0,0.0,0.0,0.0,0.0,0.0,0.0,0.0,0.0,0.0,0.0,0.0,0.0,0.0,0.0,0.0,0.0,0.0,0.0,0.0,0.0,0.0,0.0,0.0,0.0,-2.5558,-2.5692,-2.5865,0.0,0.0,0.0,0.0,0.0,0.0,0.0,0.0,0.0,0.0,-2.64,-2.64,-2.6547,0.0,0.0,-2.6814,-2.6934,-2.6934,-2.6934,-2.6921,-2.6934,-2.6934,0.0,0.0,0.0,0.0,0.0,0.0,0.0,0.0,0.0,0.0,0.0,0.0,0.0,0.0,0.0,0.0,0.0,0.0,0.0,0.0,0.0,0.0,0.0,0.0,0.0,0.0,0.0,0.0,0.0,0.0,0.0,0.0,0.0,0.0,0.0,0.0,0.0,0.0,0.0,0.0,0.0,0.0,0.0,0.0,0.0,0.0,0.0,0.0,0.0,0.0,0.0,0.0,-2.6637,-2.6326,-2.6522,-2.6501,-2.6084,-2.6249,-2.6452,-2.6364,-2.6543,-2.6543,0.0,0.0,0.0,0.0,0.0,0.0,0.0,0.0,0.0,0.0,0.0,0.0,0.0,0.0,0.0,0.0,0.0,0.0,0.0,0.0,0.0,0.0,0.0,0.0,0.0,0.0,0.0,0.0,-2.5905,-2.6066,-2.636,0.0,0.0,0.0,0.0,0.0,0.0,0.0,0.0,0.0,0.0,-2.652,-2.652,-2.6774,-2.6961,-2.6947,-2.7134,-2.7268,-2.7268,-2.7268,-2.7268,-2.7268,0.0,0.0,0.0,0.0,0.0,0.0,0.0,0.0,0.0,0.0,0.0,0.0,0.0,0.0,0.0,0.0,0.0,0.0,0.0,0.0,0.0,0.0,0.0,0.0,0.0,0.0,0.0,0.0,0.0,0.0,-2.636,0.0,0.0,0.0,0.0,0.0,0.0,0.0,0.0,0.0,0.0,0.0,0.0,0.0,0.0,0.0,0.0,0.0,0.0,0.0,0.0,0.0,0.0,0.0,-2.6613,-2.6639,-2.6605,-2.6363,-2.7197,-2.7495,-2.7435,-2.7954,-2.7954,-2.7448,0.0,0.0,0.0,0.0,0.0,0.0,0.0,0.0,0.0,0.0,0.0,0.0,0.0,0.0,0.0,0.0,0.0,0.0,0.0,0.0,0.0,0.0,0.0,0.0,0.0,0.0,-2.5558,-2.5785,-2.6079,0.0,0.0,0.0,0.0,0.0,0.0,0.0,0.0,0.0,0.0,-2.664,-2.6814,-2.6814,-2.7068,-2.7255,-2.7255,-2.7268,-2.7281,-2.7281,-2.7281,-2.7268,0.0,0.0,0.0,0.0,0.0,0.0,0.0,0.0,0.0,0.0,0.0,0.0,0.0,0.0,0.0,0.0,0.0,0.0,0.0,0.0,0.0,0.0,0.0,0.0,0.0,0.0,0.0,-2.5622,-2.5938,0.0,0.0,0.0,0.0,0.0,0.0,0.0,0.0,0.0,0.0,0.0,-2.6812,-2.6974,0.0,0.0,0.0,0.0,0.0,0.0,0.0,0.0,0.0,0.0,0.0,0.0,-2.7231,-2.6913,-2.6749,-2.6554,-2.6305,-2.6136,-2.6186,-2.6116,-2.6286,-2.6443,-2.6613,0.0,0.0,0.0,0.0,0.0,0.0,0.0,0.0,0.0,0.0,0.0,0.0,0.0,0.0,0.0,0.0,0.0,0.0,0.0,0.0,0.0,0.0,0.0,0.0,0.0,-2.6092,0.0,0.0,0.0,0.0,0.0,0.0,0.0,0.0,0.0,0.0,0.0,-2.668,-2.668,-2.6934,-2.7121,-2.7121,-2.7362,-2.7549,0.0,0.0,0.0,0.0,0.0,0.0,0.0,0.0,0.0,0.0,0.0,0.0,0.0,0.0,-3.0156,-3.195,-3.2665,-3.3139,-3.3139,0.0,0.0,0.0,0.0,0.0,0.0,0.0,0.0,0.0,0.0,0.0,0.0,0.0,0.0,0.0,0.0,-2.5892,0.0,0.0,0.0,0.0,0.0,0.0,0.0,0.0,-2.6685,-2.6777,-2.6941,-2.7105,-2.7321,0.0,-2.7415,-2.7468,0.0,0.0,0.0,0.0,0.0,0.0,0.0,0.0,-2.7187,-2.6865,-2.6694,-2.6273,-2.5933,-2.5945,-2.5775,-2.5604,-2.5604,-2.5763,-2.6103,-2.6443,-2.6796,0.0,0.0,0.0,0.0,0.0,0.0,0.0,0.0,0.0,0.0,0.0,0.0,0.0,0.0,0.0,0.0,0.0,0.0,0.0,0.0,0.0,0.0,0.0,-2.64,0.0,0.0,0.0,0.0,0.0,0.0,0.0,0.0,0.0,-2.6573,-2.6787,-2.6974,-2.6974,-2.7228,-2.7415,-2.7415,0.0,0.0,0.0,0.0,0.0,0.0,0.0,-2.815,-2.815,-2.815,-2.881,-3.0455,-3.0289,-3.0136,-3.0622,0.0,0.0,-3.0543,-3.1265,-3.1749,-3.1749,-3.3034,-3.4325,-3.4325,-3.5661,-3.6666,0.0,0.0,0.0,0.0,0.0,0.0,0.0,0.0,-2.5779,-2.5779,0.0,-2.5931,0.0,0.0,0.0,0.0,0.0,-2.6298,0.0,0.0,-2.583,-2.5995,-2.6159,-2.698,-2.7442,-2.7709,-2.7709,-2.7856,-2.8096,-2.7575,0.0,0.0,0.0,0.0,0.0,0.0,-2.6796,-2.6783,-2.6443,-2.5933,-2.5604,-2.6286,-2.6613,-2.6091,-2.6091,-2.6103,-2.6091,-2.6103,-2.6273,-2.6796,-2.7304,0.0,0.0,0.0,0.0,0.0,0.0,0.0,0.0,0.0,0.0,0.0,0.0,0.0,0.0,0.0,0.0,0.0,0.0,0.0,0.0,-2.64,0.0,0.0,0.0,0.0,0.0,0.0,0.0,0.0,0.0,0.0,-2.6894,-2.7108,-2.7281,-2.7281,0.0,0.0,0.0,0.0,-2.8136,-2.8136,-2.815,-2.815,-2.815,-2.815,-2.815,-2.815,0.0,0.0,-3.0455,-2.93,-2.881,-3.0455,-2.93,-2.815,-2.8292,-2.9592,-3.0759,-3.0925,-3.2201,-3.3381,-3.3528,-3.4869,-3.578,-2.4912,0.0,0.0,0.0,0.0,-2.5298,-2.5133,-2.4955,-2.4955,-2.512,-2.5462,-2.5462,0.0,0.0,0.0,0.0,0.0,0.0,-2.6594,-2.6607,-2.6968,-2.7071,-2.7071,-2.7394,-2.7446,-2.7525,-2.7848,-2.8056,-2.8123,-2.7976,-2.7896,-2.7896,0.0,0.0,0.0,0.0,-2.7304,-2.7317,-2.6443,-2.6443,-2.6978,-2.6456,-2.6443,-2.6613,-2.6613,-2.6613,-2.6613,-2.6613,-2.6613,-2.6783,-2.7304,0.0,0.0,0.0,0.0,0.0,0.0,0.0,0.0,0.0,0.0,0.0,0.0,0.0,0.0,0.0,0.0,0.0,0.0,0.0,-2.6413,-2.6573,-2.6694,0.0,0.0,0.0,0.0,0.0,0.0,0.0,0.0,0.0,-2.7455,-2.7522,-2.7575,0.0,0.0,-2.8016,-2.8016,-2.8083,-2.815,-2.815,-2.815,0.0,0.0,-2.815,-2.815,-2.815,-2.815,-2.8305,-2.8796,-2.8473,-2.8305,-2.8978,-2.8473,-2.815,-2.8136,-2.8642,-2.93,-3.0622,-3.2247,-3.3724,-3.5009,-3.6567,-3.7312,-2.5264,-2.5285,-2.562,-2.562,-2.5285,-2.5285,-2.5118,-2.4951,-2.4951,-2.5118,-2.5285,-2.5285,-2.562,-2.5954,-2.612,0.0,0.0,0.0,-2.6541,-2.6386,-2.6889,-2.7135,-2.7304,-2.7643,-2.7812,-2.7812,-2.8136,-2.815,-2.815,-2.815,-2.815,-2.815,0.0,0.0,-2.7812,-2.7656,-2.7487,-2.7487,-2.6796,-2.6613,-2.6953,-2.6273,-2.5945,-2.6286,-2.6286,-2.6286,-2.6286,-2.6443,-2.6613,-2.6796,-2.7304,-2.7643,0.0,0.0,0.0,0.0,0.0,0.0,0.0,0.0,0.0,0.0,0.0,-2.7268,0.0,0.0,0.0,0.0,-2.7108,-2.6921,-2.6747,-2.6894,0.0,0.0,0.0,0.0,0.0,0.0,0.0,-2.7188,-2.7589,-2.7869,-2.7869,-2.7869,-2.7869,-2.7883,-2.803,-2.815,-2.815,0.0,-2.815,-2.815,-2.815,-2.815,-2.815,-2.815,-2.815,-2.815,-2.815,-2.815,-2.815,-2.815,-2.815,-2.815,-2.815,-2.815,-2.815,-2.815,-2.8473,-2.9635,-3.0607,-3.1753,-3.2725,-3.4863,-3.6172,-2.5433,-2.5433,-2.5433,-2.5433,-2.5433,-2.5433,-2.5433,-2.5433,-2.5433,-2.5433,-2.5433,-2.5433,-2.5604,-2.6103,-2.6443,0.0,-2.6103,-2.6103,-2.5933,-2.5604,-2.6456,-2.6783,-2.6783,-2.763,-2.8136,-2.815,-2.815,-2.815,-2.815,-2.815,-2.815,-2.815,-2.815,-2.815,-2.815,-2.7643,-2.7487,-2.7474,-2.6965,-2.6443,-2.6103,-2.5775,-2.5604,-2.5604,-2.5433,-2.5604,-2.5604,-2.5933,-2.6273,-2.6796,-2.7135,-2.7643,-2.815,0.0,0.0,0.0,0.0,0.0,0.0,0.0,0.0,0.0,0.0,0.0,0.0,0.0,0.0,0.0,-2.7335,0.0,-2.7268,-2.7281,0.0,0.0,0.0,-2.7308,-2.7335,-2.7562,-2.7736,-2.7736,0.0,0.0,-2.815,-2.815,-2.815,-2.815,-2.815,-2.815,-2.815,-2.815,-2.815,-2.815,-2.815,-2.815,-2.815,-2.815,-2.815,-2.815,-2.815,-2.815,-2.815,-2.815,-2.815,-2.815,-2.815,-2.815,-2.815,-2.815,-2.8318,-2.8473,-2.8642,-2.8642,-2.93,-3.1587,-3.356,-2.5433,-2.5433,-2.5433,-2.5433,-2.5433,-2.5433,-2.5433,-2.5433,-2.5433,-2.5433,-2.5433,-2.5433,-2.5433,-2.5604,-2.5604,-2.5945,-2.6103,-2.6103,-2.6273,-2.6456,-2.6273,-2.6443,-2.6796,-2.6953,-2.7304,-2.7656,-2.7968,-2.815,-2.815,-2.815,-2.815,-2.815,-2.815,-2.7981,-2.7643,-2.7135,-2.6965,-2.6965,-2.6116,-2.5763,-2.6103,-2.6273,-2.6443,-2.6456,-2.6443,-2.6456,-2.6456,-2.6273,-2.6273,-2.6783,-2.6965,-2.7135,-2.7643,-2.7981,0.0,0.0,0.0,0.0,0.0,0.0,0.0,0.0,0.0,-2.7936,-2.7936,0.0,-2.7936,0.0,-2.7936,-2.7749,-2.7308,-2.7468,0.0,0.0,-2.7589,-2.7682,-2.7909,-2.7989,-2.803,-2.8043,-2.8096,-2.815,-2.815,-2.815,-2.815,-2.815,-2.815,-2.815,-2.815,-2.815,-2.815,-2.815,-2.815,-2.815,-2.815,-2.815,-2.815,-2.815,-2.815,-2.815,-2.815,-2.815,-2.815,-2.815,-2.815,-2.815,-2.8305,-2.815,-2.881,-2.9802,-3.0122,-3.0622,-3.1918,-3.2905,-3.3069,-2.5433,-2.5433,-2.5433,-2.5433,-2.5433,-2.5433,-2.5433,-2.5433,-2.5433,-2.5433,-2.5433,-2.5433,-2.5433,-2.5433,-2.5433,-2.5604,-2.5763,-2.5775,-2.5933,-2.6116,-2.6273,-2.6613,-2.6783,-2.7292,-2.7643,-2.7812,-2.815,-2.815,-2.815,-2.815,-2.815,-2.815,-2.815,-2.815,-2.7812,-2.7461,-2.7461,-2.7461,-2.6626,-2.6456,-2.6443,-2.6443,-2.6613,-2.6783,-2.6456,-2.6286,-2.6443,-2.6273,-2.6261,-2.6796,-2.6965,-2.7304,-2.7812,-2.7981,-2.815,0.0,0.0,0.0,0.0,0.0,0.0,0.0,0.0,0.0,0.0,0.0,-2.815,-2.815,-2.815,-2.8003,-2.7682,-2.7802,-2.7896,-2.7896,-2.7896,-2.7963,-2.8123,-2.815,-2.815,-2.815,-2.815,-2.815,-2.815,-2.815,-2.815,-2.815,-2.815,-2.815,-2.815,-2.815,-2.815,-2.815,-2.815,-2.815,-2.815,-2.815,-2.815,-2.815,-2.815,-2.815,-2.8136,-2.881,-2.93,-2.93,-2.93,-2.9621,-3.0274,-2.9132,-2.881,-3.0122,-3.0122,-3.0607,-3.2905,-3.405,-3.4197,-2.5433,-2.5433,-2.5433,-2.5433,-2.5433,-2.5433,-2.5433,-2.5433,-2.5433,-2.5433,-2.5433,-2.5433,-2.5433,-2.5433,-2.5433,-2.5433,-2.5433,-2.5433,-2.5433,-2.5604,-2.6286,-2.6796,-2.6783,-2.763,-2.7968,-2.815,-2.8136,-2.815,-2.815,-2.815,-2.815,-2.815,-2.815,-2.815,-2.815,-2.815,-2.8136,-2.7981,-2.7643,-2.7135,-2.6783,-2.6273,-2.6273,-2.6613,-2.5945,-2.5604,-2.6103,-2.6103,-2.6273,-2.6796,-2.7304,-2.7643,-2.815,-2.815,-2.815,0.0,-2.815,0.0,0.0,0.0,0.0,0.0,0.0,0.0,0.0,-2.815,-2.815,-2.815,-2.815,-2.815,-2.815,-2.815,-2.815,-2.8136,-2.815,-2.815,-2.815,-2.815,-2.815,-2.815,-2.815,-2.815,-2.815,-2.815,-2.815,-2.815,-2.815,-2.815,-2.815,-2.815,-2.815,-2.815,-2.815,-2.815,-2.815,-2.815,-2.815,-2.815,-2.815,-2.8305,-2.8642,-2.9802,-3.0788,-3.0788,-3.0622,-3.1105,-3.2577,-3.0274,-2.93,-3.0954,-3.0455,-3.0441,-3.2083,-3.3381,-3.4847,-2.5433,-2.5433,-2.5433,-2.5433,-2.5433,-2.5433,-2.5433,-2.5433,-2.5433,-2.5433,-2.5433,-2.5433,-2.5433,-2.5433,-2.5433,-2.5604,-2.5933,-2.5604,-2.5775,-2.6443,-2.6273,-2.6443,-2.6783,-2.6953,-2.7292,-2.7643,-2.7656,-2.7812,-2.815,-2.815,-2.815,-2.815,-2.815,-2.815,-2.815,0.0,0.0,0.0,-2.6953,-2.6953,-2.6783,-2.6273,-2.6091,-2.6273,-2.5763,0.0,-2.6103,-2.6103,-2.6443,-2.7304,-2.7474,0.0,0.0,0.0,0.0,0.0,0.0,0.0,0.0,0.0,0.0,0.0,-2.811,-2.815,-2.815,-2.815,-2.815,-2.815,-2.815,-2.815,-2.815,-2.815,-2.815,-2.815,-2.815,-2.815,-2.815,-2.815,-2.815,-2.815,-2.815,-2.815,-2.815,-2.815,-2.815,-2.815,-2.815,-2.815,-2.815,-2.815,-2.815,-2.815,-2.815,-2.815,-2.815,-2.815,-2.815,-2.815,-2.815,-2.8642,-2.9802,-3.0455,-3.0788,-3.0788,-3.0788,-3.0455,-2.9621,-2.9635,-3.0788,-3.2577,-3.3544,-3.3381,-2.9955,-2.9453,-2.9621,-2.5433,0.0,-2.5433,-2.5433,0.0,-2.5433,-2.5433,-2.5433,-2.5433,-2.5433,-2.5433,-2.5433,-2.5433,-2.5433,-2.5433,-2.5604,-2.5763,-2.5433,-2.5604,-2.6116,-2.6103,-2.6273,-2.6443,-2.6965,-2.7304,-2.7487,-2.7812,-2.7981,-2.8136,-2.815,-2.815,-2.815,-2.815,-2.815,-2.815,-2.815,-2.7812,-2.6783,-2.6783,-2.6613,-2.6443,-2.6273,-2.6273,-2.6443,0.0,0.0,0.0,0.0,0.0,0.0,0.0,0.0,0.0,0.0,0.0,-2.815,-2.815,-2.815,-2.815,-2.815,-2.815,-2.815,-2.815,-2.815,-2.815,-2.815,-2.815,-2.815,-2.815,-2.815,-2.815,-2.815,-2.815,-2.815,-2.815,-2.815,-2.815,-2.815,-2.815,-2.815,-2.815,-2.815,-2.815,-2.815,-2.815,-2.815,-2.815,-2.815,-2.815,-2.815,-2.815,-2.815,-2.815,-2.815,-2.815,-2.815,-2.815,-2.815,-2.815,-2.8642,-2.93,-3.0289,-3.0788,-3.0788,-3.1437,-3.1918,-3.2083,-3.1437,-3.1271,-3.2741,-3.2741,-3.1587,-2.8796,-3.0925,-3.3053,-2.5433,-2.5433,-2.5433,-2.5433,-2.5433,-2.5433,-2.5433,-2.5433,0.0,0.0,0.0,-2.5433,-2.5433,-2.5433,-2.5433,-2.5433,-2.5433,-2.5433,-2.5433,-2.5604,-2.5933,-2.6103,-2.6273,-2.6965,-2.7487,-2.7487,-2.7812,-2.815,-2.8136,-2.815,-2.815,-2.815,-2.815,-2.815,-2.815,-2.815,-2.763,-2.6965,-2.6965,-2.6796,-2.6443,-2.6273,-2.6273,-2.6613,-2.5775,-2.5604,-2.6103,-2.5775,-2.5945,-2.6796,-2.6965,-2.7304,-2.8136,-2.815,-2.815,-2.815,-2.815,-2.815,-2.815,-2.815,-2.815,-2.815,-2.815,-2.815,-2.815,-2.815,-2.815,-2.815,-2.815,-2.815,-2.815,-2.815,-2.815,-2.815,-2.815,-2.815,-2.815,-2.815,-2.815,-2.815,-2.815,-2.815,-2.815,-2.815,-2.815,-2.815,-2.815,-2.815,-2.815,-2.815,-2.815,-2.815,-2.815,-2.815,-2.815,-2.815,-2.815,-2.815,-2.815,-2.8305,-2.881,-2.9802,-3.0622,-3.0788,-3.2098,-3.3069,-3.4034,-3.2247,-3.1437,-3.3069,-3.1422,-2.9621,-3.0441,-3.4213,-3.6815,-2.5433,-2.5433,-2.5433,-2.5433,-2.5433,-2.5433,-2.5433,-2.5433,-2.5433,-2.5433,-2.5433,-2.5433,-2.5433,-2.5433,-2.5433,-2.5433,-2.5433,-2.5433,-2.5604,0.0,-2.6103,-2.6273,-2.6613,-2.6796,-2.7135,-2.7487,-2.7656,-2.7812,-2.815,-2.815,-2.815,-2.815,-2.815,-2.815,-2.815,-2.7812,-2.7474,-2.7474,-2.7487,-2.7304,-2.7304,-2.6443,-2.6103,-2.6103,-2.5604,-2.5604,-2.6103,-2.6103,-2.6443,-2.7304,-2.7474,-2.7643,-2.815,-2.815,-2.815,-2.815,-2.815,-2.815,-2.815,-2.815,-2.815,-2.815,-2.815,-2.815,-2.815,-2.815,-2.815,-2.815,-2.815,-2.815,-2.815,-2.815,-2.815,-2.815,-2.815,-2.815,-2.815,-2.815,-2.815,-2.815,-2.815,-2.815,-2.815,-2.815,-2.815,-2.815,-2.815,-2.815,-2.815,-2.815,-2.815,-2.815,-2.815,-2.815,-2.815,-2.815,-2.815,-2.815,-2.815,-2.8642,-2.9802,-3.0289,-3.0622,-3.0788,-3.112,-3.0939,-3.0122,-3.0289,-3.1271,-3.2905,-3.3217,-3.4197,-3.5187,-3.6011,-3.4847,-2.5433,-2.5433,-2.5433,-2.5433,-2.5433,-2.5433,-2.5433,-2.5433,-2.5433,-2.5433,-2.5433,-2.5433,-2.5433,-2.5433,-2.5433,-2.5433,-2.5433,-2.5433,-2.5433,-2.5775,-2.5763,-2.5775,-2.6116,-2.6273,-2.6613,-2.6796,-2.6965,-2.7304,-2.7812,-2.7812,-2.7981,-2.8163,-2.831,-2.839,-2.8404,-2.8379,-2.8128,-2.793,-2.746,-2.7042,-2.7025,-2.651,-2.6228,-2.6191,-2.5856,-2.5856,-2.6191,-2.6056,-2.6326,-2.7367,-2.7212,-2.7474,-2.8136,-2.815,-2.815,-2.815,-2.815,-2.815,-2.815,-2.815,-2.815,-2.815,-2.815,-2.815,-2.815,-2.815,-2.815,-2.815,-2.815,-2.815,-2.815,-2.815,-2.815,-2.815,-2.815,-2.815,-2.815,-2.815,-2.815,-2.815,-2.815,-2.815,-2.815,-2.815,-2.815,-2.815,-2.815,-2.815,-2.815,-2.815,-2.815,-2.815,-2.815,-2.815,-2.815,-2.815,-2.815,-2.815,-2.815,-2.8473,-2.93,-2.9467,-2.9481,-2.9467,-3.0136,-3.0455,-2.9635,-3.0122,-3.112,-3.1602,-3.1587,-3.2247,-3.2577,-3.2247,-3.1256,-2.5433,-2.5433,-2.5433,-2.5433,-2.5433,-2.5433,-2.5433,-2.5433,-2.5433,-2.5433,-2.5433,-2.5433,-2.5433,-2.5433,-2.5433,-2.5433,-2.5433,-2.5433,-2.5433,-2.5433,-2.5433,-2.5446,-2.5604,-2.5933,-2.6103,-2.6286,-2.6847,-2.7238,-2.7578,-2.7814,-2.801,-2.8193,-2.8406,-2.8525,-2.8366,-2.8578,-2.8509,-2.8121,-2.7375,-2.6917,-2.6611,-2.645,-2.6374,-2.6194,-2.6218,-2.6218,-2.6206,-2.6025,-2.6264,-2.7119,-2.6917,-2.7328,-2.8167,-2.8167,-2.831,-2.8257,-2.8243,-2.8217,-2.815,-2.815,-2.815,-2.815,-2.815,-2.815,-2.815,-2.815,-2.815,-2.815,-2.815,-2.815,-2.815,-2.815,-2.815,-2.815,-2.815,-2.815,-2.815,-2.815,-2.815,-2.815,-2.815,-2.815,-2.815,-2.815,-2.815,-2.815,-2.815,-2.815,-2.815,-2.815,-2.815,-2.815,-2.815,-2.815,-2.815,-2.8217,-2.8257,-2.8243,-2.8323,-2.856,-2.856,-2.8534,-2.835,-2.873,-2.955,-3.0394,-3.0854,-3.0533,-3.0884,-3.1569,-3.1081,-2.955,-2.9733,-2.9635,-2.9383,-2.5433,-2.5433,-2.5433,-2.5433,-2.5446,-2.5458,-2.5458,-2.5458,-2.5446,-2.5446,-2.547,-2.5446,-2.5458,-2.5433,-2.5446,-2.5458,-2.547,-2.5446,-2.5458,-2.5458,-2.5433,-2.5604,-2.5958,-2.6116,-2.6273,-2.6664,-2.7393,-2.7693,-2.7878,-2.8459,-2.8591,-2.8256,-2.8282,-2.8121,-2.7785,-2.7823,-2.7648,-2.7648,-2.7597,-2.7222,-2.6896,-2.6533,-2.6194,-2.6218,-2.623,-2.6218,-2.6254,-2.6194,-2.6358,-2.6884,-2.6859,-2.7371,-2.823,-2.8243,-2.8312,-2.8591,-2.8564,-2.8444,-2.819,-2.815,-2.815,-2.815,-2.815,-2.815,-2.815,-2.815,-2.815,-2.815,-2.815,-2.815,-2.815,-2.815,-2.815,-2.815,-2.815,-2.815,-2.815,-2.815,-2.815,-2.815,-2.815,-2.815,-2.815,-2.815,-2.815,-2.815,-2.815,-2.815,-2.815,-2.8177,-2.819,-2.8163,-2.815,-2.8177,-2.8203,-2.8404,-2.8537,-2.8577,-2.8778,-2.8858,-2.8858,-2.8871,-2.8938,-2.8778,-2.9044,-2.9879,-3.0566,-3.0637,-3.0437,-3.186,-3.1719,-3.1109,-3.128,-3.0908,-3.0663,-2.5433,-2.5433,-2.5433,-2.553,-2.5675,-2.5832,-2.5904,-2.5904,-2.5904,-2.5904,-2.5904,-2.5904,-2.582,-2.5675,-2.5663,-2.5747,-2.5892,-2.5904,-2.5904,-2.5892,-2.5904,-2.5892,-2.6066,-2.624,-2.624,-2.6413,-2.6711,-2.7109,-2.7308,-2.7933,-2.7985,-2.8011,-2.7976,-2.8053,-2.7902,-2.8055,-2.7953,-2.7596,-2.7583,-2.7405,-2.7035,-2.6888,-2.671,-2.6677,-2.6701,-2.6701,-2.6677,-2.6556,-2.6637,-2.7157,-2.702,-2.7285,-2.8321,-2.8321,-2.8456,-2.8871,-2.8858,-2.8738,-2.8444,-2.8417,-2.8337,-2.8163,-2.815,-2.815,-2.815,-2.815,-2.815,-2.815,-2.815,-2.815,-2.815,-2.815,-2.815,-2.815,-2.815,-2.815,-2.815,-2.815,-2.815,-2.815,-2.815,-2.815,-2.815,-2.815,-2.815,-2.815,-2.815,-2.8163,-2.815,-2.8297,-2.8404,-2.8444,-2.8551,-2.8577,-2.8484,-2.8671,-2.8831,-2.8885,-2.8951,-2.9045,-2.9072,-2.9045,-2.9032,-2.9058,-2.9085,-2.9246,-2.9859,-2.9713,-2.9713,-3.1095,-3.1081,-3.0391,-3.1568,-3.0795,-3.031,-2.559,-2.5651,-2.5651,-2.5759,-2.5953,-2.6134,-2.6218,-2.6218,-2.6218,-2.6218,-2.6218,-2.6218,-2.6158,-2.6049,-2.5977,-2.6049,-2.6206,-2.6218,-2.6218,-2.6218,-2.6218,-2.6218,-2.6218,-2.6218,-2.6218,-2.623,-2.6467,-2.6729,-2.7321,-2.7687,-2.77,-2.7725,-2.789,-2.7812,-2.7837,-2.8025,-2.7933,-2.7571,-2.762,-2.7487,-2.7111,-2.7377,-2.7341,-2.7027,-2.7027,-2.7027,-2.7027,-2.6846,-2.6917,-2.7263,-2.7078,-2.7498,-2.8217,-2.8393,-2.8706,-2.9152,-2.9085,-2.8951,-2.8738,-2.8724,-2.8631,-2.8417,-2.839,-2.835,-2.8283,-2.827,-2.823,-2.815,-2.815,-2.815,-2.815,-2.815,-2.815,-2.815,-2.815,-2.815,-2.815,-2.815,-2.815,-2.815,-2.815,-2.815,-2.815,-2.815,-2.815,-2.815,-2.8217,-2.827,-2.831,-2.8524,-2.8724,-2.8738,-2.8965,-2.9018,-2.8804,-2.8965,-2.9125,-2.9192,-2.9232,-2.9339,-2.9285,-2.9285,-2.9285,-2.9446,-2.9325,-2.9636,-3.058,-3.0189,-2.9299,-2.9285,-2.9474,-2.9825,-3.0888,-2.9932,-2.985,-2.5953,-2.6158,-2.6182,-2.6182,-2.6206,-2.623,-2.623,-2.6278,-2.6242,-2.623,-2.6254,-2.6254,-2.6363,-2.6568,-2.6339,-2.6218,-2.623,-2.6254,-2.6266,-2.6266,-2.6254,-2.623,-2.6218,-2.6218,-2.6242,-2.6303,-2.6864,-2.7442,-2.8205,-2.8411,-2.8256,-2.7702,-2.7715,-2.7546,-2.722,-2.7257,-2.7039,-2.7099,-2.7292,-2.7401,-2.7425,-2.7618,-2.7486,-2.7123,-2.7051,-2.7063,-2.7051,-2.7027,-2.7027,-2.7015,-2.7353,-2.7883,-2.8436,-2.895,-2.9178,-2.9472,-2.9205,-2.9045,-2.9032,-2.9018,-2.8991,-2.8965,-2.8925,-2.8871,-2.8617,-2.8591,-2.847,-2.819,-2.823,-2.8203,-2.8203,-2.8177,-2.815,-2.815,-2.815,-2.815,-2.815,-2.815,-2.815,-2.815,-2.815,-2.8163,-2.8163,-2.815,-2.819,-2.8257,-2.8417,-2.8577,-2.8617,-2.8831,-2.8991,-2.9072,-2.9232,-2.9352,-2.9125,-2.9272,-2.9432,-2.9486,-2.9606,-2.9806,-2.986,-2.9887,-2.9847,-2.9847,-2.982,-3.0328,-3.1586,-3.1437,-3.0231,-2.9873,-2.9887,-3.0231,-3.1161,-3.0124,-3.0029,-2.6134,-2.623,-2.6411,-2.6484,-2.6508,-2.6665,-2.6737,-2.6737,-2.6737,-2.6737,-2.6737,-2.6737,-2.6798,-2.6882,-2.6785,-2.6737,-2.6737,-2.6737,-2.6737,-2.6737,-2.6737,-2.6737,-2.6737,-2.6737,-2.6737,-2.6749,-2.7014,-2.7292,-2.7558,-2.7571,-2.7475,-2.7439,-2.7451,-2.7536,-2.7498,-2.7534,-2.7534,-2.7546,-2.763,-2.7667,-2.7679,-2.7763,-2.7715,-2.7546,-2.7534,-2.7534,-2.7534,-2.7534,-2.7534,-2.7534,-2.8088,-2.8382,-2.8754,-2.9286,-2.9694,-2.9766,-2.9659,-2.9526,-2.9352,-2.9312,-2.9232,-2.9058,-2.9045,-2.9018,-2.8911,-2.8871,-2.8831,-2.8738,-2.8711,-2.8711,-2.8631,-2.839,-2.815,-2.815,-2.815,-2.8163,-2.815,-2.815,-2.815,-2.815,-2.815,-2.8203,-2.8404,-2.8444,-2.8511,-2.8684,-2.8818,-2.8871,-2.8925,-2.9125,-2.9325,-2.9366,-2.9566,-2.9726,-2.9646,-2.9673,-2.9766,-2.978,-2.9847,-2.9887,-2.9927,-2.998,-2.9967,-3.002,-3.0087,-3.0375,-3.1236,-3.118,-3.0327,-3.0381,-3.0394,-3.0804,-3.1803,-3.0573,-3.0616,-2.6484,-2.6508,-2.6689,-2.6761,-2.6785,-2.6954,-2.7027,-2.7027,-2.7027,-2.7027,-2.7027,-2.7027,-2.7027,-2.7027,-2.7027,-2.7027,-2.7027,-2.7027,-2.7027,-2.7027,-2.7027,-2.7027,-2.7027,-2.7027,-2.7027,-2.7039,-2.7123,-2.7196,-2.728,-2.728,-2.7377,-2.7546,-2.7546,-2.763,-2.7787,-2.7811,-2.7811,-2.7824,-2.7896,-2.7932,-2.7944,-2.8029,-2.8077,-2.8077,-2.8077,-2.798,-2.7836,-2.7811,-2.7811,-2.7811,-2.8383,-2.904,-2.9585,-2.9937,-3.0194,-3.0194,-3.0114,-2.998,-2.978,-2.9673,-2.9539,-2.9352,-2.9325,-2.9299,-2.9205,-2.9179,-2.9138,-2.9072,-2.9045,-2.9045,-2.8965,-2.8671,-2.843,-2.843,-2.843,-2.843,-2.843,-2.8444,-2.8444,-2.847,-2.847,-2.8551,-2.8698,-2.8738,-2.8831,-2.9018,-2.9112,-2.9179,-2.9219,-2.9432,-2.9619,-2.9633,-2.9766,-2.994,-2.998,-3.0034,-3.0074,-3.0087,-3.0087,-3.0074,-3.0127,-3.014,-3.0167,-3.0221,-3.0314,-3.0434,-3.0568,-3.0688,-3.0755,-3.0808,-3.0715,-3.0934,-3.1245,-3.1204,-3.1067,-2.7015,-2.6991,-2.7027,-2.7003,-2.7003,-2.7015,-2.7027,-2.7027,-2.7027,-2.7027,-2.7027,-2.7039,-2.7075,-2.7063,-2.7111,-2.7075,-2.7111,-2.7123,-2.7099,-2.7075,-2.7063,-2.7075,-2.7099,-2.7111,-2.7123,-2.7123,-2.7304,-2.7546,-2.7739,-2.7727,-2.7763,-2.7799,-2.7811,-2.7848,-2.7848,-2.7896,-2.7872,-2.792,-2.8113,-2.821,-2.8234,-2.8427,-2.8548,-2.8572,-2.856,-2.8343,-2.7884,-2.786,-2.7896,-2.8059,-2.8806,-2.9698,-3.0426,-3.0557,-3.0755,-3.0675,-3.0501,-3.0368,-3.0314,-3.01,-2.9967,-2.9873,-2.99,-2.9766,-2.9539,-2.9486,-2.9392,-2.9205,-2.9138,-2.9098,-2.9112,-2.9072,-2.9005,-2.9018,-2.8938,-2.8938,-2.8965,-2.9005,-2.9018,-2.8978,-2.8938,-2.9018,-2.9032,-2.9045,-2.9085,-2.9179,-2.9339,-2.9486,-2.9499,-2.97,-2.986,-2.9913,-2.998,-3.01,-3.0234,-3.0368,-3.0381,-3.0381,-3.0381,-3.0381,-3.0501,-3.0555,-3.0528,-3.0568,-3.0662,-3.0795,-3.0942,-3.1036,-3.0996,-3.1009,-3.0915,-3.0889,-3.1006,-3.115,-3.0926,-2.7027,-2.7027,-2.7027,-2.7027,-2.7027,-2.7027,-2.7027,-2.7027,-2.7027,-2.7027,-2.7063,-2.722,-2.7292,-2.7341,-2.7473,-2.7558,-2.757,-2.7558,-2.7473,-2.7329,-2.7304,-2.7389,-2.7522,-2.7558,-2.757,-2.7582,-2.7642,-2.7727,-2.7811,-2.7824,-2.7896,-2.8041,-2.8077,-2.8186,-2.8343,-2.8367,-2.8367,-2.8379,-2.8451,-2.8487,-2.85,-2.8572,-2.862,-2.862,-2.862,-2.8524,-2.8379,-2.8367,-2.8367,-2.8355,-2.8938,-2.9608,-2.9981,-3.016,-3.0241,-3.0241,-3.0531,-3.0662,-3.0648,-3.0568,-3.0408,-3.0274,-3.0221,-3.0074,-2.9833,-2.978,-2.974,-2.9646,-2.9646,-2.9646,-2.9646,-2.9646,-2.9472,-2.9085,-2.9045,-2.9072,-2.9098,-2.9072,-2.9045,-2.9045,-2.9045,-2.9125,-2.9285,-2.9352,-2.9419,-2.9566,-2.97,-2.9766,-2.9806,-2.9873,-3.002,-3.0167,-3.0221,-3.0327,-3.0541,-3.0688,-3.0728,-3.0742,-3.0742,-3.0742,-3.0849,-3.0929,-3.0902,-3.0929,-3.1022,-3.1129,-3.1276,-3.133,-3.1276,-3.133,-3.1356,-3.1276,-3.1129,-3.1076,-3.1049,-2.7027,-2.7027,-2.7027,-2.7087,-2.7172,-2.7184,-2.7232,-2.7317,-2.7317,-2.7317,-2.7365,-2.7498,-2.757,-2.7594,-2.7739,-2.7811,-2.7811,-2.7811,-2.7775,-2.7691,-2.7594,-2.7667,-2.7799,-2.7811,-2.7884,-2.7944,-2.7956,-2.8017,-2.8113,-2.8125,-2.8198,-2.8331,-2.8355,-2.8427,-2.8608,-2.862,-2.862,-2.862,-2.862,-2.862,-2.862,-2.862,-2.862,-2.862,-2.862,-2.862,-2.862,-2.862,-2.862,-2.862,-2.9184,-2.948,-2.9861,-3.0097,-3.0369,-3.0355,-3.065,-3.0955,-3.0942,-3.0835,-3.0728,-3.0555,-3.0528,-3.0448,-3.0261,-3.0167,-3.0074,-3.0087,-2.9967,-2.9913,-2.99,-2.9913,-2.9726,-2.9419,-2.9392,-2.9366,-2.9366,-2.9366,-2.9379,-2.9406,-2.9392,-2.9472,-2.9593,-2.9646,-2.9713,-2.9873,-2.9913,-2.9993,-3.0034,-3.0087,-3.0261,-3.0421,-3.0515,-3.0662,-3.0889,-3.1009,-3.1089,-3.1102,-3.1116,-3.1142,-3.1196,-3.1249,-3.1249,-3.1276,-3.1356,-3.1383,-3.1517,-3.1557,-3.1557,-3.1664,-3.1677,-3.1557,-3.1396,-3.1396,-3.137,-2.7051,-2.7051,-2.7075,-2.7244,-2.7425,-2.7437,-2.7558,-2.7763,-2.7775,-2.7751,-2.7775,-2.7799,-2.7836,-2.7836,-2.7908,-2.7944,-2.7872,-2.792,-2.8041,-2.8101,-2.8005,-2.792,-2.7944,-2.7956,-2.8053,-2.8198,-2.8222,-2.8355,-2.8524,-2.8536,-2.862,-2.8584,-2.8584,-2.8608,-2.862,-2.862,-2.862,-2.862,-2.8644,-2.8669,-2.8681,-2.8705,-2.8705,-2.8717,-2.8729,-2.8729,-2.8741,-2.8753,-2.8693,-2.8632,-2.9004,-2.9363,-2.9937,-3.0509,-3.0661,-3.0635,-3.1006,-3.1276,-3.1196,-3.1062,-3.0889,-3.0835,-3.0822,-3.0795,-3.0702,-3.0501,-3.0381,-3.0368,-3.0181,-3.002,-3.0034,-2.9993,-2.994,-2.99,-2.9806,-2.982,-2.9887,-2.986,-2.9806,-2.9833,-2.99,-2.99,-2.9887,-2.99,-2.9953,-2.998,-3.002,-3.0181,-3.0301,-3.0421,-3.0528,-3.0662,-3.0808,-3.0982,-3.1196,-3.1263,-3.133,-3.1356,-3.1383,-3.1396,-3.1436,-3.1476,-3.1503,-3.1557,-3.157,-3.1637,-3.1664,-3.1664,-3.1677,-3.1677,-3.1677,-3.1677,-3.165,-3.1597,-3.157,-2.7317,-2.7341,-2.7522,-2.7642,-2.7703,-2.7715,-2.7739,-2.7811,-2.7824,-2.786,-2.786,-2.8017,-2.8101,-2.8125,-2.8306,-2.8415,-2.8379,-2.8391,-2.8427,-2.8487,-2.8451,-2.8403,-2.8415,-2.8403,-2.8427,-2.85,-2.8487,-2.8548,-2.862,-2.862,-2.8632,-2.862,-2.8644,-2.8644,-2.862,-2.8656,-2.862,-2.8656,-2.8837,-2.891,-2.8934,-2.9091,-2.92,-2.92,-2.9175,-2.9175,-2.9188,-2.92,-2.8994,-2.8656,-2.862,-2.8812,-2.9221,-2.9975,-3.0357,-3.0522,-3.1028,-3.1543,-3.153,-3.1463,-3.133,-3.1142,-3.1116,-3.1009,-3.0808,-3.0728,-3.0675,-3.0662,-3.0595,-3.0541,-3.0515,-3.0368,-3.0181,-2.9953,-2.9967,-2.9953,-2.9913,-2.9913,-2.9913,-2.9913,-2.9927,-2.994,-3.0007,-3.0114,-3.0234,-3.0274,-3.0381,-3.0541,-3.0635,-3.0688,-3.0782,-3.0982,-3.1142,-3.1303,-3.145,-3.1517,-3.157,-3.1583,-3.1597,-3.157,-3.1597,-3.1597,-3.1623,-3.165,-3.1623,-3.1664,-3.1664,-3.1677,-3.1677,-3.1677,-3.1677,-3.1677,-3.1677,-3.1637,-3.1637,-2.6829,-2.7594,-2.7751,-2.7872,-2.7968,-2.798,-2.8041,-2.8137,-2.8149,-2.8149,-2.8186,-2.8306,-2.8379,-2.8403,-2.8548,-2.862,-2.862,-2.862,-2.862,-2.862,-2.8608,-2.8608,-2.8608,-2.862,-2.862,-2.862,-2.8632,-2.862,-2.862,-2.862,-2.8681,-2.8777,-2.8789,-2.8837,-2.8982,-2.8946,-2.8946,-2.8982,-2.9103,-2.9175,-2.92,-2.932,-2.9381,-2.9405,-2.9405,-2.9405,-2.9393,-2.9393,-2.9248,-2.9019,-2.8958,-2.8946,-2.9322,-2.9791,-3.0318,-3.0689,-3.1363,-3.1664,-3.1677,-3.1677,-3.1597,-3.145,-3.141,-3.133,-3.1183,-3.1062,-3.0982,-3.0969,-3.0875,-3.0808,-3.0768,-3.0635,-3.0474,-3.0354,-3.0287,-3.0181,-2.9967,-2.9913,-2.998,-3.0047,-3.01,-3.0167,-3.0247,-3.0434,-3.0515,-3.0568,-3.0648,-3.0808,-3.0942,-3.0969,-3.1049,-3.1249,-3.137,-3.149,-3.1543,-3.1597,-3.1623,-3.1664,-3.1664,-3.1677,-3.1677,-3.1677,-3.1677,-3.1677,-3.1677,-3.1677,-3.1677,-3.1677,-3.1677,-3.1677,-3.1677,-3.1677,-3.1677,-3.1677,-3.1677,-2.5949,-2.786,-2.7685,-2.7828,-2.8234,-2.8056,-2.7974,-2.8572,-2.8572,-2.8572,-2.8584,-2.8608,-2.8584,-2.862,-2.8608,-2.8644,-2.8681,-2.8705,-2.8729,-2.8753,-2.8777,-2.8777,-2.8789,-2.8741,-2.8753,-2.8777,-2.8717,-2.8753,-2.8789,-2.8765,-2.8837,-2.9006,-2.9055,-2.9163,-2.9272,-2.9344,-2.9393,-2.9357,-2.9405,-2.9441,-2.9465,-2.9526,-2.9586,-2.9598,-2.9586,-2.9574,-2.9562,-2.9538,-2.9513,-2.9489,-2.9441,-2.9554,-2.9923,-3.0323,-3.0818,-3.1166,-3.1574,-3.1824,-3.1744,-3.1757,-3.1704,-3.165,-3.1637,-3.1677,-3.157,-3.1383,-3.1276,-3.1276,-3.1036,-3.0955,-3.0875,-3.0849,-3.0782,-3.0715,-3.0742,-3.0515,-3.0167,-3.0007,-3.0114,-3.0354,-3.0408,-3.0541,-3.0688,-3.0822,-3.0835,-3.0862,-3.0955,-3.1129,-3.1236,-3.1276,-3.137,-3.153,-3.161,-3.1637,-3.1664,-3.1664,-3.1664,-3.1677,-3.1677,-3.1677,-3.1677,-3.1677,-3.1677,-3.1677,-3.1677,-3.1677,-3.1677,-3.1677,-3.1677,-3.1677,-3.1677,-3.1677,-3.1677,-3.1677,-3.1677,-2.6197,-2.7936,-2.659,-2.6907,-2.8128,-2.6772,-2.6987,-2.862,-2.862,-2.8632,-2.8632,-2.8632,-2.8644,-2.8644,-2.8681,-2.8729,-2.891,-2.8946,-2.9031,-2.9236,-2.9236,-2.9236,-2.9188,-2.9043,-2.9055,-2.9151,-2.9224,-2.9224,-2.9212,-2.9175,-2.926,-2.9308,-2.932,-2.9357,-2.9417,-2.9477,-2.9405,-2.9441,-2.961,-2.9707,-2.9767,-2.99,-2.9984,-2.9996,-2.9996,-3.002,-3.0045,-3.0045,-3.0045,-2.9948,-2.967,-2.9465,-2.9836,-3.0549,-3.0903,-3.1269,-3.1996,-3.2238,-3.2064,-3.1998,-3.1904,-3.1717,-3.1717,-3.1677,-3.1677,-3.161,-3.157,-3.157,-3.1503,-3.133,-3.1169,-3.1129,-3.1049,-3.0929,-3.0849,-3.0795,-3.0648,-3.0595,-3.0595,-3.0675,-3.0702,-3.0728,-3.0808,-3.1049,-3.1102,-3.1156,-3.1289,-3.1463,-3.1517,-3.153,-3.1583,-3.1677,-3.1677,-3.1677,-3.1677,-3.1677,-3.1677,-3.1677,-3.1677,-3.1677,-3.1677,-3.1677,-3.1677,-3.1677,-3.1677,-3.1677,-3.1677,-3.1677,-3.1677,-3.1677,-3.1677,-3.1677,-3.1677,-3.1677,-3.1677,-2.3535,-2.5292,-2.4432,-2.527,-2.6851,-2.6056,-2.6647,-2.8428,-2.862,-2.8693,-2.8789,-2.8813,-2.8874,-2.8982,-2.8994,-2.9079,-2.9163,-2.92,-2.926,-2.9381,-2.9393,-2.9465,-2.9574,-2.9453,-2.9417,-2.9429,-2.9393,-2.9405,-2.9405,-2.9429,-2.9453,-2.9586,-2.9586,-2.9682,-2.9767,-2.9767,-2.9803,-2.9815,-2.9912,-2.9996,-3.0033,-3.0129,-3.0214,-3.0214,-3.0214,-3.0214,-3.0202,-3.0202,-3.0202,-3.0141,-2.9936,-2.9979,-3.0142,-3.0851,-3.1196,-3.1762,-3.2208,-3.2505,-3.2345,-3.2291,-3.2185,-3.1891,-3.1877,-3.1784,-3.1717,-3.1677,-3.1677,-3.1677,-3.165,-3.1583,-3.145,-3.1436,-3.133,-3.1263,-3.1196,-3.1196,-3.1169,-3.0969,-3.0862,-3.0942,-3.0996,-3.1089,-3.1209,-3.1316,-3.137,-3.1423,-3.1436,-3.1597,-3.1597,-3.161,-3.1623,-3.1677,-3.1677,-3.1677,-3.1677,-3.1677,-3.1677,-3.1677,-3.1677,-3.1677,-3.1677,-3.1677,-3.1677,-3.1677,-3.1677,-3.1677,-3.1677,-3.1677,-3.1677,-3.1677,-3.1677,-3.1677,-3.1677,-3.1677,-3.1677,-2.0389,-2.234,-2.1949,-2.3121,-2.4882,-2.5119,-2.6133,-2.7909,-2.8536,-2.891,-2.9043,-2.9079,-2.9175,-2.9344,-2.9369,-2.9405,-2.9465,-2.955,-2.961,-2.961,-2.9622,-2.9719,-2.9827,-2.9827,-2.9743,-2.9538,-2.9586,-2.9586,-2.9586,-2.955,-2.9707,-2.9839,-2.9864,-2.9948,-3.0141,-3.0202,-3.0141,-3.0141,-3.0153,-3.0177,-3.0177,-3.0202,-3.0214,-3.0214,-3.0214,-3.0214,-3.0214,-3.0214,-3.0214,-3.0214,-3.0214,-3.0416,-3.076,-3.1227,-3.1662,-3.2047,-3.2458,-3.2719,-3.2639,-3.2599,-3.2492,-3.2198,-3.2171,-3.2024,-3.1837,-3.177,-3.173,-3.169,-3.1664,-3.1664,-3.1664,-3.1637,-3.1637,-3.1623,-3.165,-3.1677,-3.1583,-3.1209,-3.1156,-3.1236,-3.1303,-3.137,-3.1476,-3.1583,-3.1637,-3.1677,-3.1677,-3.1677,-3.1677,-3.1677,-3.1677,-3.1677,-3.1677,-3.1677,-3.1677,-3.169,-3.169,-3.1757,-3.1744,-3.1784,-3.181,-3.1931,-3.1957,-3.1717,-3.1677,-3.169,-3.169,-3.1677,-3.1677,-3.1677,-3.1677,-3.1677,-3.1677,-3.1677,-3.1677,-2.0389,-2.2144,-2.0389,-2.0978,-2.276,-2.312,-2.4587,-2.6419,-2.8356,-2.9296,-2.9332,-2.9344,-2.9369,-2.9429,-2.9417,-2.9526,-2.9743,-2.9888,-3.0008,-3.002,-3.0008,-3.0069,-2.9665,-3.0093,-3.0069,-3.0105,-3.0033,-3.0008,-3.0033,-3.0093,-3.002,-3.0117,-3.0117,-3.0177,-3.0189,-3.0214,-3.0214,-3.0214,-3.0214,-3.0214,-3.0214,-3.0214,-3.0214,-3.0214,-3.0214,-3.0214,-3.0214,-3.0214,-3.0214,-3.0214,-3.0214,-3.0214,-3.0607,-3.1151,-3.1717,-3.1893,-3.2628,-3.3093,-3.2946,-3.2906,-3.2759,-3.2559,-3.2478,-3.2332,-3.2118,-3.2024,-3.1931,-3.1757,-3.1704,-3.169,-3.1677,-3.1677,-3.1677,-3.1677,-3.1677,-3.1677,-3.1637,-3.1557,-3.145,-3.1517,-3.1557,-3.157,-3.1637,-3.1677,-3.1677,-3.1677,-3.1677,-3.1677,-3.1677,-3.1677,-3.1677,-3.1677,-3.1677,-3.1677,-3.1677,-3.169,-3.1717,-3.1864,-3.1917,-3.2051,-3.2118,-3.2305,-3.2265,-3.2011,-3.1837,-3.181,-3.1784,-3.1757,-3.173,-3.177,-3.173,-3.1677,-3.1677,-3.1677,-3.1677,-1.8236,-1.9026,-1.8137,-1.8964,-2.0768,-2.2329,-2.4018,-2.6233,-2.8346,-2.9477,-2.9574,-2.961,-2.9695,-2.9791,-2.9827,-2.9912,-2.9819,-3.0129,-3.0214,-3.0214,-3.0214,-2.9389,-2.8971,-2.9593,-2.9377,-2.9174,-2.9581,-3.0011,-3.0214,-3.0202,-3.0214,-3.0214,-3.0214,-3.0214,-3.0214,-3.0214,-3.0214,-3.0214,-3.0214,-3.0214,-3.0214,-3.0214,-3.0214,-3.0214,-3.0214,-3.0214,-3.0214,-3.0214,-3.0214,-3.0214,-3.0214,-3.0214,-3.0416,-3.0809,-3.1416,-3.1617,-3.241,-3.296,-3.2841,-3.3001,-3.3066,-3.2812,-3.2772,-3.2625,-3.2425,-3.2305,-3.2185,-3.1984,-3.1891,-3.1824,-3.169,-3.169,-3.1677,-3.1677,-3.1677,-3.1677,-3.1677,-3.1677,-3.1677,-3.1677,-3.165,-3.1637,-3.165,-3.1677,-3.1677,-3.1677,-3.1677,-3.1677,-3.1677,-3.1677,-3.1677,-3.173,-3.1757,-3.1824,-3.1851,-3.1891,-3.1917,-3.2024,-3.2158,-3.2291,-3.2385,-3.2532,-3.2478,-3.2278,-3.2144,-3.2131,-3.2064,-3.2104,-3.1998,-3.1877,-3.181,-3.1757,-3.1704,-3.1677,-3.1704,-1.6144,-1.6178,-1.63,-1.735,-1.9171,-2.1335,-2.3634,-2.565,-2.7935,-2.8884,-2.9238,-2.9072,-2.8964,-2.8913,-2.8744,-2.8756,-2.8971,-2.8756,-2.8552,-2.8348,-2.8348,-2.7725,-2.7305,-2.752,-2.7725,-2.6691,-2.752,-2.9377,-3.0214,-3.0214,-3.0214,-3.0214,-3.0214,-3.0214,-3.0214,-3.0214,-3.0214,-3.0214,-3.0214,-3.0214,-3.0214,-3.0214,-3.0214,-3.0214,-3.0214,-3.0214,-3.0214,-3.0214,-3.0214,-3.0214,-3.0214,-3.0214,-3.0214,-3.0619,-3.0822,-3.1012,-3.1806,-3.241,-3.2598,-3.3,-3.3067,-3.2881,-3.3066,-3.2906,-3.2692,-3.2545,-3.2425,-3.2238,-3.2185,-3.2064,-3.1864,-3.177,-3.173,-3.1677,-3.1677,-3.1677,-3.1677,-3.1677,-3.1677,-3.1677,-3.1677,-3.1677,-3.169,-3.1677,-3.1677,-3.1677,-3.1677,-3.1677,-3.1677,-3.1677,-3.169,-3.1784,-3.1864,-3.1984,-3.2078,-3.2185,-3.2238,-3.2332,-3.2478,-3.2612,-3.2666,-3.2732,-3.2666,-3.2679,-3.2719,-3.2706,-3.2585,-3.2412,-3.2278,-3.2131,-3.1957,-3.1931,-3.2011,-3.1931,-3.1864,-1.6354,-1.6469,-1.6483,-1.6701,-1.7327,-1.9505,-2.1821,-2.3867,-2.6071,-2.7229,-2.7229,-2.7046,-2.6229,-2.5235,-2.4834,-2.4618,-2.4618,-2.5029,-2.5235,-2.5245,-2.5039,-2.4834,-2.4,-2.4206,-2.4618,-2.4206,-2.4618,-2.6691,-2.8971,-2.9796,-3.0214,-3.0214,-3.0214,-3.0214,-3.0214,-3.0214,-3.0214,-3.0214,-3.0214,-3.0214,-3.0226,-3.0226,-3.0238,-3.0238,-3.0262,-3.0286,-3.031,-3.0322,-3.0298,-3.0274,-3.025,-3.0226,-3.0214,-3.0214,-3.0214,-3.0619,-3.1214,-3.1806,-3.2008,-3.241,-3.2799,-3.2707,-3.312,-3.32,-3.2986,-3.2746,-3.2612,-3.2519,-3.2492,-3.2358,-3.2131,-3.2051,-3.1917,-3.1824,-3.1797,-3.177,-3.1744,-3.1797,-3.1784,-3.1717,-3.173,-3.1717,-3.1717,-3.169,-3.1677,-3.1677,-3.1677,-3.1677,-3.1704,-3.173,-3.1864,-3.1998,-3.2091,-3.2211,-3.2358,-3.2465,-3.2572,-3.2652,-3.2786,-3.2933,-3.2959,-3.3013,-3.3173,-3.3187,-3.3213,-3.308,-3.2826,-3.2652,-3.2532,-3.2425,-3.2305,-3.2345,-3.2452,-3.2291,-3.2064,-1.6544,-1.653,-1.6619,-1.6646,-1.6872,-1.9275,-2.0786,-2.2033,-2.3961,-2.5029,-2.5029,-2.5039,-2.4412,-2.3381,-2.3587,-2.3587,-2.3587,-2.3381,-2.3587,-2.339,-2.339,-2.277,-2.2347,-2.2761,-2.3174,-2.2166,-2.3174,-2.545,-2.752,-2.8359,-2.8756,-3.0214,-3.0214,-3.0214,-3.0238,-3.0214,-3.0214,-3.0214,-3.0214,-3.0214,-3.025,-3.0358,-3.0443,-3.0443,-3.0576,-3.0624,-3.0636,-3.066,-3.066,-3.066,-3.066,-3.066,-3.0612,-3.0539,-3.0443,-3.0431,-3.0692,-3.1024,-3.1416,-3.2222,-3.241,-3.2812,-3.3013,-3.3347,-3.3213,-3.3106,-3.2919,-3.2799,-3.2786,-3.2652,-3.2438,-3.2358,-3.2291,-3.2185,-3.2078,-3.2091,-3.2064,-3.1944,-3.1931,-3.1851,-3.181,-3.1851,-3.1864,-3.1824,-3.181,-3.1784,-3.177,-3.1757,-3.181,-3.1864,-3.2064,-3.2318,-3.2398,-3.2465,-3.2639,-3.2799,-3.2933,-3.3013,-3.3093,-3.3213,-3.324,-3.332,-3.3387,-3.3414,-3.3334,-3.3187,-3.3,-3.2906,-3.2799,-3.2732,-3.2652,-3.2679,-3.2679,-3.2532,-3.2318,-1.6741,-1.6646,-1.6761,-1.6809,-1.7023,-1.8782,-1.9863,-2.0479,-2.214,-2.2761,-2.2554,-2.214,-2.1941,-2.1941,-2.1734,-2.1527,-2.1734,-2.1941,-2.1977,-2.1994,-2.1804,-2.1012,-2.0442,-2.1063,-2.1063,-1.9579,-2.0676,-2.2762,-2.441,-2.5634,-2.6656,-3.0023,-3.0214,-3.0262,-3.031,-3.0346,-3.0371,-3.0479,-3.0467,-3.0467,-3.0479,-3.0612,-3.0684,-3.0757,-3.0877,-3.0998,-3.0998,-3.0974,-3.0974,-3.0962,-3.095,-3.0926,-3.0902,-3.0781,-3.0708,-3.0684,-3.0769,-3.0635,-3.116,-3.1681,-3.2222,-3.2611,-3.3013,-3.34,-3.3387,-3.34,-3.336,-3.3093,-3.3093,-3.2933,-3.2732,-3.2652,-3.2559,-3.2519,-3.2465,-3.2519,-3.2519,-3.2332,-3.2211,-3.2185,-3.2144,-3.2118,-3.2104,-3.2011,-3.1957,-3.1917,-3.1891,-3.1877,-3.1971,-3.2104,-3.2318,-3.2599,-3.2666,-3.2759,-3.2959,-3.312,-3.3253,-3.3293,-3.3374,-3.34,-3.3374,-3.3374,-3.34,-3.3414,-3.3414,-3.3347,-3.32,-3.3133,-3.308,-3.304,-3.2986,-3.2893,-3.2826,-3.2706,-3.2559,-1.6958,-1.6951,-1.6958,-1.6958,-1.6958,-1.7181,-1.8424,-1.9863,-2.0279,-2.0488,-2.0279,-1.8641,-1.8035,-1.7832,-1.8273,-1.8063,-1.7825,-1.7398,-1.8121,-1.82,-1.7607,-1.8081,-1.8138,-1.8388,-1.8202,-1.7988,-1.88,-1.9874,-2.0972,-2.2161,-2.5152,-2.9256,-2.953,-3.0214,-3.0503,-3.0588,-3.0672,-3.0781,-3.0829,-3.0853,-3.0865,-3.0938,-3.0962,-3.0974,-3.0998,-3.101,-3.101,-3.1071,-3.1107,-3.1107,-3.1119,-3.1119,-3.1131,-3.1022,-3.0974,-3.095,-3.0877,-3.0733,-3.101,-3.1197,-3.1441,-3.2021,-3.2812,-3.3414,-3.3414,-3.3414,-3.3374,-3.3347,-3.3293,-3.32,-3.304,-3.2933,-3.2853,-3.2799,-3.2772,-3.2759,-3.2732,-3.2625,-3.2519,-3.2505,-3.2465,-3.2398,-3.2452,-3.2385,-3.2265,-3.2238,-3.2238,-3.2225,-3.2358,-3.2492,-3.2666,-3.2853,-3.2919,-3.3053,-3.328,-3.3374,-3.336,-3.3347,-3.3387,-3.3414,-3.34,-3.3414,-3.3414,-3.3414,-3.3414,-3.3414,-3.34,-3.3307,-3.3267,-3.3347,-3.3307,-3.316,-3.308,-3.3026,-3.2826,-1.6978,-1.6978,-1.6978,-1.6978,-1.6978,-1.6978,-1.7391,-1.8222,-1.8215,-1.8222,-1.823,-1.7482,-1.7114,-1.7134,-1.7222,-1.7249,-1.7249,-1.7249,-1.729,-1.7311,-1.7344,-1.7372,-1.7419,-1.7433,-1.7412,-1.7433,-1.7426,-1.8481,-2.0602,-2.0436,-2.2681,-2.568,-2.7753,-2.948,-3.0196,-3.0865,-3.0938,-3.0974,-3.101,-3.101,-3.1034,-3.1179,-3.124,-3.124,-3.1445,-3.1481,-3.1505,-3.1505,-3.1493,-3.1481,-3.1469,-3.1445,-3.1409,-3.1312,-3.1252,-3.1215,-3.1131,-3.0986,-3.0841,-3.1203,-3.1604,-3.2235,-3.3013,-3.3414,-3.3414,-3.3414,-3.3414,-3.34,-3.3414,-3.332,-3.328,-3.324,-3.32,-3.3106,-3.3053,-3.3013,-3.2959,-3.2866,-3.2812,-3.2812,-3.2692,-3.2585,-3.2692,-3.2799,-3.2666,-3.2559,-3.2572,-3.2612,-3.2732,-3.2826,-3.2959,-3.3066,-3.3133,-3.3187,-3.3374,-3.3414,-3.3414,-3.3414,-3.3414,-3.3414,-3.3414,-3.3414,-3.3414,-3.3414,-3.3414,-3.3414,-3.3414,-3.3414,-3.3414,-3.34,-3.34,-3.3374,-3.3334,-3.3293,-3.3093,-1.6978,-1.6978,-1.6978,-1.6978,-1.6978,-1.6978,-1.6978,-1.6985,-1.7026,-1.708,-1.7114,-1.7222,-1.7263,-1.7297,-1.7351,-1.7405,-1.7392,-1.7399,-1.7439,-1.7473,-1.7487,-1.7514,-1.7541,-1.7568,-1.7595,-1.7555,-1.7555,-1.8647,-1.9514,-1.9916,-2.1417,-2.3126,-2.4817,-2.6943,-2.9641,-3.0994,-3.1018,-3.0376,-3.1018,-3.124,-3.1288,-3.1421,-3.1517,-3.1529,-3.1674,-3.1735,-3.1735,-3.1735,-3.1747,-3.1747,-3.1759,-3.1783,-3.1735,-3.165,-3.1541,-3.1457,-3.136,-3.1203,-3.1267,-3.14,-3.1755,-3.2402,-3.2838,-3.3227,-3.3414,-3.3414,-3.3414,-3.3414,-3.3414,-3.3414,-3.3414,-3.3374,-3.336,-3.3267,-3.3267,-3.3253,-3.324,-3.3173,-3.3133,-3.3093,-3.2986,-3.2933,-3.2973,-3.3093,-3.304,-3.2946,-3.2973,-3.3,-3.3053,-3.3133,-3.3173,-3.3267,-3.3334,-3.3374,-3.3414,-3.3414,-3.3414,-3.3414,-3.3414,-3.3414,-3.3414,-3.3414,-3.3414,-3.3414,-3.3414,-3.3414,-3.3414,-3.3414,-3.3414,-3.3414,-3.3414,-3.3414,-3.34,-3.3347,-3.3307,-1.6978,-1.6978,-1.6985,-1.6992,-1.7005,-1.6985,-1.6998,-1.7046,-1.7141,-1.7256,-1.7358,-1.7405,-1.7419,-1.7426,-1.7467,-1.7494,-1.7494,-1.748,-1.7521,-1.7623,-1.7643,-1.7717,-1.7772,-1.7799,-1.7758,-1.7833,-1.7799,-1.7992,-1.8246,-1.8431,-1.9755,-2.0849,-2.2318,-2.4233,-2.7771,-3.0562,-3.0453,-2.9145,-3.0644,-3.1485,-3.1698,-3.1722,-3.1735,-3.1747,-3.1771,-3.1807,-3.1807,-3.1807,-3.1807,-3.1807,-3.1807,-3.1807,-3.1783,-3.1783,-3.1747,-3.1735,-3.1747,-3.1614,-3.1384,-3.1511,-3.17,-3.2201,-3.2657,-3.2904,-3.3253,-3.3427,-3.3414,-3.3414,-3.3414,-3.3414,-3.3414,-3.3414,-3.3414,-3.3414,-3.3414,-3.34,-3.3374,-3.336,-3.3293,-3.3267,-3.3334,-3.3374,-3.3374,-3.3374,-3.336,-3.3347,-3.3387,-3.3387,-3.3347,-3.3334,-3.3334,-3.336,-3.3414,-3.3414,-3.3414,-3.3414,-3.3414,-3.3414,-3.3414,-3.3414,-3.3414,-3.3414,-3.3414,-3.3414,-3.3414,-3.3414,-3.3414,-3.3414,-3.3414,-3.3414,-3.3414,-3.3414,-3.3414,-3.34,-3.336,-1.7032,-1.7121,-1.7121,-1.7182,-1.7249,-1.7161,-1.7175,-1.727,-1.7324,-1.7372,-1.7439,-1.7514,-1.7568,-1.7595,-1.7663,-1.769,-1.7697,-1.7717,-1.7772,-1.7772,-1.7779,-1.7812,-1.7853,-1.786,-1.786,-1.786,-1.786,-1.786,-1.8067,-1.786,-1.8081,-1.9177,-2.0701,-2.2839,-2.5615,-2.807,-2.8737,-2.8737,-3.0477,-3.1807,-3.1807,-3.1807,-3.1807,-3.1807,-3.1807,-3.1807,-3.1807,-3.1807,-3.1807,-3.1807,-3.1807,-3.1807,-3.1807,-3.1807,-3.1807,-3.1807,-3.1807,-3.1771,-3.1602,-3.1534,-3.1463,-3.1887,-3.2469,-3.2924,-3.3114,-3.3306,-3.344,-3.3414,-3.3414,-3.3414,-3.3414,-3.3414,-3.3414,-3.3414,-3.3414,-3.3414,-3.34,-3.34,-3.3374,-3.336,-3.34,-3.3414,-3.3414,-3.3414,-3.3414,-3.3414,-3.3414,-3.3414,-3.3387,-3.3387,-3.3387,-3.3387,-3.3414,-3.3414,-3.3414,-3.3414,-3.3414,-3.3414,-3.3414,-3.3414,-3.3414,-3.3414,-3.3414,-3.3414,-3.3414,-3.3414,-3.3414,-3.3414,-3.3414,-3.3414,-3.3414,-3.3414,-3.3414,-3.3414,-3.34,-1.7141,-1.727,-1.727,-1.7358,-1.746,-1.7338,-1.7358,-1.748,-1.75,-1.7528,-1.7595,-1.7684,-1.7724,-1.7751,-1.7812,-1.786,-1.786,-1.786,-1.786,-1.786,-1.786,-1.786,-1.786,-1.786,-1.786,-1.786,-1.786,-1.786,-1.786,-1.786,-1.8081,-1.8522,-1.9397,-2.0474,-2.2866,-2.4825,-2.7002,-2.7434,-2.8963,-3.0928,-3.1368,-3.1807,-3.1807,-3.1807,-3.1807,-3.1807,-3.1807,-3.1807,-3.1807,-3.1807,-3.1807,-3.1807,-3.1807,-3.1807,-3.1807,-3.1807,-3.1807,-3.1807,-3.1722,-3.1662,-3.1632,-3.1942,-3.2414,-3.3032,-3.3159,-3.3369,-3.3641,-3.3574,-3.3494,-3.344,-3.3427,-3.3427,-3.3414,-3.3414,-3.3414,-3.3414,-3.3414,-3.3414,-3.3414,-3.3414,-3.3414,-3.3414,-3.3414,-3.3414,-3.3414,-3.3414,-3.3414,-3.3414,-3.3414,-3.3414,-3.3414,-3.3414,-3.3414,-3.3414,-3.3414,-3.3414,-3.3414,-3.3414,-3.3414,-3.3414,-3.3414,-3.3414,-3.3414,-3.3414,-3.3414,-3.3414,-3.3414,-3.3414,-3.3414,-3.3414,-3.3414,-3.3414,-3.3414,-3.3414,-3.3414,-1.729,-1.7419,-1.7426,-1.7514,-1.7616,-1.7507,-1.7528,-1.7656,-1.765,-1.7724,-1.7846,-1.7833,-1.784,-1.7846,-1.786,-1.786,-1.786,-1.786,-1.786,-1.786,-1.786,-1.786,-1.786,-1.786,-1.786,-1.786,-1.786,-1.786,-1.786,-1.786,-1.786,-1.786,-1.8302,-1.8957,-2.0262,-2.2,-2.4173,-2.5042,-2.7002,-2.8963,-3.0488,-3.1154,-3.1154,-3.1154,-3.138,-3.1154,-3.1154,-3.1154,-3.1368,-3.1593,-3.1593,-3.1807,-3.1807,-3.1807,-3.1807,-3.1807,-3.1807,-3.1807,-3.1807,-3.1759,-3.1759,-3.1814,-3.2361,-3.2981,-3.3227,-3.366,-3.3718,-3.3801,-3.3694,-3.3561,-3.3467,-3.344,-3.3414,-3.3414,-3.3414,-3.3414,-3.3414,-3.3414,-3.3414,-3.3414,-3.3414,-3.3414,-3.3414,-3.3414,-3.3414,-3.3414,-3.3414,-3.3414,-3.3414,-3.3414,-3.3414,-3.3414,-3.3414,-3.3414,-3.3414,-3.3414,-3.3414,-3.3414,-3.3414,-3.3414,-3.3414,-3.3414,-3.3414,-3.3414,-3.3414,-3.3414,-3.3414,-3.3414,-3.3414,-3.3414,-3.3414,-3.3414,-3.3414,-3.3414,-3.3414,-1.7446,-1.7582,-1.7582,-1.767,-1.7785,-1.7751,-1.7765,-1.7799,-1.7799,-1.7833,-1.786,-1.786,-1.786,-1.786,-1.786,-1.786,-1.786,-1.786,-1.786,-1.786,-1.786,-1.786,-1.786,-1.786,-1.786,-1.786,-1.786,-1.786,-1.786,-1.786,-1.786,-1.786,-1.786,-1.786,-1.8302,-1.939,-2.0921,-2.2665,-2.4617,-2.7002,-2.8737,-2.9393,-2.9393,-2.9404,-3.05,-2.9845,-2.8317,-3.0274,-3.05,-2.9833,-3.1142,-3.1593,-3.1807,-3.1807,-3.1807,-3.1807,-3.1807,-3.1807,-3.1807,-3.1807,-3.1807,-3.1807,-3.225,-3.2747,-3.3185,-3.3576,-3.3805,-3.3891,-3.3935,-3.3788,-3.3694,-3.3654,-3.3601,-3.3574,-3.3547,-3.3494,-3.348,-3.3427,-3.3427,-3.3414,-3.3414,-3.3414,-3.3414,-3.3414,-3.3414,-3.3414,-3.3414,-3.3414,-3.3414,-3.3414,-3.3414,-3.3414,-3.3414,-3.3414,-3.3414,-3.3414,-3.3414,-3.3414,-3.3414,-3.3414,-3.3414,-3.3414,-3.3414,-3.3414,-3.3414,-3.3414,-3.3414,-3.3414,-3.3414,-3.3414,-3.3414,-3.3414,-3.3414,-3.3414,-3.3414,-1.7602,-1.7724,-1.7738,-1.7785,-1.7853,-1.786,-1.786,-1.786,-1.786,-1.786,-1.786,-1.786,-1.786,-1.786,-1.786,-1.786,-1.786,-1.786,-1.786,-1.786,-1.7846,-1.786,-1.786,-1.7853,-1.786,-1.786,-1.786,-1.786,-1.786,-1.786,-1.786,-1.786,-1.786,-1.786,-1.8081,-1.8302,-1.8743,-2.0262,-2.2227,-2.4617,-2.591,-2.7002,-2.7002,-2.7218,-2.8748,-2.7012,-2.5486,-2.8317,-2.8307,-2.8307,-3.0048,-3.0928,-3.1368,-3.1807,-3.1807,-3.1807,-3.1807,-3.1807,-3.1807,-3.1807,-3.1807,-3.1807,-3.202,-3.2348,-3.302,-3.3433,-3.394,-3.4236,-3.4229,-3.4042,-3.3975,-3.3908,-3.3855,-3.3801,-3.3708,-3.3614,-3.3547,-3.348,-3.344,-3.3414,-3.3414,-3.3414,-3.3414,-3.3414,-3.3414,-3.3414,-3.3414,-3.3414,-3.3414,-3.3414,-3.3414,-3.3414,-3.3414,-3.3414,-3.3414,-3.3414,-3.3414,-3.3414,-3.3414,-3.3414,-3.3414,-3.3414,-3.3414,-3.3414,-3.3414,-3.3414,-3.3414,-3.3414,-3.3414,-3.3414,-3.3414,-3.3414,-3.3414,-3.3414,-3.3414,-1.7745,-1.7853,-1.786,-1.7846,-1.7846,-1.784,-1.7826,-1.7833,-1.7799,-1.7833,-1.7833,-1.784,-1.7812,-1.7765,-1.7758,-1.7765,-1.7758,-1.7758,-1.7751,-1.7819,-1.7765,-1.7758,-1.7765,-1.7819,-1.7772,-1.7812,-1.784,-1.7819,-1.7853,-1.786,-1.786,-1.786,-1.786,-1.786,-1.786,-1.786,-1.8302,-1.8736,-2.027,-2.2227,-2.3747,-2.4617,-2.4617,-2.4617,-2.4835,-2.4608,-2.4391,-2.4825,-2.5703,-2.7002,-2.8522,-2.9619,-3.1154,-3.1807,-3.1807,-3.1807,-3.1807,-3.1807,-3.1807,-3.1807,-3.1807,-3.1807,-3.1807,-3.2209,-3.2711,-3.3243,-3.398,-3.432,-3.4329,-3.4389,-3.4309,-3.4175,-3.4095,-3.4055,-3.3988,-3.3921,-3.3881,-3.3814,-3.3748,-3.3734,-3.3734,-3.3694,-3.3561,-3.3587,-3.3507,-3.3467,-3.3414,-3.3414,-3.344,-3.344,-3.3454,-3.3454,-3.3414,-3.3414,-3.3414,-3.3414,-3.3414,-3.3414,-3.344,-3.3414,-3.3414,-3.3414,-3.3414,-3.3414,-3.3414,-3.3414,-3.3414,-3.3414,-3.3414,-3.3414,-3.3414,-3.3414,-3.3414,-3.3414,-3.3414,-1.7833,-1.786,-1.786,-1.7806,-1.7704,-1.7697,-1.7629,-1.7528,-1.7528,-1.7595,-1.7684,-1.769,-1.7636,-1.7568,-1.7561,-1.7568,-1.7555,-1.7589,-1.7541,-1.7555,-1.7561,-1.7595,-1.7548,-1.7582,-1.7609,-1.7677,-1.7717,-1.7758,-1.7826,-1.7846,-1.786,-1.786,-1.786,-1.786,-1.786,-1.786,-1.786,-1.8081,-1.8736,-2.005,-2.179,-2.2227,-2.2227,-2.2665,-2.3093,-2.2437,-2.2219,-2.3093,-2.3093,-2.3747,-2.6786,-2.9178,-3.1593,-3.1593,-3.1807,-3.1807,-3.1807,-3.1807,-3.1807,-3.1807,-3.1807,-3.1807,-3.1807,-3.2234,-3.2623,-3.321,-3.378,-3.4137,-3.4465,-3.4541,-3.4616,-3.4482,-3.4376,-3.4336,-3.4269,-3.4242,-3.4215,-3.4135,-3.4068,-3.4068,-3.4068,-3.3961,-3.3814,-3.3721,-3.3614,-3.3534,-3.344,-3.3427,-3.348,-3.3507,-3.3574,-3.3547,-3.3427,-3.3414,-3.344,-3.3494,-3.3547,-3.3547,-3.3561,-3.3507,-3.344,-3.3467,-3.3521,-3.344,-3.3414,-3.3414,-3.3414,-3.3414,-3.3414,-3.3414,-3.3414,-3.3414,-3.3414,-3.3414,-3.3414,-1.7765,-1.7758,-1.769,-1.7623,-1.7555,-1.7548,-1.7494,-1.7433,-1.7419,-1.7426,-1.746,-1.7507,-1.7494,-1.7419,-1.7419,-1.7405,-1.7405,-1.7426,-1.7446,-1.7433,-1.7405,-1.7433,-1.7419,-1.7419,-1.7473,-1.7541,-1.7629,-1.7704,-1.7785,-1.7846,-1.786,-1.786,-1.786,-1.786,-1.786,-1.786,-1.786,-1.786,-1.786,-1.8736,-1.983,-1.983,-1.983,-2.0482,-2.0262,-1.983,-2.005,-2.0701,-2.114,-2.2008,-2.5052,-2.7434,-2.9404,-3.0059,-3.0714,-3.1368,-3.1807,-3.1807,-3.1807,-3.1807,-3.1807,-3.1807,-3.1807,-3.202,-3.2222,-3.2823,-3.346,-3.403,-3.486,-3.4963,-3.495,-3.4843,-3.4817,-3.479,-3.4616,-3.4482,-3.4362,-3.4242,-3.4215,-3.4215,-3.4215,-3.4189,-3.4082,-3.4068,-3.3988,-3.3975,-3.3841,-3.3774,-3.3774,-3.3694,-3.3721,-3.3708,-3.3614,-3.3601,-3.3668,-3.3721,-3.3761,-3.3748,-3.3734,-3.3748,-3.3734,-3.3668,-3.3614,-3.3561,-3.348,-3.3414,-3.3414,-3.3427,-3.3414,-3.3414,-3.3414,-3.3414,-3.3414,-3.3414,-3.3414,-1.7616,-1.7602,-1.748,-1.7412,-1.7392,-1.7392,-1.7372,-1.7351,-1.7358,-1.7304,-1.7243,-1.7344,-1.7378,-1.7365,-1.7365,-1.7365,-1.7344,-1.729,-1.7324,-1.7372,-1.7372,-1.7392,-1.7405,-1.7419,-1.746,-1.7534,-1.7636,-1.7677,-1.7731,-1.7806,-1.786,-1.786,-1.786,-1.786,-1.786,-1.786,-1.786,-1.786,-1.786,-1.786,-1.8081,-1.786,-1.8081,-1.8081,-1.786,-1.786,-1.786,-1.8302,-1.9177,-2.0701,-2.3101,-2.592,-2.7876,-2.8963,-3.0274,-3.1154,-3.1807,-3.1807,-3.1807,-3.1807,-3.1807,-3.1807,-3.1807,-3.1807,-3.202,-3.2435,-3.3286,-3.371,-3.4544,-3.4966,-3.4953,-3.5164,-3.5151,-3.5124,-3.4897,-3.4736,-3.4589,-3.4456,-3.4456,-3.4456,-3.4456,-3.4442,-3.4389,-3.4376,-3.4362,-3.4362,-3.4336,-3.4322,-3.4269,-3.4108,-3.4042,-3.3988,-3.3895,-3.3895,-3.3935,-3.3961,-3.4002,-3.4042,-3.4042,-3.4055,-3.4028,-3.3961,-3.3855,-3.3694,-3.3614,-3.3574,-3.3494,-3.348,-3.3454,-3.344,-3.3414,-3.3414,-3.3414,-3.3414,-3.3414,-1.7467,-1.746,-1.7433,-1.7351,-1.7249,-1.7236,-1.7175,-1.7073,-1.708,-1.71,-1.7202,-1.7202,-1.7182,-1.7073,-1.7066,-1.7107,-1.7209,-1.7168,-1.7182,-1.7216,-1.729,-1.7344,-1.7392,-1.7426,-1.75,-1.7589,-1.769,-1.7792,-1.7751,-1.7812,-1.786,-1.786,-1.786,-1.786,-1.786,-1.786,-1.786,-1.786,-1.786,-1.786,-1.786,-1.786,-1.786,-1.786,-1.786,-1.786,-1.786,-1.786,-1.8081,-1.9177,-2.0921,-2.3965,-2.6136,-2.7649,-2.8963,-3.05,-3.1154,-3.1593,-3.1593,-3.1807,-3.1807,-3.1807,-3.1807,-3.1807,-3.202,-3.2234,-3.286,-3.286,-3.371,-3.4346,-3.4544,-3.4966,-3.4966,-3.5177,-3.5044,-3.5044,-3.4963,-3.4937,-3.4937,-3.4937,-3.4937,-3.483,-3.4683,-3.4643,-3.4576,-3.4549,-3.4456,-3.4456,-3.4482,-3.4416,-3.4376,-3.4309,-3.4229,-3.4202,-3.4229,-3.4242,-3.4269,-3.4322,-3.4349,-3.4349,-3.4322,-3.4269,-3.4135,-3.3961,-3.3868,-3.3828,-3.3734,-3.3641,-3.3521,-3.3494,-3.344,-3.3414,-3.3414,-3.3414,-3.3414]}]]